| time (UTC) | temp F | wind direction | speed MPH | gust MPH | rain 1hr in | rain 24hr in | rain mn in | humidity % | barometer mb |
| 20260902063503 | 61 | 131 | 1.0 | 4.0 | 0.00 | 0.00 | 0.00 | 81 | 1015.8 |
| 20260902063403 | 61 | 134 | 1.0 | 4.0 | 0.00 | 0.00 | 0.00 | 81 | 1015.8 |
| 20260902063257 | 61 | 121 | 1.0 | 4.0 | 0.00 | 0.00 | 0.00 | 81 | 1015.8 |
| 20260902063134 | 61 | 134 | 1.0 | 4.0 | 0.00 | 0.00 | 0.00 | 81 | 1015.8 |
| 20260902063056 | 61 | 134 | 1.0 | 4.0 | 0.00 | 0.00 | 0.00 | 81 | 1015.8 |
| 20260902062956 | 61 | 148 | 1.0 | 2.0 | 0.00 | 0.00 | 0.00 | 81 | 1015.9 |
| 20260902062857 | 61 | 130 | 1.0 | 2.0 | 0.00 | 0.00 | 0.00 | 81 | 1015.8 |
| 20260902062751 | 61 | 139 | 1.0 | 2.0 | 0.00 | 0.00 | 0.00 | 81 | 1015.9 |
| 20260902062631 | 61 | 127 | 1.0 | 3.0 | 0.00 | 0.00 | 0.00 | 81 | 1015.9 |
| 20260902062551 | 61 | 121 | 1.0 | 3.0 | 0.00 | 0.00 | 0.00 | 81 | 1015.9 |
| 20260902062450 | 61 | 121 | 1.0 | 3.0 | 0.00 | 0.00 | 0.00 | 81 | 1015.9 |
| 20260902062350 | 61 | 134 | 1.0 | 4.0 | 0.00 | 0.00 | 0.00 | 81 | 1015.8 |
| 20260902062250 | 61 | 136 | 1.0 | 4.0 | 0.00 | 0.00 | 0.00 | 81 | 1015.8 |
| 20260902062132 | 61 | 135 | 1.0 | 4.0 | 0.00 | 0.00 | 0.00 | 81 | 1015.8 |
| 20260902062050 | 61 | 136 | 2.0 | 5.0 | 0.00 | 0.00 | 0.00 | 81 | 1015.8 |
| 20260902061948 | 61 | 136 | 2.0 | 7.0 | 0.00 | 0.00 | 0.00 | 81 | 1015.8 |
| 20260902061844 | 61 | 181 | 2.0 | 7.0 | 0.00 | 0.00 | 0.00 | 81 | 1015.8 |
| 20260902061742 | 62 | 150 | 2.0 | 7.0 | 0.00 | 0.00 | 0.00 | 81 | 1015.8 |
| 20260902061632 | 62 | 141 | 2.0 | 7.0 | 0.00 | 0.00 | 0.00 | 81 | 1015.8 |
| 20260902061555 | 62 | 169 | 2.0 | 7.0 | 0.00 | 0.00 | 0.00 | 81 | 1015.8 |
| 20260902061551 | 62 | 143 | 2.0 | 7.0 | 0.00 | 0.00 | 0.00 | 81 | 1015.8 |
| 20260902061343 | 62 | 228 | 2.0 | 7.0 | 0.00 | 0.00 | 0.00 | 81 | 1015.8 |
| 20260902061243 | 62 | 176 | 2.0 | 7.0 | 0.00 | 0.00 | 0.00 | 81 | 1015.8 |
| 20260902061130 | 62 | 226 | 2.0 | 7.0 | 0.00 | 0.00 | 0.00 | 81 | 1015.7 |
| 20260902061045 | 62 | 236 | 2.0 | 7.0 | 0.00 | 0.00 | 0.00 | 81 | 1015.7 |
| 20260902060939 | 62 | 194 | 2.0 | 7.0 | 0.00 | 0.00 | 0.00 | 81 | 1015.7 |
| 20260902060850 | 62 | 233 | 2.0 | 7.0 | 0.00 | 0.00 | 0.00 | 80 | 1015.7 |
| 20260902060838 | 62 | 204 | 2.0 | 7.0 | 0.00 | 0.00 | 0.00 | 80 | 1015.7 |
| 20260902060746 | 62 | 174 | 2.0 | 7.0 | 0.00 | 0.00 | 0.00 | 80 | 1015.8 |
| 20260902060738 | 62 | 233 | 2.0 | 7.0 | 0.00 | 0.00 | 0.00 | 80 | 1015.7 |
| 20260902060544 | 62 | 218 | 3.0 | 8.0 | 0.00 | 0.00 | 0.00 | 80 | 1015.8 |
| 20260902060438 | 62 | 141 | 3.0 | 8.0 | 0.00 | 0.00 | 0.00 | 80 | 1015.7 |
| 20260902060338 | 62 | 226 | 2.0 | 8.0 | 0.00 | 0.00 | 0.00 | 80 | 1015.7 |
| 20260902060238 | 62 | 235 | 3.0 | 8.0 | 0.00 | 0.00 | 0.00 | 80 | 1015.7 |
| 20260902060138 | 62 | 235 | 3.0 | 8.0 | 0.00 | 0.00 | 0.00 | 80 | 1015.8 |
| 20260902060128 | 62 | 200 | 3.0 | 8.0 | 0.00 | 0.00 | 0.00 | 80 | 1015.8 |
| 20260902060037 | 62 | 236 | 3.0 | 8.0 | 0.00 | 0.00 | 0.00 | 80 | 1015.7 |
| 20260902055934 | 62 | 236 | 3.0 | 8.0 | 0.00 | 0.00 | 0.00 | 80 | 1015.7 |
| 20260902055835 | 62 | 195 | 3.0 | 8.0 | 0.00 | 0.00 | 0.00 | 80 | 1015.8 |
| 20260902055732 | 62 | 232 | 3.0 | 8.0 | 0.00 | 0.00 | 0.00 | 80 | 1015.8 |
| 20260902055632 | 62 | 233 | 3.0 | 8.0 | 0.00 | 0.00 | 0.00 | 80 | 1015.8 |
| 20260902055530 | 62 | 229 | 3.0 | 7.0 | 0.00 | 0.00 | 0.00 | 80 | 1015.9 |
| 20260902055430 | 62 | 228 | 3.0 | 7.0 | 0.00 | 0.00 | 0.00 | 80 | 1015.8 |
| 20260902055330 | 62 | 232 | 3.0 | 7.0 | 0.00 | 0.00 | 0.00 | 80 | 1015.9 |
| 20260902055230 | 62 | 258 | 3.0 | 7.0 | 0.00 | 0.00 | 0.00 | 80 | 1015.8 |
| 20260902055131 | 62 | 267 | 3.0 | 6.0 | 0.00 | 0.00 | 0.00 | 80 | 1015.9 |
| 20260902055024 | 62 | 217 | 3.0 | 6.0 | 0.00 | 0.00 | 0.00 | 80 | 1015.8 |
| 20260902054925 | 62 | 228 | 3.0 | 9.0 | 0.00 | 0.00 | 0.00 | 80 | 1015.9 |
| 20260902054824 | 62 | 226 | 3.0 | 9.0 | 0.00 | 0.00 | 0.00 | 80 | 1015.8 |
| 20260902054722 | 62 | 231 | 3.0 | 9.0 | 0.00 | 0.00 | 0.00 | 80 | 1015.8 |
| 20260902054628 | 62 | 236 | 3.0 | 9.0 | 0.00 | 0.00 | 0.00 | 80 | 1015.9 |
| 20260902054623 | 62 | 242 | 3.0 | 9.0 | 0.00 | 0.00 | 0.00 | 80 | 1015.9 |
| 20260902054516 | 62 | 250 | 4.0 | 9.0 | 0.00 | 0.00 | 0.00 | 80 | 1015.9 |
| 20260902054424 | 62 | 239 | 4.0 | 9.0 | 0.00 | 0.00 | 0.00 | 80 | 1015.9 |
| 20260902054317 | 62 | 269 | 4.0 | 9.0 | 0.00 | 0.00 | 0.00 | 80 | 1015.9 |
| 20260902054217 | 62 | 239 | 4.0 | 9.0 | 0.00 | 0.00 | 0.00 | 80 | 1015.9 |
| 20260902054126 | 62 | 233 | 4.0 | 9.0 | 0.00 | 0.00 | 0.00 | 79 | 1015.9 |
| 20260902054116 | 62 | 219 | 4.0 | 10.0 | 0.00 | 0.00 | 0.00 | 79 | 1015.9 |
| 20260902054011 | 62 | 176 | 4.0 | 10.0 | 0.00 | 0.00 | 0.00 | 79 | 1015.9 |
| 20260902053911 | 62 | 236 | 4.0 | 10.0 | 0.00 | 0.00 | 0.00 | 79 | 1015.9 |
| 20260902053810 | 62 | 248 | 4.0 | 10.0 | 0.00 | 0.00 | 0.00 | 79 | 1015.9 |
| 20260902053710 | 62 | 204 | 4.0 | 10.0 | 0.00 | 0.00 | 0.00 | 79 | 1015.9 |
| 20260902053625 | 62 | 207 | 4.0 | 10.0 | 0.00 | 0.00 | 0.00 | 79 | 1015.9 |
| 20260902053611 | 62 | 238 | 4.0 | 11.0 | 0.00 | 0.00 | 0.00 | 79 | 1015.9 |
| 20260902053504 | 62 | 231 | 4.0 | 11.0 | 0.00 | 0.00 | 0.00 | 79 | 1015.9 |
| 20260902053404 | 62 | 228 | 4.0 | 11.0 | 0.00 | 0.00 | 0.00 | 79 | 1015.8 |
| 20260902053304 | 62 | 256 | 5.0 | 11.0 | 0.00 | 0.00 | 0.00 | 79 | 1015.9 |
| 20260902053206 | 62 | 218 | 5.0 | 11.0 | 0.00 | 0.00 | 0.00 | 79 | 1015.8 |
| 20260902053139 | 62 | 215 | 5.0 | 11.0 | 0.00 | 0.00 | 0.00 | 79 | 1015.8 |
| 20260902053105 | 62 | 252 | 5.0 | 11.0 | 0.00 | 0.00 | 0.00 | 79 | 1015.8 |
| 20260902053000 | 62 | 229 | 5.0 | 11.0 | 0.00 | 0.00 | 0.00 | 79 | 1015.8 |
| 20260902052900 | 62 | 207 | 5.0 | 11.0 | 0.00 | 0.00 | 0.00 | 79 | 1015.8 |
| 20260902052849 | 62 | 195 | 5.0 | 11.0 | 0.00 | 0.00 | 0.00 | 78 | 1015.8 |
| 20260902052801 | 62 | 248 | 5.0 | 11.0 | 0.00 | 0.00 | 0.00 | 78 | 1015.8 |
| 20260902052736 | 62 | 238 | 5.0 | 11.0 | 0.00 | 0.00 | 0.00 | 78 | 1015.8 |
| 20260902052559 | 62 | 219 | 5.0 | 11.0 | 0.00 | 0.00 | 0.00 | 78 | 1015.8 |
| 20260902052452 | 62 | 225 | 5.0 | 11.0 | 0.00 | 0.00 | 0.00 | 78 | 1015.9 |
| 20260902052353 | 62 | 207 | 5.0 | 11.0 | 0.00 | 0.00 | 0.00 | 78 | 1015.8 |
| 20260902052153 | 62 | 253 | 4.0 | 10.0 | 0.00 | 0.00 | 0.00 | 78 | 1015.8 |
| 20260902052126 | 62 | 226 | 4.0 | 10.0 | 0.00 | 0.00 | 0.00 | 78 | 1015.8 |
| 20260902052053 | 63 | 256 | 4.0 | 10.0 | 0.00 | 0.00 | 0.00 | 78 | 1015.9 |
| 20260902051949 | 63 | 225 | 4.0 | 10.0 | 0.00 | 0.00 | 0.00 | 78 | 1015.9 |
| 20260902051847 | 63 | 214 | 5.0 | 11.0 | 0.00 | 0.00 | 0.00 | 78 | 1015.9 |
| 20260902051746 | 63 | 243 | 5.0 | 11.0 | 0.00 | 0.00 | 0.00 | 78 | 1015.9 |
| 20260902051646 | 63 | 256 | 5.0 | 11.0 | 0.00 | 0.00 | 0.00 | 77 | 1015.9 |
| 20260902051625 | 63 | 236 | 5.0 | 11.0 | 0.00 | 0.00 | 0.00 | 77 | 1015.9 |
| 20260902051547 | 63 | 243 | 5.0 | 11.0 | 0.00 | 0.00 | 0.00 | 77 | 1015.9 |
| 20260902051443 | 63 | 216 | 5.0 | 11.0 | 0.00 | 0.00 | 0.00 | 77 | 1015.8 |
| 20260902051341 | 63 | 225 | 4.0 | 11.0 | 0.00 | 0.00 | 0.00 | 77 | 1015.8 |
| 20260902051240 | 63 | 222 | 5.0 | 13.0 | 0.00 | 0.00 | 0.00 | 77 | 1015.8 |
| 20260902051125 | 63 | 231 | 5.0 | 13.0 | 0.00 | 0.00 | 0.00 | 77 | 1015.8 |
| 20260902051050 | 63 | 281 | 5.0 | 13.0 | 0.00 | 0.00 | 0.00 | 77 | 1015.9 |
| 20260902050935 | 63 | 236 | 6.0 | 13.0 | 0.00 | 0.00 | 0.00 | 77 | 1015.9 |
| 20260902050834 | 63 | 228 | 6.0 | 15.0 | 0.00 | 0.00 | 0.00 | 77 | 1015.9 |
| 20260902050735 | 63 | 253 | 6.0 | 15.0 | 0.00 | 0.00 | 0.00 | 77 | 1015.9 |
| 20260902050636 | 63 | 274 | 6.0 | 15.0 | 0.00 | 0.00 | 0.00 | 77 | 1015.8 |
| 20260902050626 | 63 | 232 | 6.0 | 15.0 | 0.00 | 0.00 | 0.00 | 77 | 1015.8 |
| 20260902050534 | 63 | 235 | 6.0 | 15.0 | 0.00 | 0.00 | 0.00 | 77 | 1015.8 |
| 20260902050431 | 63 | 229 | 6.0 | 15.0 | 0.00 | 0.00 | 0.00 | 77 | 1015.8 |
| 20260902050328 | 63 | 228 | 7.0 | 15.0 | 0.00 | 0.00 | 0.00 | 77 | 1015.8 |
| 20260902050229 | 63 | 250 | 7.0 | 15.0 | 0.00 | 0.00 | 0.00 | 77 | 1015.9 |
| 20260902050130 | 63 | 267 | 7.0 | 15.0 | 0.00 | 0.00 | 0.00 | 77 | 1015.9 |
| 20260902050030 | 63 | 250 | 6.0 | 15.0 | 0.00 | 0.00 | 0.00 | 77 | 1015.8 |
| 20260902045924 | 63 | 210 | 6.0 | 15.0 | 0.00 | 0.00 | 0.00 | 76 | 1015.7 |
| 20260902045827 | 63 | 233 | 5.0 | 13.0 | 0.00 | 0.00 | 0.00 | 76 | 1015.7 |
| 20260902045727 | 63 | 246 | 5.0 | 13.0 | 0.00 | 0.00 | 0.00 | 76 | 1015.7 |
| 20260902045629 | 63 | 239 | 5.0 | 13.0 | 0.00 | 0.00 | 0.00 | 76 | 1015.7 |
| 20260902045623 | 63 | 231 | 5.0 | 13.0 | 0.00 | 0.00 | 0.00 | 76 | 1015.7 |
| 20260902045522 | 63 | 242 | 5.0 | 13.0 | 0.00 | 0.00 | 0.00 | 76 | 1015.7 |
| 20260902045418 | 63 | 195 | 4.0 | 13.0 | 0.00 | 0.00 | 0.00 | 76 | 1015.8 |
| 20260902045351 | 63 | 236 | 3.0 | 13.0 | 0.00 | 0.00 | 0.00 | 75 | 1015.8 |
| 20260902045318 | 63 | 253 | 4.0 | 13.0 | 0.00 | 0.00 | 0.00 | 76 | 1015.8 |
| 20260902045235 | 63 | 221 | 4.0 | 13.0 | 0.00 | 0.00 | 0.00 | 76 | 1015.8 |
| 20260902045120 | 63 | 266 | 3.0 | 13.0 | 0.00 | 0.00 | 0.00 | 75 | 1015.8 |
| 20260902045017 | 63 | 236 | 4.0 | 11.0 | 0.00 | 0.00 | 0.00 | 75 | 1015.8 |
| 20260902044910 | 63 | 221 | 4.0 | 11.0 | 0.00 | 0.00 | 0.00 | 75 | 1015.8 |
| 20260902044810 | 63 | 228 | 4.0 | 11.0 | 0.00 | 0.00 | 0.00 | 75 | 1015.8 |
| 20260902044714 | 63 | 210 | 4.0 | 11.0 | 0.00 | 0.00 | 0.00 | 75 | 1015.8 |
| 20260902044625 | 63 | 245 | 4.0 | 11.0 | 0.00 | 0.00 | 0.00 | 75 | 1015.8 |
| 20260902044611 | 63 | 242 | 4.0 | 11.0 | 0.00 | 0.00 | 0.00 | 75 | 1015.7 |
| 20260902044511 | 64 | 248 | 4.0 | 12.0 | 0.00 | 0.00 | 0.00 | 74 | 1015.7 |
| 20260902044414 | 64 | 256 | 5.0 | 12.0 | 0.00 | 0.00 | 0.00 | 74 | 1015.8 |
| 20260902044308 | 64 | 228 | 5.0 | 12.0 | 0.00 | 0.00 | 0.00 | 74 | 1015.8 |
| 20260902044208 | 64 | 230 | 5.0 | 12.0 | 0.00 | 0.00 | 0.00 | 74 | 1015.8 |
| 20260902044126 | 64 | 264 | 5.0 | 12.0 | 0.00 | 0.00 | 0.00 | 74 | 1015.8 |
| 20260902044109 | 64 | 232 | 6.0 | 12.0 | 0.00 | 0.00 | 0.00 | 74 | 1015.8 |
| 20260902044009 | 64 | 262 | 6.0 | 12.0 | 0.00 | 0.00 | 0.00 | 74 | 1015.8 |
| 20260902043908 | 64 | 204 | 6.0 | 12.0 | 0.00 | 0.00 | 0.00 | 74 | 1015.8 |
| 20260902043808 | 64 | 215 | 6.0 | 12.0 | 0.00 | 0.00 | 0.00 | 74 | 1015.7 |
| 20260902043709 | 64 | 250 | 6.0 | 12.0 | 0.00 | 0.00 | 0.00 | 73 | 1015.7 |
| 20260902043625 | 64 | 248 | 6.0 | 12.0 | 0.00 | 0.00 | 0.00 | 73 | 1015.7 |
| 20260902043610 | 64 | 239 | 5.0 | 12.0 | 0.00 | 0.00 | 0.00 | 73 | 1015.7 |
| 20260902043509 | 64 | 236 | 5.0 | 12.0 | 0.00 | 0.00 | 0.00 | 73 | 1015.7 |
| 20260902043412 | 64 | 230 | 5.0 | 12.0 | 0.00 | 0.00 | 0.00 | 73 | 1015.7 |
| 20260902043308 | 64 | 240 | 5.0 | 12.0 | 0.00 | 0.00 | 0.00 | 73 | 1015.6 |
| 20260902043208 | 64 | 219 | 5.0 | 12.0 | 0.00 | 0.00 | 0.00 | 73 | 1015.6 |
| 20260902043124 | 64 | 236 | 5.0 | 12.0 | 0.00 | 0.00 | 0.00 | 73 | 1015.6 |
| 20260902043110 | 64 | 183 | 5.0 | 12.0 | 0.00 | 0.00 | 0.00 | 73 | 1015.6 |
| 20260902043009 | 64 | 231 | 5.0 | 12.0 | 0.00 | 0.00 | 0.00 | 72 | 1015.6 |
| 20260902042908 | 64 | 237 | 5.0 | 12.0 | 0.00 | 0.00 | 0.00 | 72 | 1015.6 |
| 20260902042811 | 64 | 245 | 5.0 | 12.0 | 0.00 | 0.00 | 0.00 | 72 | 1015.6 |
| 20260902042708 | 64 | 230 | 4.0 | 12.0 | 0.00 | 0.00 | 0.00 | 72 | 1015.6 |
| 20260902042639 | 64 | 211 | 4.0 | 12.0 | 0.00 | 0.00 | 0.00 | 72 | 1015.6 |
| 20260902042604 | 64 | 225 | 5.0 | 12.0 | 0.00 | 0.00 | 0.00 | 72 | 1015.6 |
| 20260902042502 | 64 | 264 | 5.0 | 12.0 | 0.00 | 0.00 | 0.00 | 72 | 1015.6 |
| 20260902042403 | 64 | 219 | 4.0 | 12.0 | 0.00 | 0.00 | 0.00 | 71 | 1015.6 |
| 20260902042308 | 64 | 223 | 4.0 | 12.0 | 0.00 | 0.00 | 0.00 | 71 | 1015.6 |
| 20260902042157 | 64 | 233 | 4.0 | 12.0 | 0.00 | 0.00 | 0.00 | 71 | 1015.6 |
| 20260902042118 | 64 | 253 | 5.0 | 12.0 | 0.00 | 0.00 | 0.00 | 71 | 1015.6 |
| 20260902042057 | 64 | 225 | 5.0 | 12.0 | 0.00 | 0.00 | 0.00 | 71 | 1015.6 |
| 20260902041956 | 64 | 236 | 4.0 | 12.0 | 0.00 | 0.00 | 0.00 | 71 | 1015.6 |
| 20260902041856 | 64 | 260 | 4.0 | 12.0 | 0.00 | 0.00 | 0.00 | 71 | 1015.6 |
| 20260902041756 | 64 | 226 | 5.0 | 12.0 | 0.00 | 0.00 | 0.00 | 71 | 1015.6 |
| 20260902041651 | 64 | 200 | 5.0 | 16.0 | 0.00 | 0.00 | 0.00 | 70 | 1015.5 |
| 20260902041611 | 64 | 242 | 5.0 | 16.0 | 0.00 | 0.00 | 0.00 | 70 | 1015.5 |
| 20260902041550 | 65 | 224 | 5.0 | 16.0 | 0.00 | 0.00 | 0.00 | 70 | 1015.5 |
| 20260902041450 | 65 | 239 | 5.0 | 16.0 | 0.00 | 0.00 | 0.00 | 70 | 1015.5 |
| 20260902041350 | 65 | 256 | 5.0 | 16.0 | 0.00 | 0.00 | 0.00 | 70 | 1015.5 |
| 20260902041250 | 65 | 253 | 5.0 | 16.0 | 0.00 | 0.00 | 0.00 | 70 | 1015.5 |
| 20260902041145 | 65 | 250 | 6.0 | 16.0 | 0.00 | 0.00 | 0.00 | 70 | 1015.5 |
| 20260902041105 | 65 | 228 | 6.0 | 16.0 | 0.00 | 0.00 | 0.00 | 69 | 1015.4 |
| 20260902041045 | 65 | 186 | 6.0 | 16.0 | 0.00 | 0.00 | 0.00 | 69 | 1015.4 |
| 20260902040944 | 65 | 242 | 6.0 | 16.0 | 0.00 | 0.00 | 0.00 | 69 | 1015.4 |
| 20260902040845 | 65 | 192 | 6.0 | 16.0 | 0.00 | 0.00 | 0.00 | 69 | 1015.4 |
| 20260902040744 | 65 | 283 | 6.0 | 16.0 | 0.00 | 0.00 | 0.00 | 69 | 1015.4 |
| 20260902040638 | 65 | 243 | 6.0 | 16.0 | 0.00 | 0.00 | 0.00 | 69 | 1015.4 |
| 20260902040559 | 65 | 229 | 6.0 | 16.0 | 0.00 | 0.00 | 0.00 | 69 | 1015.3 |
| 20260902040542 | 65 | 250 | 6.0 | 16.0 | 0.00 | 0.00 | 0.00 | 69 | 1015.3 |
| 20260902040439 | 65 | 226 | 6.0 | 16.0 | 0.00 | 0.00 | 0.00 | 68 | 1015.4 |
| 20260902040339 | 65 | 240 | 6.0 | 16.0 | 0.00 | 0.00 | 0.00 | 68 | 1015.3 |
| 20260902040238 | 65 | 194 | 6.0 | 16.0 | 0.00 | 0.00 | 0.00 | 68 | 1015.3 |
| 20260902040132 | 65 | 228 | 5.0 | 16.0 | 0.00 | 0.00 | 0.00 | 68 | 1015.3 |
| 20260902040107 | 65 | 236 | 5.0 | 16.0 | 0.00 | 0.00 | 0.00 | 68 | 1015.2 |
| 20260902040033 | 65 | 246 | 5.0 | 16.0 | 0.00 | 0.00 | 0.00 | 68 | 1015.2 |
| 20260902035932 | 65 | 224 | 5.0 | 16.0 | 0.00 | 0.00 | 0.00 | 68 | 1015.3 |
| 20260902035833 | 65 | 240 | 4.0 | 16.0 | 0.00 | 0.00 | 0.00 | 67 | 1015.3 |
| 20260902035732 | 65 | 228 | 4.0 | 13.0 | 0.00 | 0.00 | 0.00 | 67 | 1015.3 |
| 20260902035626 | 65 | 231 | 4.0 | 13.0 | 0.00 | 0.00 | 0.00 | 67 | 1015.3 |
| 20260902035548 | 65 | 217 | 4.0 | 11.0 | 0.00 | 0.00 | 0.00 | 67 | 1015.3 |
| 20260902035526 | 65 | 300 | 4.0 | 11.0 | 0.00 | 0.00 | 0.00 | 67 | 1015.3 |
| 20260902035426 | 65 | 242 | 4.0 | 11.0 | 0.00 | 0.00 | 0.00 | 67 | 1015.2 |
| 20260902035326 | 65 | 210 | 4.0 | 11.0 | 0.00 | 0.00 | 0.00 | 67 | 1015.2 |
| 20260902035227 | 65 | 235 | 4.0 | 12.0 | 0.00 | 0.00 | 0.00 | 66 | 1015.2 |
| 20260902035124 | 65 | 259 | 4.0 | 12.0 | 0.00 | 0.00 | 0.00 | 66 | 1015.2 |
| 20260902035043 | 66 | 239 | 4.0 | 12.0 | 0.00 | 0.00 | 0.00 | 66 | 1015.2 |
| 20260902035021 | 66 | 242 | 4.0 | 12.0 | 0.00 | 0.00 | 0.00 | 66 | 1015.2 |
| 20260902034920 | 66 | 278 | 4.0 | 12.0 | 0.00 | 0.00 | 0.00 | 66 | 1015.1 |
| 20260902034820 | 66 | 304 | 4.0 | 12.0 | 0.00 | 0.00 | 0.00 | 66 | 1015.2 |
| 20260902034721 | 66 | 233 | 5.0 | 12.0 | 0.00 | 0.00 | 0.00 | 66 | 1015.0 |
| 20260902034617 | 66 | 228 | 5.0 | 13.0 | 0.00 | 0.00 | 0.00 | 66 | 1015.1 |
| 20260902034550 | 66 | 304 | 5.0 | 13.0 | 0.00 | 0.00 | 0.00 | 66 | 1015.1 |
| 20260902034516 | 66 | 183 | 5.0 | 13.0 | 0.00 | 0.00 | 0.00 | 66 | 1015.1 |
| 20260902034416 | 66 | 208 | 5.0 | 13.0 | 0.00 | 0.00 | 0.00 | 66 | 1015.1 |
| 20260902034316 | 66 | 215 | 5.0 | 13.0 | 0.00 | 0.00 | 0.00 | 66 | 1015.1 |
| 20260902034214 | 66 | 242 | 6.0 | 13.0 | 0.00 | 0.00 | 0.00 | 65 | 1015.1 |
| 20260902034108 | 66 | 226 | 6.0 | 13.0 | 0.00 | 0.00 | 0.00 | 65 | 1015.1 |
| 20260902034042 | 66 | 250 | 6.0 | 13.0 | 0.00 | 0.00 | 0.00 | 65 | 1015.1 |
| 20260902034008 | 66 | 203 | 6.0 | 13.0 | 0.00 | 0.00 | 0.00 | 65 | 1015.1 |
| 20260902033910 | 66 | 216 | 6.0 | 13.0 | 0.00 | 0.00 | 0.00 | 65 | 1015.0 |
| 20260902033809 | 66 | 233 | 5.0 | 13.0 | 0.00 | 0.00 | 0.00 | 65 | 1015.0 |
| 20260902033714 | 66 | 277 | 6.0 | 13.0 | 0.00 | 0.00 | 0.00 | 65 | 1015.0 |
| 20260902033608 | 66 | 240 | 6.0 | 16.0 | 0.00 | 0.00 | 0.00 | 65 | 1015.0 |
| 20260902033524 | 66 | 217 | 6.0 | 16.0 | 0.00 | 0.00 | 0.00 | 65 | 1015.0 |
| 20260902033507 | 66 | 250 | 6.0 | 16.0 | 0.00 | 0.00 | 0.00 | 65 | 1015.0 |
| 20260902033405 | 66 | 248 | 5.0 | 16.0 | 0.00 | 0.00 | 0.00 | 65 | 1014.9 |
| 20260902033302 | 66 | 281 | 5.0 | 16.0 | 0.00 | 0.00 | 0.00 | 65 | 1014.9 |
| 20260902033241 | 66 | 239 | 5.0 | 16.0 | 0.00 | 0.00 | 0.00 | 64 | 1014.8 |
| 20260902033202 | 66 | 224 | 4.0 | 16.0 | 0.00 | 0.00 | 0.00 | 65 | 1014.9 |
| 20260902033128 | 66 | 211 | 4.0 | 16.0 | 0.00 | 0.00 | 0.00 | 65 | 1014.9 |
| 20260902033000 | 66 | 225 | 5.0 | 16.0 | 0.00 | 0.00 | 0.00 | 64 | 1014.8 |
| 20260902032900 | 66 | 281 | 5.0 | 17.0 | 0.00 | 0.00 | 0.00 | 64 | 1014.9 |
| 20260902032758 | 66 | 280 | 6.0 | 17.0 | 0.00 | 0.00 | 0.00 | 64 | 1014.9 |
| 20260902032656 | 67 | 226 | 5.0 | 17.0 | 0.00 | 0.00 | 0.00 | 64 | 1014.9 |
| 20260902032551 | 67 | 223 | 5.0 | 17.0 | 0.00 | 0.00 | 0.00 | 64 | 1014.8 |
| 20260902032511 | 67 | 225 | 5.0 | 17.0 | 0.00 | 0.00 | 0.00 | 64 | 1014.8 |
| 20260902032454 | 67 | 219 | 5.0 | 17.0 | 0.00 | 0.00 | 0.00 | 64 | 1014.8 |
| 20260902032355 | 67 | 239 | 5.0 | 17.0 | 0.00 | 0.00 | 0.00 | 64 | 1014.7 |
| 20260902032250 | 67 | 250 | 5.0 | 17.0 | 0.00 | 0.00 | 0.00 | 64 | 1014.7 |
| 20260902032223 | 67 | 240 | 4.0 | 17.0 | 0.00 | 0.00 | 0.00 | 64 | 1014.6 |
| 20260902032153 | 67 | 226 | 5.0 | 17.0 | 0.00 | 0.00 | 0.00 | 64 | 1014.7 |
| 20260902032119 | 67 | 228 | 5.0 | 17.0 | 0.00 | 0.00 | 0.00 | 64 | 1014.7 |
| 20260902031945 | 67 | 276 | 4.0 | 17.0 | 0.00 | 0.00 | 0.00 | 64 | 1014.6 |
| 20260902031846 | 67 | 250 | 4.0 | 14.0 | 0.00 | 0.00 | 0.00 | 63 | 1014.7 |
| 20260902031744 | 67 | 183 | 3.0 | 12.0 | 0.00 | 0.00 | 0.00 | 64 | 1014.6 |
| 20260902031721 | 67 | 238 | 3.0 | 11.0 | 0.00 | 0.00 | 0.00 | 63 | 1014.6 |
| 20260902031644 | 67 | 249 | 3.0 | 12.0 | 0.00 | 0.00 | 0.00 | 63 | 1014.6 |
| 20260902031610 | 67 | 257 | 3.0 | 11.0 | 0.00 | 0.00 | 0.00 | 63 | 1014.6 |
| 20260902031438 | 67 | 247 | 3.0 | 11.0 | 0.00 | 0.00 | 0.00 | 63 | 1014.6 |
| 20260902031339 | 67 | 267 | 4.0 | 11.0 | 0.00 | 0.00 | 0.00 | 63 | 1014.6 |
| 20260902031238 | 67 | 241 | 4.0 | 11.0 | 0.00 | 0.00 | 0.00 | 63 | 1014.6 |
| 20260902031140 | 67 | 248 | 4.0 | 11.0 | 0.00 | 0.00 | 0.00 | 63 | 1014.6 |
| 20260902031032 | 67 | 239 | 4.0 | 11.0 | 0.00 | 0.00 | 0.00 | 63 | 1014.6 |
| 20260902030953 | 67 | 286 | 4.0 | 11.0 | 0.00 | 0.00 | 0.00 | 63 | 1014.6 |
| 20260902030932 | 67 | 242 | 4.0 | 11.0 | 0.00 | 0.00 | 0.00 | 63 | 1014.6 |
| 20260902030832 | 67 | 238 | 4.0 | 11.0 | 0.00 | 0.00 | 0.00 | 63 | 1014.6 |
| 20260902030732 | 67 | 200 | 4.0 | 11.0 | 0.00 | 0.00 | 0.00 | 63 | 1014.6 |
| 20260902030705 | 67 | 214 | 5.0 | 11.0 | 0.00 | 0.00 | 0.00 | 62 | 1014.5 |
| 20260902030632 | 67 | 235 | 5.0 | 11.0 | 0.00 | 0.00 | 0.00 | 63 | 1014.5 |
| 20260902030559 | 67 | 233 | 5.0 | 11.0 | 0.00 | 0.00 | 0.00 | 62 | 1014.4 |
| 20260902030427 | 67 | 214 | 5.0 | 11.0 | 0.00 | 0.00 | 0.00 | 62 | 1014.5 |
| 20260902030326 | 67 | 208 | 4.0 | 11.0 | 0.00 | 0.00 | 0.00 | 62 | 1014.4 |
| 20260902030226 | 67 | 221 | 4.0 | 11.0 | 0.00 | 0.00 | 0.00 | 62 | 1014.4 |
| 20260902030126 | 67 | 248 | 4.0 | 11.0 | 0.00 | 0.00 | 0.00 | 62 | 1014.4 |
| 20260902030020 | 67 | 225 | 4.0 | 11.0 | 0.00 | 0.00 | 0.00 | 62 | 1014.4 |
| 20260902025941 | 67 | 229 | 4.0 | 11.0 | 0.00 | 0.00 | 0.00 | 62 | 1014.4 |
| 20260902025921 | 67 | 250 | 4.0 | 11.0 | 0.00 | 0.00 | 0.00 | 62 | 1014.4 |
| 20260902025820 | 67 | 222 | 4.0 | 12.0 | 0.00 | 0.00 | 0.00 | 62 | 1014.4 |
| 20260902025721 | 67 | 233 | 4.0 | 12.0 | 0.00 | 0.00 | 0.00 | 62 | 1014.3 |
| 20260902025620 | 67 | 298 | 4.0 | 12.0 | 0.00 | 0.00 | 0.00 | 62 | 1014.3 |
| 20260902025514 | 67 | 263 | 4.0 | 12.0 | 0.00 | 0.00 | 0.00 | 62 | 1014.3 |
| 20260902025435 | 67 | 263 | 4.0 | 12.0 | 0.00 | 0.00 | 0.00 | 62 | 1014.3 |
| 20260902025415 | 67 | 316 | 4.0 | 12.0 | 0.00 | 0.00 | 0.00 | 62 | 1014.3 |
| 20260902025315 | 67 | 294 | 4.0 | 12.0 | 0.00 | 0.00 | 0.00 | 62 | 1014.4 |
| 20260902025214 | 67 | 229 | 4.0 | 12.0 | 0.00 | 0.00 | 0.00 | 62 | 1014.3 |
| 20260902025114 | 67 | 253 | 5.0 | 13.0 | 0.00 | 0.00 | 0.00 | 62 | 1014.3 |
| 20260902025008 | 67 | 301 | 5.0 | 13.0 | 0.00 | 0.00 | 0.00 | 61 | 1014.3 |
| 20260902024929 | 67 | 259 | 5.0 | 13.0 | 0.00 | 0.00 | 0.00 | 61 | 1014.3 |
| 20260902024909 | 67 | 253 | 5.0 | 13.0 | 0.00 | 0.00 | 0.00 | 61 | 1014.3 |
| 20260902024808 | 67 | 187 | 5.0 | 13.0 | 0.00 | 0.00 | 0.00 | 61 | 1014.3 |
| 20260902024708 | 67 | 239 | 5.0 | 13.0 | 0.00 | 0.00 | 0.00 | 61 | 1014.2 |
| 20260902024609 | 68 | 256 | 5.0 | 13.0 | 0.00 | 0.00 | 0.00 | 61 | 1014.3 |
| 20260902024506 | 68 | 281 | 5.0 | 13.0 | 0.00 | 0.00 | 0.00 | 61 | 1014.2 |
| 20260902024423 | 68 | 316 | 5.0 | 13.0 | 0.00 | 0.00 | 0.00 | 61 | 1014.2 |
| 20260902024406 | 68 | 248 | 5.0 | 13.0 | 0.00 | 0.00 | 0.00 | 61 | 1014.2 |
| 20260902024305 | 68 | 230 | 5.0 | 13.0 | 0.00 | 0.00 | 0.00 | 61 | 1014.2 |
| 20260902024204 | 68 | 221 | 5.0 | 13.0 | 0.00 | 0.00 | 0.00 | 61 | 1014.3 |
| 20260902024103 | 68 | 243 | 5.0 | 13.0 | 0.00 | 0.00 | 0.00 | 61 | 1014.3 |
| 20260902023958 | 68 | 311 | 5.0 | 14.0 | 0.00 | 0.00 | 0.00 | 61 | 1014.2 |
| 20260902023917 | 68 | 246 | 5.0 | 14.0 | 0.00 | 0.00 | 0.00 | 61 | 1014.2 |
| 20260902023903 | 68 | 256 | 5.0 | 14.0 | 0.00 | 0.00 | 0.00 | 60 | 1014.2 |
| 20260902023756 | 68 | 232 | 5.0 | 14.0 | 0.00 | 0.00 | 0.00 | 60 | 1014.2 |
| 20260902023656 | 68 | 222 | 5.0 | 14.0 | 0.00 | 0.00 | 0.00 | 60 | 1014.2 |
| 20260902023557 | 68 | 263 | 4.0 | 14.0 | 0.00 | 0.00 | 0.00 | 60 | 1014.2 |
| 20260902023450 | 68 | 264 | 4.0 | 14.0 | 0.00 | 0.00 | 0.00 | 60 | 1014.2 |
| 20260902023411 | 68 | 219 | 4.0 | 14.0 | 0.00 | 0.00 | 0.00 | 60 | 1014.2 |
| 20260902023350 | 68 | 285 | 4.0 | 14.0 | 0.00 | 0.00 | 0.00 | 60 | 1014.2 |
| 20260902023250 | 68 | 278 | 4.0 | 14.0 | 0.00 | 0.00 | 0.00 | 60 | 1014.1 |
| 20260902023151 | 68 | 258 | 4.0 | 14.0 | 0.00 | 0.00 | 0.00 | 60 | 1014.1 |
| 20260902023140 | 68 | 236 | 4.0 | 14.0 | 0.00 | 0.00 | 0.00 | 59 | 1014.1 |
| 20260902023051 | 68 | 257 | 4.0 | 14.0 | 0.00 | 0.00 | 0.00 | 59 | 1014.1 |
| 20260902023028 | 68 | 281 | 4.0 | 14.0 | 0.00 | 0.00 | 0.00 | 59 | 1014.1 |
| 20260902022845 | 68 | 264 | 4.0 | 14.0 | 0.00 | 0.00 | 0.00 | 59 | 1014.1 |
| 20260902022745 | 68 | 269 | 3.0 | 13.0 | 0.00 | 0.00 | 0.00 | 59 | 1014.1 |
| 20260902022645 | 68 | 253 | 3.0 | 13.0 | 0.00 | 0.00 | 0.00 | 59 | 1014.1 |
| 20260902022622 | 68 | 225 | 3.0 | 13.0 | 0.00 | 0.00 | 0.00 | 58 | 1014.1 |
| 20260902022545 | 68 | 253 | 4.0 | 13.0 | 0.00 | 0.00 | 0.00 | 58 | 1014.0 |
| 20260902022515 | 68 | 282 | 4.0 | 13.0 | 0.00 | 0.00 | 0.00 | 58 | 1014.1 |
| 20260902022342 | 68 | 232 | 3.0 | 13.0 | 0.00 | 0.00 | 0.00 | 58 | 1014.1 |
| 20260902022241 | 69 | 256 | 3.0 | 13.0 | 0.00 | 0.00 | 0.00 | 58 | 1014.1 |
| 20260902022145 | 69 | 260 | 3.0 | 13.0 | 0.00 | 0.00 | 0.00 | 58 | 1014.1 |
| 20260902022041 | 69 | 212 | 3.0 | 15.0 | 0.00 | 0.00 | 0.00 | 58 | 1014.1 |
| 20260902021932 | 69 | 291 | 4.0 | 15.0 | 0.00 | 0.00 | 0.00 | 58 | 1014.0 |
| 20260902021906 | 69 | 283 | 4.0 | 15.0 | 0.00 | 0.00 | 0.00 | 58 | 1014.0 |
| 20260902021832 | 69 | 353 | 4.0 | 15.0 | 0.00 | 0.00 | 0.00 | 58 | 1014.0 |
| 20260902021732 | 69 | 253 | 4.0 | 15.0 | 0.00 | 0.00 | 0.00 | 58 | 1014.0 |
| 20260902021632 | 69 | 146 | 4.0 | 15.0 | 0.00 | 0.00 | 0.00 | 58 | 1014.0 |
| 20260902021532 | 69 | 285 | 4.0 | 15.0 | 0.00 | 0.00 | 0.00 | 57 | 1013.9 |
| 20260902021429 | 69 | 239 | 4.0 | 15.0 | 0.00 | 0.00 | 0.00 | 57 | 1014.0 |
| 20260902021347 | 69 | 287 | 4.0 | 15.0 | 0.00 | 0.00 | 0.00 | 57 | 1013.9 |
| 20260902021327 | 69 | 290 | 4.0 | 15.0 | 0.00 | 0.00 | 0.00 | 57 | 1013.9 |
| 20260902021226 | 69 | 274 | 3.0 | 15.0 | 0.00 | 0.00 | 0.00 | 57 | 1013.9 |
| 20260902021126 | 69 | 264 | 3.0 | 13.0 | 0.00 | 0.00 | 0.00 | 57 | 1014.0 |
| 20260902021025 | 69 | 226 | 3.0 | 10.0 | 0.00 | 0.00 | 0.00 | 57 | 1013.9 |
| 20260902020920 | 69 | 238 | 3.0 | 10.0 | 0.00 | 0.00 | 0.00 | 57 | 1013.9 |
| 20260902020842 | 69 | 212 | 3.0 | 10.0 | 0.00 | 0.00 | 0.00 | 57 | 1013.9 |
| 20260902020821 | 69 | 225 | 3.0 | 10.0 | 0.00 | 0.00 | 0.00 | 57 | 1013.9 |
| 20260902020720 | 69 | 307 | 2.0 | 10.0 | 0.00 | 0.00 | 0.00 | 57 | 1013.9 |
| 20260902020620 | 69 | 219 | 2.0 | 10.0 | 0.00 | 0.00 | 0.00 | 57 | 1013.8 |
| 20260902020520 | 69 | 239 | 3.0 | 10.0 | 0.00 | 0.00 | 0.00 | 57 | 1013.8 |
| 20260902020414 | 69 | 260 | 3.0 | 10.0 | 0.00 | 0.00 | 0.00 | 57 | 1013.9 |
| 20260902020335 | 69 | 226 | 3.0 | 10.0 | 0.00 | 0.00 | 0.00 | 57 | 1013.9 |
| 20260902020314 | 69 | 283 | 3.0 | 10.0 | 0.00 | 0.00 | 0.00 | 57 | 1013.8 |
| 20260902020215 | 69 | 221 | 3.0 | 10.0 | 0.00 | 0.00 | 0.00 | 56 | 1013.8 |
| 20260902020115 | 69 | 234 | 3.0 | 9.0 | 0.00 | 0.00 | 0.00 | 57 | 1013.8 |
| 20260902020014 | 69 | 271 | 3.0 | 9.0 | 0.00 | 0.00 | 0.00 | 56 | 1013.8 |
| 20260902015909 | 69 | 302 | 3.0 | 12.0 | 0.00 | 0.00 | 0.00 | 56 | 1013.9 |
| 20260902015808 | 69 | 270 | 3.0 | 12.0 | 0.00 | 0.00 | 0.00 | 56 | 1013.9 |
| 20260902015708 | 69 | 269 | 3.0 | 12.0 | 0.00 | 0.00 | 0.00 | 56 | 1013.8 |
| 20260902015609 | 69 | 291 | 3.0 | 12.0 | 0.00 | 0.00 | 0.00 | 56 | 1013.8 |
| 20260902015508 | 69 | 286 | 4.0 | 12.0 | 0.00 | 0.00 | 0.00 | 56 | 1013.9 |
| 20260902015404 | 69 | 243 | 4.0 | 12.0 | 0.00 | 0.00 | 0.00 | 56 | 1013.9 |
| 20260902015323 | 69 | 240 | 4.0 | 12.0 | 0.00 | 0.00 | 0.00 | 56 | 1013.9 |
| 20260902015306 | 69 | 193 | 4.0 | 12.0 | 0.00 | 0.00 | 0.00 | 56 | 1013.8 |
| 20260902015205 | 69 | 291 | 4.0 | 12.0 | 0.00 | 0.00 | 0.00 | 56 | 1013.9 |
| 20260902015104 | 70 | 242 | 4.0 | 12.0 | 0.00 | 0.00 | 0.00 | 56 | 1013.9 |
| 20260902015002 | 70 | 304 | 3.0 | 12.0 | 0.00 | 0.00 | 0.00 | 56 | 1013.8 |
| 20260902014856 | 70 | 308 | 3.0 | 11.0 | 0.00 | 0.00 | 0.00 | 56 | 1013.8 |
| 20260902014817 | 70 | 226 | 3.0 | 11.0 | 0.00 | 0.00 | 0.00 | 55 | 1013.8 |
| 20260902014756 | 70 | 301 | 3.0 | 11.0 | 0.00 | 0.00 | 0.00 | 55 | 1013.8 |
| 20260902014656 | 70 | 263 | 4.0 | 11.0 | 0.00 | 0.00 | 0.00 | 55 | 1013.8 |
| 20260902014557 | 70 | 195 | 3.0 | 11.0 | 0.00 | 0.00 | 0.00 | 55 | 1013.8 |
| 20260902014533 | 70 | 250 | 4.0 | 12.0 | 0.00 | 0.00 | 0.00 | 55 | 1013.8 |
| 20260902014456 | 70 | 259 | 3.0 | 8.0 | 0.00 | 0.00 | 0.00 | 55 | 1013.8 |
| 20260902014421 | 70 | 298 | 3.0 | 12.0 | 0.00 | 0.00 | 0.00 | 55 | 1013.8 |
| 20260902014250 | 70 | 242 | 4.0 | 12.0 | 0.00 | 0.00 | 0.00 | 55 | 1013.8 |
| 20260902014150 | 70 | 238 | 4.0 | 12.0 | 0.00 | 0.00 | 0.00 | 55 | 1013.8 |
| 20260902014051 | 70 | 243 | 4.0 | 13.0 | 0.00 | 0.00 | 0.00 | 55 | 1013.7 |
| 20260902013950 | 70 | 193 | 4.0 | 13.0 | 0.00 | 0.00 | 0.00 | 55 | 1013.7 |
| 20260902013846 | 70 | 250 | 4.0 | 13.0 | 0.00 | 0.00 | 0.00 | 55 | 1013.7 |
| 20260902013806 | 70 | 222 | 5.0 | 13.0 | 0.00 | 0.00 | 0.00 | 54 | 1013.7 |
| 20260902013744 | 70 | 246 | 5.0 | 13.0 | 0.00 | 0.00 | 0.00 | 54 | 1013.7 |
| 20260902013644 | 71 | 236 | 5.0 | 13.0 | 0.00 | 0.00 | 0.00 | 54 | 1013.7 |
| 20260902013546 | 71 | 269 | 5.0 | 13.0 | 0.00 | 0.00 | 0.00 | 54 | 1013.8 |
| 20260902013520 | 71 | 218 | 5.0 | 13.0 | 0.00 | 0.00 | 0.00 | 53 | 1013.8 |
| 20260902013444 | 71 | 298 | 5.0 | 13.0 | 0.00 | 0.00 | 0.00 | 54 | 1013.7 |
| 20260902013338 | 71 | 274 | 5.0 | 13.0 | 0.00 | 0.00 | 0.00 | 54 | 1013.7 |
| 20260902013239 | 71 | 238 | 5.0 | 13.0 | 0.00 | 0.00 | 0.00 | 53 | 1013.8 |
| 20260902013138 | 71 | 253 | 5.0 | 13.0 | 0.00 | 0.00 | 0.00 | 53 | 1013.7 |
| 20260902013039 | 71 | 281 | 5.0 | 13.0 | 0.00 | 0.00 | 0.00 | 53 | 1013.7 |
| 20260902012938 | 71 | 253 | 5.0 | 13.0 | 0.00 | 0.00 | 0.00 | 53 | 1013.7 |
| 20260902012834 | 71 | 290 | 5.0 | 13.0 | 0.00 | 0.00 | 0.00 | 53 | 1013.7 |
| 20260902012753 | 71 | 255 | 5.0 | 13.0 | 0.00 | 0.00 | 0.00 | 53 | 1013.7 |
| 20260902012732 | 71 | 259 | 5.0 | 13.0 | 0.00 | 0.00 | 0.00 | 52 | 1013.7 |
| 20260902012632 | 71 | 231 | 5.0 | 13.0 | 0.00 | 0.00 | 0.00 | 52 | 1013.6 |
| 20260902012535 | 71 | 289 | 4.0 | 13.0 | 0.00 | 0.00 | 0.00 | 52 | 1013.6 |
| 20260902012432 | 72 | 271 | 4.0 | 13.0 | 0.00 | 0.00 | 0.00 | 52 | 1013.6 |
| 20260902012326 | 72 | 264 | 4.0 | 12.0 | 0.00 | 0.00 | 0.00 | 52 | 1013.6 |
| 20260902012247 | 72 | 248 | 4.0 | 12.0 | 0.00 | 0.00 | 0.00 | 51 | 1013.6 |
| 20260902012227 | 72 | 246 | 4.0 | 12.0 | 0.00 | 0.00 | 0.00 | 51 | 1013.6 |
| 20260902012126 | 72 | 252 | 4.0 | 12.0 | 0.00 | 0.00 | 0.00 | 51 | 1013.6 |
| 20260902012026 | 72 | 222 | 4.0 | 12.0 | 0.00 | 0.00 | 0.00 | 51 | 1013.6 |
| 20260902011926 | 72 | 238 | 4.0 | 12.0 | 0.00 | 0.00 | 0.00 | 51 | 1013.6 |
| 20260902011821 | 72 | 232 | 4.0 | 12.0 | 0.00 | 0.00 | 0.00 | 51 | 1013.6 |
| 20260902011742 | 72 | 238 | 3.0 | 12.0 | 0.00 | 0.00 | 0.00 | 51 | 1013.6 |
| 20260902011721 | 72 | 232 | 3.0 | 12.0 | 0.00 | 0.00 | 0.00 | 51 | 1013.6 |
| 20260902011620 | 72 | 259 | 3.0 | 12.0 | 0.00 | 0.00 | 0.00 | 51 | 1013.5 |
| 20260902011521 | 72 | 262 | 3.0 | 12.0 | 0.00 | 0.00 | 0.00 | 51 | 1013.6 |
| 20260902011420 | 72 | 290 | 4.0 | 13.0 | 0.00 | 0.00 | 0.00 | 51 | 1013.5 |
| 20260902011316 | 72 | 243 | 5.0 | 13.0 | 0.00 | 0.00 | 0.00 | 51 | 1013.5 |
| 20260902011235 | 72 | 228 | 5.0 | 13.0 | 0.00 | 0.00 | 0.00 | 51 | 1013.5 |
| 20260902011214 | 72 | 256 | 5.0 | 13.0 | 0.00 | 0.00 | 0.00 | 51 | 1013.5 |
| 20260902011115 | 72 | 253 | 5.0 | 13.0 | 0.00 | 0.00 | 0.00 | 51 | 1013.5 |
| 20260902011015 | 72 | 259 | 5.0 | 13.0 | 0.00 | 0.00 | 0.00 | 51 | 1013.5 |
| 20260902010914 | 72 | 253 | 6.0 | 13.0 | 0.00 | 0.00 | 0.00 | 51 | 1013.5 |
| 20260902010810 | 72 | 270 | 6.0 | 13.0 | 0.00 | 0.00 | 0.00 | 51 | 1013.5 |
| 20260902010729 | 72 | 269 | 6.0 | 13.0 | 0.00 | 0.00 | 0.00 | 51 | 1013.5 |
| 20260902010708 | 72 | 218 | 6.0 | 13.0 | 0.00 | 0.00 | 0.00 | 51 | 1013.4 |
| 20260902010609 | 72 | 285 | 6.0 | 14.0 | 0.00 | 0.00 | 0.00 | 51 | 1013.5 |
| 20260902010508 | 72 | 217 | 5.0 | 14.0 | 0.00 | 0.00 | 0.00 | 51 | 1013.4 |
| 20260902010409 | 72 | 228 | 5.0 | 14.0 | 0.00 | 0.00 | 0.00 | 50 | 1013.5 |
| 20260902010304 | 72 | 238 | 4.0 | 14.0 | 0.00 | 0.00 | 0.00 | 50 | 1013.5 |
| 20260902010223 | 73 | 231 | 4.0 | 14.0 | 0.00 | 0.00 | 0.00 | 50 | 1013.5 |
| 20260902010203 | 73 | 232 | 4.0 | 14.0 | 0.00 | 0.00 | 0.00 | 50 | 1013.5 |
| 20260902010004 | 73 | 240 | 4.0 | 14.0 | 0.00 | 0.00 | 0.00 | 50 | 1013.5 |
| 20260902005902 | 73 | 242 | 3.0 | 14.0 | 0.00 | 0.00 | 0.00 | 50 | 1013.5 |
| 20260902005758 | 73 | 243 | 2.0 | 14.0 | 0.00 | 0.00 | 0.00 | 50 | 1013.5 |
| 20260902005717 | 73 | 250 | 2.0 | 14.0 | 0.00 | 0.00 | 0.00 | 50 | 1013.5 |
| 20260902005658 | 73 | 281 | 2.0 | 14.0 | 0.00 | 0.00 | 0.00 | 50 | 1013.5 |
| 20260902005600 | 73 | 283 | 2.0 | 8.0 | 0.00 | 0.00 | 0.00 | 50 | 1013.5 |
| 20260902005458 | 73 | 233 | 2.0 | 8.0 | 0.00 | 0.00 | 0.00 | 50 | 1013.5 |
| 20260902005430 | 73 | 221 | 2.0 | 8.0 | 0.00 | 0.00 | 0.00 | 50 | 1013.5 |
| 20260902005359 | 73 | 233 | 2.0 | 8.0 | 0.00 | 0.00 | 0.00 | 50 | 1013.5 |
| 20260902005322 | 73 | 240 | 2.0 | 8.0 | 0.00 | 0.00 | 0.00 | 50 | 1013.5 |
| 20260902005152 | 73 | 212 | 2.0 | 8.0 | 0.00 | 0.00 | 0.00 | 50 | 1013.5 |
| 20260902005053 | 73 | 271 | 2.0 | 8.0 | 0.00 | 0.00 | 0.00 | 50 | 1013.4 |
| 20260902004952 | 73 | 250 | 2.0 | 10.0 | 0.00 | 0.00 | 0.00 | 51 | 1013.4 |
| 20260902004933 | 73 | 243 | 3.0 | 10.0 | 0.00 | 0.00 | 0.00 | 50 | 1013.4 |
| 20260902004850 | 73 | 214 | 2.0 | 10.0 | 0.00 | 0.00 | 0.00 | 51 | 1013.4 |
| 20260902004815 | 73 | 243 | 3.0 | 10.0 | 0.00 | 0.00 | 0.00 | 51 | 1013.4 |
| 20260902004644 | 73 | 243 | 3.0 | 10.0 | 0.00 | 0.00 | 0.00 | 50 | 1013.4 |
| 20260902004545 | 73 | 235 | 4.0 | 13.0 | 0.00 | 0.00 | 0.00 | 50 | 1013.5 |
| 20260902004444 | 73 | 230 | 4.0 | 13.0 | 0.00 | 0.00 | 0.00 | 50 | 1013.5 |
| 20260902004348 | 73 | 253 | 5.0 | 13.0 | 0.00 | 0.00 | 0.00 | 50 | 1013.5 |
| 20260902004238 | 73 | 252 | 4.0 | 13.0 | 0.00 | 0.00 | 0.00 | 50 | 1013.5 |
| 20260902004159 | 73 | 243 | 5.0 | 13.0 | 0.00 | 0.00 | 0.00 | 50 | 1013.4 |
| 20260902004138 | 73 | 236 | 5.0 | 13.0 | 0.00 | 0.00 | 0.00 | 50 | 1013.4 |
| 20260902004040 | 73 | 245 | 4.0 | 13.0 | 0.00 | 0.00 | 0.00 | 49 | 1013.5 |
| 20260902003939 | 73 | 255 | 4.0 | 13.0 | 0.00 | 0.00 | 0.00 | 48 | 1013.5 |
| 20260902003839 | 74 | 239 | 4.0 | 13.0 | 0.00 | 0.00 | 0.00 | 48 | 1013.4 |
| 20260902003734 | 74 | 221 | 4.0 | 16.0 | 0.00 | 0.00 | 0.00 | 48 | 1013.4 |
| 20260902003653 | 74 | 210 | 4.0 | 16.0 | 0.00 | 0.00 | 0.00 | 48 | 1013.5 |
| 20260902003633 | 74 | 243 | 4.0 | 16.0 | 0.00 | 0.00 | 0.00 | 48 | 1013.5 |
| 20260902003538 | 74 | 218 | 4.0 | 16.0 | 0.00 | 0.00 | 0.00 | 48 | 1013.5 |
| 20260902003432 | 74 | 219 | 4.0 | 16.0 | 0.00 | 0.00 | 0.00 | 48 | 1013.4 |
| 20260902003332 | 74 | 183 | 4.0 | 16.0 | 0.00 | 0.00 | 0.00 | 49 | 1013.4 |
| 20260902003226 | 74 | 231 | 4.0 | 16.0 | 0.00 | 0.00 | 0.00 | 48 | 1013.4 |
| 20260902003148 | 74 | 207 | 4.0 | 16.0 | 0.00 | 0.00 | 0.00 | 48 | 1013.5 |
| 20260902003128 | 74 | 253 | 4.0 | 16.0 | 0.00 | 0.00 | 0.00 | 48 | 1013.5 |
| 20260902003026 | 74 | 236 | 4.0 | 16.0 | 0.00 | 0.00 | 0.00 | 48 | 1013.5 |
| 20260902002926 | 74 | 124 | 4.0 | 16.0 | 0.00 | 0.00 | 0.00 | 48 | 1013.5 |
| 20260902002826 | 74 | 231 | 4.0 | 16.0 | 0.00 | 0.00 | 0.00 | 48 | 1013.6 |
| 20260902002720 | 74 | 235 | 3.0 | 12.0 | 0.00 | 0.00 | 0.00 | 48 | 1013.6 |
| 20260902002641 | 74 | 212 | 3.0 | 12.0 | 0.00 | 0.00 | 0.00 | 48 | 1013.5 |
| 20260902002620 | 74 | 236 | 3.0 | 12.0 | 0.00 | 0.00 | 0.00 | 48 | 1013.5 |
| 20260902002520 | 74 | 253 | 4.0 | 12.0 | 0.00 | 0.00 | 0.00 | 48 | 1013.5 |
| 20260902002420 | 74 | 210 | 3.0 | 12.0 | 0.00 | 0.00 | 0.00 | 48 | 1013.5 |
| 20260902002357 | 74 | 246 | 4.0 | 12.0 | 0.00 | 0.00 | 0.00 | 47 | 1013.5 |
| 20260902002320 | 74 | 139 | 3.0 | 12.0 | 0.00 | 0.00 | 0.00 | 48 | 1013.5 |
| 20260902002246 | 74 | 246 | 4.0 | 12.0 | 0.00 | 0.00 | 0.00 | 48 | 1013.5 |
| 20260902002114 | 74 | 245 | 4.0 | 12.0 | 0.00 | 0.00 | 0.00 | 47 | 1013.4 |
| 20260902002014 | 74 | 271 | 4.0 | 12.0 | 0.00 | 0.00 | 0.00 | 48 | 1013.5 |
| 20260902001914 | 74 | 243 | 5.0 | 15.0 | 0.00 | 0.00 | 0.00 | 48 | 1013.4 |
| 20260902001814 | 74 | 263 | 5.0 | 15.0 | 0.00 | 0.00 | 0.00 | 48 | 1013.5 |
| 20260902001708 | 74 | 257 | 4.0 | 15.0 | 0.00 | 0.00 | 0.00 | 47 | 1013.5 |
| 20260902001629 | 74 | 231 | 4.0 | 15.0 | 0.00 | 0.00 | 0.00 | 47 | 1013.5 |
| 20260902001608 | 74 | 236 | 4.0 | 15.0 | 0.00 | 0.00 | 0.00 | 47 | 1013.4 |
| 20260902001508 | 74 | 246 | 4.0 | 15.0 | 0.00 | 0.00 | 0.00 | 48 | 1013.4 |
| 20260902001408 | 74 | 253 | 3.0 | 15.0 | 0.00 | 0.00 | 0.00 | 48 | 1013.4 |
| 20260902001343 | 74 | 270 | 3.0 | 15.0 | 0.00 | 0.00 | 0.00 | 47 | 1013.4 |
| 20260902001309 | 74 | 238 | 3.0 | 15.0 | 0.00 | 0.00 | 0.00 | 48 | 1013.4 |
| 20260902001233 | 74 | 283 | 3.0 | 15.0 | 0.00 | 0.00 | 0.00 | 47 | 1013.4 |
| 20260902001103 | 74 | 193 | 3.0 | 15.0 | 0.00 | 0.00 | 0.00 | 47 | 1013.5 |
| 20260902001002 | 75 | 256 | 3.0 | 13.0 | 0.00 | 0.00 | 0.00 | 47 | 1013.4 |
| 20260902000903 | 75 | 208 | 3.0 | 10.0 | 0.00 | 0.00 | 0.00 | 47 | 1013.4 |
| 20260902000802 | 75 | 232 | 3.0 | 10.0 | 0.00 | 0.00 | 0.00 | 48 | 1013.4 |
| 20260902000702 | 75 | 230 | 3.0 | 10.0 | 0.00 | 0.00 | 0.00 | 48 | 1013.5 |
| 20260902000617 | 75 | 231 | 3.0 | 10.0 | 0.00 | 0.00 | 0.00 | 48 | 1013.5 |
| 20260902000601 | 75 | 221 | 3.0 | 10.0 | 0.00 | 0.00 | 0.00 | 48 | 1013.5 |
| 20260902000500 | 75 | 235 | 4.0 | 10.0 | 0.00 | 0.00 | 0.00 | 48 | 1013.5 |
| 20260902000359 | 75 | 260 | 4.0 | 16.0 | 0.00 | 0.00 | 0.00 | 47 | 1013.5 |
| 20260902000257 | 75 | 230 | 4.0 | 16.0 | 0.00 | 0.00 | 0.00 | 47 | 1013.4 |
| 20260902000150 | 75 | 243 | 4.0 | 16.0 | 0.00 | 0.00 | 0.00 | 47 | 1013.5 |
| 20260902000112 | 75 | 225 | 4.0 | 16.0 | 0.00 | 0.00 | 0.00 | 47 | 1013.5 |
| 20260902000051 | 75 | 236 | 3.0 | 16.0 | 0.00 | 0.00 | 0.00 | 47 | 1013.5 |
| 20260901235950 | 75 | 198 | 3.0 | 16.0 | 0.00 | 0.00 | 0.00 | 47 | 1013.5 |
| 20260901235851 | 75 | 271 | 3.0 | 16.0 | 0.00 | 0.00 | 0.00 | 47 | 1013.5 |
| 20260901235750 | 75 | 192 | 3.0 | 16.0 | 0.00 | 0.00 | 0.00 | 47 | 1013.5 |
| 20260901235646 | 75 | 325 | 3.0 | 16.0 | 0.00 | 0.00 | 0.00 | 46 | 1013.5 |
| 20260901235605 | 75 | 226 | 3.0 | 16.0 | 0.00 | 0.00 | 0.00 | 46 | 1013.5 |
| 20260901235544 | 75 | 245 | 3.0 | 16.0 | 0.00 | 0.00 | 0.00 | 46 | 1013.5 |
| 20260901235444 | 75 | 246 | 3.0 | 16.0 | 0.00 | 0.00 | 0.00 | 47 | 1013.5 |
| 20260901235344 | 75 | 240 | 3.0 | 10.0 | 0.00 | 0.00 | 0.00 | 46 | 1013.5 |
| 20260901235244 | 75 | 270 | 3.0 | 12.0 | 0.00 | 0.00 | 0.00 | 46 | 1013.5 |
| 20260901235140 | 75 | 246 | 3.0 | 12.0 | 0.00 | 0.00 | 0.00 | 47 | 1013.5 |
| 20260901235059 | 75 | 246 | 3.0 | 12.0 | 0.00 | 0.00 | 0.00 | 47 | 1013.5 |
| 20260901235042 | 75 | 245 | 3.0 | 12.0 | 0.00 | 0.00 | 0.00 | 47 | 1013.5 |
| 20260901234940 | 75 | 240 | 3.0 | 12.0 | 0.00 | 0.00 | 0.00 | 47 | 1013.6 |
| 20260901234840 | 75 | 231 | 3.0 | 12.0 | 0.00 | 0.00 | 0.00 | 47 | 1013.5 |
| 20260901234738 | 75 | 226 | 4.0 | 12.0 | 0.00 | 0.00 | 0.00 | 47 | 1013.5 |
| 20260901234632 | 75 | 233 | 4.0 | 12.0 | 0.00 | 0.00 | 0.00 | 45 | 1013.6 |
| 20260901234554 | 75 | 240 | 4.0 | 13.0 | 0.00 | 0.00 | 0.00 | 45 | 1013.6 |
| 20260901234538 | 75 | 235 | 4.0 | 13.0 | 0.00 | 0.00 | 0.00 | 46 | 1013.6 |
| 20260901234432 | 76 | 267 | 4.0 | 13.0 | 0.00 | 0.00 | 0.00 | 45 | 1013.6 |
| 20260901234332 | 76 | 225 | 4.0 | 13.0 | 0.00 | 0.00 | 0.00 | 45 | 1013.5 |
| 20260901234231 | 76 | 233 | 3.0 | 13.0 | 0.00 | 0.00 | 0.00 | 45 | 1013.5 |
| 20260901234126 | 76 | 207 | 4.0 | 13.0 | 0.00 | 0.00 | 0.00 | 46 | 1013.5 |
| 20260901234048 | 76 | 250 | 4.0 | 13.0 | 0.00 | 0.00 | 0.00 | 46 | 1013.5 |
| 20260901234026 | 76 | 224 | 4.0 | 13.0 | 0.00 | 0.00 | 0.00 | 46 | 1013.5 |
| 20260901233927 | 76 | 248 | 5.0 | 13.0 | 0.00 | 0.00 | 0.00 | 46 | 1013.5 |
| 20260901233827 | 76 | 229 | 5.0 | 16.0 | 0.00 | 0.00 | 0.00 | 45 | 1013.5 |
| 20260901233726 | 76 | 259 | 5.0 | 16.0 | 0.00 | 0.00 | 0.00 | 45 | 1013.5 |
| 20260901233623 | 76 | 149 | 5.0 | 16.0 | 0.00 | 0.00 | 0.00 | 46 | 1013.5 |
| 20260901233542 | 76 | 159 | 5.0 | 16.0 | 0.00 | 0.00 | 0.00 | 46 | 1013.5 |
| 20260901233520 | 76 | 231 | 5.0 | 16.0 | 0.00 | 0.00 | 0.00 | 46 | 1013.5 |
| 20260901233421 | 76 | 273 | 5.0 | 16.0 | 0.00 | 0.00 | 0.00 | 46 | 1013.6 |
| 20260901233320 | 76 | 273 | 5.0 | 16.0 | 0.00 | 0.00 | 0.00 | 45 | 1013.6 |
| 20260901233259 | 76 | 248 | 4.0 | 16.0 | 0.00 | 0.00 | 0.00 | 45 | 1013.6 |
| 20260901233220 | 76 | 228 | 5.0 | 16.0 | 0.00 | 0.00 | 0.00 | 45 | 1013.6 |
| 20260901233154 | 76 | 225 | 4.0 | 16.0 | 0.00 | 0.00 | 0.00 | 45 | 1013.6 |
| 20260901233016 | 76 | 228 | 4.0 | 16.0 | 0.00 | 0.00 | 0.00 | 45 | 1013.6 |
| 20260901232914 | 76 | 226 | 4.0 | 16.0 | 0.00 | 0.00 | 0.00 | 45 | 1013.6 |
| 20260901232814 | 76 | 300 | 3.0 | 12.0 | 0.00 | 0.00 | 0.00 | 44 | 1013.6 |
| 20260901232714 | 77 | 214 | 2.0 | 11.0 | 0.00 | 0.00 | 0.00 | 44 | 1013.6 |
| 20260901232609 | 77 | 148 | 2.0 | 11.0 | 0.00 | 0.00 | 0.00 | 44 | 1013.7 |
| 20260901232540 | 77 | 249 | 2.0 | 11.0 | 0.00 | 0.00 | 0.00 | 44 | 1013.7 |
| 20260901232508 | 77 | 182 | 2.0 | 11.0 | 0.00 | 0.00 | 0.00 | 44 | 1013.6 |
| 20260901232408 | 77 | 217 | 2.0 | 11.0 | 0.00 | 0.00 | 0.00 | 44 | 1013.7 |
| 20260901232308 | 77 | 322 | 2.0 | 7.0 | 0.00 | 0.00 | 0.00 | 45 | 1013.6 |
| 20260901232208 | 77 | 212 | 2.0 | 7.0 | 0.00 | 0.00 | 0.00 | 45 | 1013.7 |
| 20260901232102 | 76 | 226 | 2.0 | 10.0 | 0.00 | 0.00 | 0.00 | 45 | 1013.6 |
| 20260901232040 | 76 | 204 | 2.0 | 10.0 | 0.00 | 0.00 | 0.00 | 45 | 1013.6 |
| 20260901232003 | 76 | 240 | 3.0 | 10.0 | 0.00 | 0.00 | 0.00 | 45 | 1013.7 |
| 20260901231902 | 76 | 212 | 3.0 | 10.0 | 0.00 | 0.00 | 0.00 | 45 | 1013.7 |
| 20260901231803 | 76 | 270 | 3.0 | 10.0 | 0.00 | 0.00 | 0.00 | 45 | 1013.7 |
| 20260901231702 | 76 | 188 | 3.0 | 10.0 | 0.00 | 0.00 | 0.00 | 45 | 1013.7 |
| 20260901231557 | 76 | 248 | 3.0 | 10.0 | 0.00 | 0.00 | 0.00 | 45 | 1013.7 |
| 20260901231541 | 76 | 250 | 3.0 | 10.0 | 0.00 | 0.00 | 0.00 | 45 | 1013.7 |
| 20260901231456 | 76 | 250 | 3.0 | 10.0 | 0.00 | 0.00 | 0.00 | 45 | 1013.7 |
| 20260901231358 | 76 | 217 | 3.0 | 10.0 | 0.00 | 0.00 | 0.00 | 45 | 1013.7 |
| 20260901231256 | 76 | 256 | 4.0 | 11.0 | 0.00 | 0.00 | 0.00 | 45 | 1013.7 |
| 20260901231156 | 76 | 224 | 4.0 | 11.0 | 0.00 | 0.00 | 0.00 | 45 | 1013.8 |
| 20260901231054 | 76 | 229 | 4.0 | 11.0 | 0.00 | 0.00 | 0.00 | 44 | 1013.8 |
| 20260901231039 | 76 | 259 | 4.0 | 11.0 | 0.00 | 0.00 | 0.00 | 45 | 1013.8 |
| 20260901230955 | 76 | 252 | 4.0 | 11.0 | 0.00 | 0.00 | 0.00 | 45 | 1013.8 |
| 20260901230854 | 76 | 280 | 4.0 | 11.0 | 0.00 | 0.00 | 0.00 | 45 | 1013.7 |
| 20260901230752 | 76 | 280 | 4.0 | 11.0 | 0.00 | 0.00 | 0.00 | 45 | 1013.8 |
| 20260901230652 | 76 | 280 | 4.0 | 11.0 | 0.00 | 0.00 | 0.00 | 44 | 1013.8 |
| 20260901230603 | 76 | 236 | 3.0 | 11.0 | 0.00 | 0.00 | 0.00 | 45 | 1013.8 |
| 20260901230553 | 76 | 291 | 3.0 | 11.0 | 0.00 | 0.00 | 0.00 | 44 | 1013.8 |
| 20260901230452 | 76 | 198 | 4.0 | 11.0 | 0.00 | 0.00 | 0.00 | 44 | 1013.8 |
| 20260901230352 | 76 | 236 | 3.0 | 11.0 | 0.00 | 0.00 | 0.00 | 45 | 1013.9 |
| 20260901230250 | 76 | 236 | 3.0 | 9.0 | 0.00 | 0.00 | 0.00 | 44 | 1013.9 |
| 20260901230151 | 76 | 207 | 3.0 | 9.0 | 0.00 | 0.00 | 0.00 | 44 | 1013.9 |
| 20260901230050 | 76 | 177 | 4.0 | 12.0 | 0.00 | 0.00 | 0.00 | 44 | 1013.9 |
| 20260901225950 | 76 | 229 | 4.0 | 12.0 | 0.00 | 0.00 | 0.00 | 44 | 1013.8 |
| 20260901225850 | 76 | 129 | 5.0 | 13.0 | 0.00 | 0.00 | 0.00 | 44 | 1013.9 |
| 20260901225751 | 76 | 160 | 5.0 | 13.0 | 0.00 | 0.00 | 0.00 | 45 | 1013.9 |
| 20260901225650 | 76 | 312 | 5.0 | 13.0 | 0.00 | 0.00 | 0.00 | 45 | 1013.9 |
| 20260901225550 | 76 | 30 | 5.0 | 13.0 | 0.00 | 0.00 | 0.00 | 45 | 1013.9 |
| 20260901225535 | 76 | 250 | 5.0 | 13.0 | 0.00 | 0.00 | 0.00 | 45 | 1013.9 |
| 20260901225448 | 76 | 233 | 5.0 | 13.0 | 0.00 | 0.00 | 0.00 | 44 | 1013.9 |
| 20260901225348 | 76 | 143 | 5.0 | 13.0 | 0.00 | 0.00 | 0.00 | 45 | 1013.9 |
| 20260901225248 | 76 | 228 | 5.0 | 13.0 | 0.00 | 0.00 | 0.00 | 44 | 1013.9 |
| 20260901225148 | 76 | 273 | 5.0 | 13.0 | 0.00 | 0.00 | 0.00 | 43 | 1013.9 |
| 20260901225049 | 76 | 263 | 5.0 | 13.0 | 0.00 | 0.00 | 0.00 | 44 | 1013.9 |
| 20260901225036 | 76 | 226 | 5.0 | 13.0 | 0.00 | 0.00 | 0.00 | 44 | 1013.9 |
| 20260901224948 | 76 | 231 | 4.0 | 13.0 | 0.00 | 0.00 | 0.00 | 44 | 1013.9 |
| 20260901224842 | 76 | 243 | 4.0 | 13.0 | 0.00 | 0.00 | 0.00 | 44 | 1013.9 |
| 20260901224743 | 76 | 164 | 4.0 | 11.0 | 0.00 | 0.00 | 0.00 | 44 | 1013.8 |
| 20260901224643 | 76 | 112 | 4.0 | 11.0 | 0.00 | 0.00 | 0.00 | 43 | 1013.8 |
| 20260901224547 | 76 | 242 | 4.0 | 11.0 | 0.00 | 0.00 | 0.00 | 43 | 1013.9 |
| 20260901224537 | 76 | 229 | 4.0 | 11.0 | 0.00 | 0.00 | 0.00 | 43 | 1013.9 |
| 20260901224442 | 76 | 232 | 4.0 | 11.0 | 0.00 | 0.00 | 0.00 | 44 | 1013.8 |
| 20260901224341 | 76 | 161 | 3.0 | 10.0 | 0.00 | 0.00 | 0.00 | 44 | 1013.9 |
| 20260901224240 | 76 | 225 | 3.0 | 10.0 | 0.00 | 0.00 | 0.00 | 44 | 1013.9 |
| 20260901224138 | 76 | 245 | 3.0 | 10.0 | 0.00 | 0.00 | 0.00 | 44 | 1013.9 |
| 20260901224041 | 76 | 242 | 3.0 | 10.0 | 0.00 | 0.00 | 0.00 | 43 | 1014.0 |
| 20260901223936 | 76 | 266 | 3.0 | 11.0 | 0.00 | 0.00 | 0.00 | 44 | 1014.0 |
| 20260901223830 | 76 | 250 | 3.0 | 11.0 | 0.00 | 0.00 | 0.00 | 44 | 1013.9 |
| 20260901223731 | 76 | 260 | 3.0 | 11.0 | 0.00 | 0.00 | 0.00 | 44 | 1014.0 |
| 20260901223631 | 76 | 259 | 3.0 | 11.0 | 0.00 | 0.00 | 0.00 | 44 | 1014.0 |
| 20260901223540 | 76 | 291 | 3.0 | 11.0 | 0.00 | 0.00 | 0.00 | 45 | 1014.0 |
| 20260901223534 | 76 | 228 | 3.0 | 11.0 | 0.00 | 0.00 | 0.00 | 45 | 1014.0 |
| 20260901223430 | 76 | 300 | 3.0 | 11.0 | 0.00 | 0.00 | 0.00 | 45 | 1014.0 |
| 20260901223325 | 76 | 304 | 4.0 | 11.0 | 0.00 | 0.00 | 0.00 | 45 | 1014.0 |
| 20260901223225 | 76 | 225 | 4.0 | 11.0 | 0.00 | 0.00 | 0.00 | 44 | 1014.0 |
| 20260901223124 | 76 | 228 | 4.0 | 11.0 | 0.00 | 0.00 | 0.00 | 44 | 1014.0 |
| 20260901223034 | 76 | 225 | 5.0 | 14.0 | 0.00 | 0.00 | 0.00 | 45 | 1014.0 |
| 20260901223025 | 76 | 239 | 5.0 | 14.0 | 0.00 | 0.00 | 0.00 | 45 | 1014.0 |
| 20260901222924 | 76 | 242 | 6.0 | 14.0 | 0.00 | 0.00 | 0.00 | 44 | 1014.1 |
| 20260901222819 | 76 | 236 | 6.0 | 14.0 | 0.00 | 0.00 | 0.00 | 44 | 1014.0 |
| 20260901222718 | 76 | 240 | 6.0 | 14.0 | 0.00 | 0.00 | 0.00 | 44 | 1014.0 |
| 20260901222618 | 76 | 229 | 5.0 | 14.0 | 0.00 | 0.00 | 0.00 | 44 | 1014.1 |
| 20260901222535 | 76 | 138 | 5.0 | 14.0 | 0.00 | 0.00 | 0.00 | 44 | 1014.1 |
| 20260901222518 | 76 | 207 | 5.0 | 14.0 | 0.00 | 0.00 | 0.00 | 45 | 1014.1 |
| 20260901222418 | 76 | 198 | 5.0 | 14.0 | 0.00 | 0.00 | 0.00 | 44 | 1014.1 |
| 20260901222312 | 76 | 250 | 4.0 | 14.0 | 0.00 | 0.00 | 0.00 | 44 | 1014.1 |
| 20260901222212 | 76 | 279 | 4.0 | 14.0 | 0.00 | 0.00 | 0.00 | 44 | 1014.1 |
| 20260901222112 | 76 | 253 | 3.0 | 14.0 | 0.00 | 0.00 | 0.00 | 44 | 1014.1 |
| 20260901222033 | 76 | 208 | 3.0 | 11.0 | 0.00 | 0.00 | 0.00 | 44 | 1014.1 |
| 20260901222012 | 76 | 128 | 3.0 | 11.0 | 0.00 | 0.00 | 0.00 | 44 | 1014.1 |
| 20260901221912 | 76 | 250 | 2.0 | 11.0 | 0.00 | 0.00 | 0.00 | 45 | 1014.1 |
| 20260901221811 | 76 | 314 | 2.0 | 9.0 | 0.00 | 0.00 | 0.00 | 45 | 1014.1 |
| 20260901221710 | 76 | 328 | 2.0 | 9.0 | 0.00 | 0.00 | 0.00 | 45 | 1014.2 |
| 20260901221611 | 76 | 358 | 2.0 | 9.0 | 0.00 | 0.00 | 0.00 | 45 | 1014.2 |
| 20260901221535 | 76 | 326 | 2.0 | 9.0 | 0.00 | 0.00 | 0.00 | 45 | 1014.2 |
| 20260901221509 | 76 | 236 | 2.0 | 9.0 | 0.00 | 0.00 | 0.00 | 45 | 1014.3 |
| 20260901221406 | 76 | 286 | 2.0 | 9.0 | 0.00 | 0.00 | 0.00 | 45 | 1014.3 |
| 20260901221304 | 76 | 267 | 2.0 | 13.0 | 0.00 | 0.00 | 0.00 | 44 | 1014.3 |
| 20260901221300 | 76 | 242 | 2.0 | 11.0 | 0.00 | 0.00 | 0.00 | 45 | 1014.3 |
| 20260901221200 | 76 | 239 | 2.0 | 13.0 | 0.00 | 0.00 | 0.00 | 44 | 1014.3 |
| 20260901221143 | 76 | 165 | 2.0 | 13.0 | 0.00 | 0.00 | 0.00 | 44 | 1014.3 |
| 20260901221000 | 76 | 252 | 2.0 | 13.0 | 0.00 | 0.00 | 0.00 | 45 | 1014.4 |
| 20260901220900 | 76 | 151 | 2.0 | 13.0 | 0.00 | 0.00 | 0.00 | 44 | 1014.3 |
| 20260901220754 | 76 | 211 | 3.0 | 13.0 | 0.00 | 0.00 | 0.00 | 45 | 1014.4 |
| 20260901220654 | 76 | 307 | 3.0 | 13.0 | 0.00 | 0.00 | 0.00 | 45 | 1014.3 |
| 20260901220554 | 76 | 308 | 3.0 | 13.0 | 0.00 | 0.00 | 0.00 | 45 | 1014.4 |
| 20260901220534 | 76 | 307 | 3.0 | 13.0 | 0.00 | 0.00 | 0.00 | 45 | 1014.4 |
| 20260901220454 | 76 | 287 | 3.0 | 13.0 | 0.00 | 0.00 | 0.00 | 44 | 1014.5 |
| 20260901220356 | 76 | 259 | 3.0 | 13.0 | 0.00 | 0.00 | 0.00 | 44 | 1014.4 |
| 20260901220252 | 76 | 231 | 3.0 | 9.0 | 0.00 | 0.00 | 0.00 | 45 | 1014.4 |
| 20260901220243 | 76 | 203 | 3.0 | 9.0 | 0.00 | 0.00 | 0.00 | 46 | 1014.3 |
| 20260901220150 | 76 | 233 | 3.0 | 9.0 | 0.00 | 0.00 | 0.00 | 46 | 1014.3 |
| 20260901220136 | 76 | 270 | 3.0 | 9.0 | 0.00 | 0.00 | 0.00 | 46 | 1014.3 |
| 20260901215948 | 76 | 144 | 3.0 | 9.0 | 0.00 | 0.00 | 0.00 | 46 | 1014.4 |
| 20260901215846 | 76 | 238 | 3.0 | 10.0 | 0.00 | 0.00 | 0.00 | 46 | 1014.3 |
| 20260901215748 | 75 | 236 | 3.0 | 10.0 | 0.00 | 0.00 | 0.00 | 47 | 1014.3 |
| 20260901215742 | 76 | 197 | 3.0 | 10.0 | 0.00 | 0.00 | 0.00 | 47 | 1014.3 |
| 20260901215640 | 75 | 219 | 3.0 | 10.0 | 0.00 | 0.00 | 0.00 | 47 | 1014.3 |
| 20260901215630 | 75 | 233 | 3.0 | 10.0 | 0.00 | 0.00 | 0.00 | 47 | 1014.3 |
| 20260901215441 | 75 | 215 | 4.0 | 11.0 | 0.00 | 0.00 | 0.00 | 47 | 1014.3 |
| 20260901215340 | 75 | 230 | 4.0 | 14.0 | 0.00 | 0.00 | 0.00 | 47 | 1014.3 |
| 20260901215237 | 75 | 228 | 5.0 | 14.0 | 0.00 | 0.00 | 0.00 | 47 | 1014.4 |
| 20260901215136 | 75 | 153 | 5.0 | 14.0 | 0.00 | 0.00 | 0.00 | 46 | 1014.5 |
| 20260901215037 | 74 | 219 | 6.0 | 14.0 | 0.00 | 0.00 | 0.00 | 47 | 1014.4 |
| 20260901215013 | 74 | 231 | 6.0 | 14.0 | 0.00 | 0.00 | 0.00 | 46 | 1014.4 |
| 20260901214936 | 75 | 162 | 6.0 | 14.0 | 0.00 | 0.00 | 0.00 | 46 | 1014.4 |
| 20260901214833 | 75 | 259 | 5.0 | 14.0 | 0.00 | 0.00 | 0.00 | 45 | 1014.4 |
| 20260901214730 | 75 | 203 | 5.0 | 14.0 | 0.00 | 0.00 | 0.00 | 46 | 1014.5 |
| 20260901214629 | 75 | 242 | 4.0 | 14.0 | 0.00 | 0.00 | 0.00 | 46 | 1014.5 |
| 20260901214531 | 75 | 253 | 4.0 | 14.0 | 0.00 | 0.00 | 0.00 | 45 | 1014.5 |
| 20260901214508 | 76 | 238 | 3.0 | 14.0 | 0.00 | 0.00 | 0.00 | 45 | 1014.5 |
| 20260901214428 | 76 | 228 | 3.0 | 12.0 | 0.00 | 0.00 | 0.00 | 46 | 1014.5 |
| 20260901214329 | 76 | 193 | 3.0 | 12.0 | 0.00 | 0.00 | 0.00 | 46 | 1014.5 |
| 20260901214226 | 76 | 211 | 1.0 | 6.0 | 0.00 | 0.00 | 0.00 | 47 | 1014.4 |
| 20260901214222 | 76 | 225 | 2.0 | 12.0 | 0.00 | 0.00 | 0.00 | 46 | 1014.5 |
| 20260901214122 | 76 | 184 | 2.0 | 10.0 | 0.00 | 0.00 | 0.00 | 45 | 1014.5 |
| 20260901214113 | 76 | 229 | 1.0 | 6.0 | 0.00 | 0.00 | 0.00 | 46 | 1014.4 |
| 20260901213922 | 76 | 190 | 1.0 | 6.0 | 0.00 | 0.00 | 0.00 | 47 | 1014.4 |
| 20260901213716 | 76 | 259 | 2.0 | 7.0 | 0.00 | 0.00 | 0.00 | 46 | 1014.4 |
| 20260901213616 | 76 | 257 | 2.0 | 7.0 | 0.00 | 0.00 | 0.00 | 46 | 1014.5 |
| 20260901213517 | 76 | 257 | 2.0 | 8.0 | 0.00 | 0.00 | 0.00 | 47 | 1014.5 |
| 20260901213455 | 76 | 257 | 2.0 | 8.0 | 0.00 | 0.00 | 0.00 | 47 | 1014.5 |
| 20260901213416 | 76 | 259 | 2.0 | 11.0 | 0.00 | 0.00 | 0.00 | 47 | 1014.5 |
| 20260901213317 | 76 | 305 | 3.0 | 12.0 | 0.00 | 0.00 | 0.00 | 48 | 1014.5 |
| 20260901213210 | 76 | 338 | 3.0 | 12.0 | 0.00 | 0.00 | 0.00 | 47 | 1014.5 |
| 20260901213111 | 76 | 316 | 3.0 | 12.0 | 0.00 | 0.00 | 0.00 | 47 | 1014.5 |
| 20260901213011 | 75 | 232 | 3.0 | 12.0 | 0.00 | 0.00 | 0.00 | 47 | 1014.6 |
| 20260901212949 | 75 | 224 | 3.0 | 12.0 | 0.00 | 0.00 | 0.00 | 47 | 1014.6 |
| 20260901212910 | 75 | 238 | 3.0 | 12.0 | 0.00 | 0.00 | 0.00 | 49 | 1014.5 |
| 20260901212810 | 75 | 200 | 3.0 | 12.0 | 0.00 | 0.00 | 0.00 | 48 | 1014.5 |
| 20260901212714 | 75 | 252 | 3.0 | 12.0 | 0.00 | 0.00 | 0.00 | 46 | 1014.5 |
| 20260901212704 | 75 | 67 | 3.0 | 12.0 | 0.00 | 0.00 | 0.00 | 47 | 1014.4 |
| 20260901212604 | 75 | 249 | 4.0 | 12.0 | 0.00 | 0.00 | 0.00 | 47 | 1014.5 |
| 20260901212554 | 75 | 248 | 3.0 | 12.0 | 0.00 | 0.00 | 0.00 | 46 | 1014.5 |
| 20260901212404 | 75 | 225 | 3.0 | 11.0 | 0.00 | 0.00 | 0.00 | 47 | 1014.5 |
| 20260901212306 | 75 | 240 | 4.0 | 11.0 | 0.00 | 0.00 | 0.00 | 47 | 1014.5 |
| 20260901212158 | 75 | 266 | 4.0 | 11.0 | 0.00 | 0.00 | 0.00 | 47 | 1014.4 |
| 20260901212100 | 75 | 284 | 4.0 | 11.0 | 0.00 | 0.00 | 0.00 | 48 | 1014.5 |
| 20260901211958 | 75 | 284 | 4.0 | 11.0 | 0.00 | 0.00 | 0.00 | 49 | 1014.5 |
| 20260901211937 | 75 | 270 | 4.0 | 11.0 | 0.00 | 0.00 | 0.00 | 48 | 1014.5 |
| 20260901211859 | 75 | 97 | 4.0 | 11.0 | 0.00 | 0.00 | 0.00 | 48 | 1014.4 |
| 20260901211758 | 75 | 165 | 4.0 | 11.0 | 0.00 | 0.00 | 0.00 | 48 | 1014.4 |
| 20260901211652 | 74 | 159 | 4.0 | 11.0 | 0.00 | 0.00 | 0.00 | 48 | 1014.4 |
| 20260901211552 | 74 | 203 | 4.0 | 11.0 | 0.00 | 0.00 | 0.00 | 48 | 1014.4 |
| 20260901211452 | 74 | 219 | 5.0 | 11.0 | 0.00 | 0.00 | 0.00 | 48 | 1014.5 |
| 20260901211431 | 75 | 217 | 5.0 | 11.0 | 0.00 | 0.00 | 0.00 | 48 | 1014.5 |
| 20260901211352 | 75 | 231 | 5.0 | 11.0 | 0.00 | 0.00 | 0.00 | 48 | 1014.5 |
| 20260901211252 | 75 | 218 | 5.0 | 11.0 | 0.00 | 0.00 | 0.00 | 49 | 1014.5 |
| 20260901211149 | 75 | 136 | 5.0 | 11.0 | 0.00 | 0.00 | 0.00 | 48 | 1014.5 |
| 20260901211048 | 75 | 219 | 4.0 | 11.0 | 0.00 | 0.00 | 0.00 | 48 | 1014.5 |
| 20260901210947 | 74 | 199 | 4.0 | 11.0 | 0.00 | 0.00 | 0.00 | 49 | 1014.5 |
| 20260901210925 | 74 | 198 | 4.0 | 11.0 | 0.00 | 0.00 | 0.00 | 49 | 1014.5 |
| 20260901210846 | 74 | 215 | 4.0 | 11.0 | 0.00 | 0.00 | 0.00 | 49 | 1014.6 |
| 20260901210746 | 75 | 232 | 4.0 | 11.0 | 0.00 | 0.00 | 0.00 | 48 | 1014.5 |
| 20260901210640 | 75 | 288 | 3.0 | 11.0 | 0.00 | 0.00 | 0.00 | 48 | 1014.5 |
| 20260901210541 | 75 | 245 | 3.0 | 11.0 | 0.00 | 0.00 | 0.00 | 47 | 1014.6 |
| 20260901210440 | 76 | 281 | 3.0 | 11.0 | 0.00 | 0.00 | 0.00 | 47 | 1014.6 |
| 20260901210419 | 76 | 242 | 3.0 | 11.0 | 0.00 | 0.00 | 0.00 | 48 | 1014.6 |
| 20260901210341 | 76 | 239 | 3.0 | 11.0 | 0.00 | 0.00 | 0.00 | 48 | 1014.6 |
| 20260901210240 | 76 | 246 | 3.0 | 11.0 | 0.00 | 0.00 | 0.00 | 49 | 1014.5 |
| 20260901210142 | 75 | 221 | 4.0 | 11.0 | 0.00 | 0.00 | 0.00 | 48 | 1014.5 |
| 20260901210138 | 75 | 215 | 3.0 | 11.0 | 0.00 | 0.00 | 0.00 | 49 | 1014.5 |
| 20260901210038 | 75 | 233 | 3.0 | 11.0 | 0.00 | 0.00 | 0.00 | 48 | 1014.5 |
| 20260901210024 | 75 | 232 | 4.0 | 11.0 | 0.00 | 0.00 | 0.00 | 48 | 1014.6 |
| 20260901205836 | 74 | 281 | 4.0 | 11.0 | 0.00 | 0.00 | 0.00 | 48 | 1014.5 |
| 20260901205734 | 74 | 120 | 4.0 | 11.0 | 0.00 | 0.00 | 0.00 | 48 | 1014.6 |
| 20260901205628 | 74 | 129 | 4.0 | 11.0 | 0.00 | 0.00 | 0.00 | 48 | 1014.6 |
| 20260901205532 | 74 | 171 | 4.0 | 11.0 | 0.00 | 0.00 | 0.00 | 49 | 1014.6 |
| 20260901205428 | 74 | 208 | 4.0 | 11.0 | 0.00 | 0.00 | 0.00 | 48 | 1014.7 |
| 20260901205407 | 74 | 201 | 3.0 | 11.0 | 0.00 | 0.00 | 0.00 | 49 | 1014.7 |
| 20260901205328 | 74 | 243 | 3.0 | 11.0 | 0.00 | 0.00 | 0.00 | 49 | 1014.7 |
| 20260901205229 | 74 | 99 | 3.0 | 11.0 | 0.00 | 0.00 | 0.00 | 48 | 1014.8 |
| 20260901205123 | 74 | 238 | 4.0 | 11.0 | 0.00 | 0.00 | 0.00 | 48 | 1014.7 |
| 20260901205023 | 74 | 235 | 4.0 | 11.0 | 0.00 | 0.00 | 0.00 | 49 | 1014.8 |
| 20260901204923 | 74 | 231 | 3.0 | 11.0 | 0.00 | 0.00 | 0.00 | 51 | 1014.8 |
| 20260901204901 | 74 | 240 | 3.0 | 11.0 | 0.00 | 0.00 | 0.00 | 51 | 1014.8 |
| 20260901204823 | 74 | 153 | 3.0 | 11.0 | 0.00 | 0.00 | 0.00 | 51 | 1014.8 |
| 20260901204723 | 73 | 187 | 4.0 | 11.0 | 0.00 | 0.00 | 0.00 | 51 | 1014.8 |
| 20260901204619 | 73 | 129 | 4.0 | 11.0 | 0.00 | 0.00 | 0.00 | 51 | 1014.8 |
| 20260901204516 | 73 | 252 | 4.0 | 11.0 | 0.00 | 0.00 | 0.00 | 50 | 1014.8 |
| 20260901204416 | 74 | 211 | 4.0 | 11.0 | 0.00 | 0.00 | 0.00 | 50 | 1014.9 |
| 20260901204357 | 74 | 246 | 4.0 | 11.0 | 0.00 | 0.00 | 0.00 | 50 | 1014.9 |
| 20260901204316 | 74 | 301 | 4.0 | 11.0 | 0.00 | 0.00 | 0.00 | 50 | 1014.9 |
| 20260901204216 | 74 | 212 | 3.0 | 11.0 | 0.00 | 0.00 | 0.00 | 50 | 1014.9 |
| 20260901204116 | 73 | 200 | 3.0 | 13.0 | 0.00 | 0.00 | 0.00 | 52 | 1014.9 |
| 20260901204111 | 74 | 177 | 3.0 | 10.0 | 0.00 | 0.00 | 0.00 | 51 | 1014.9 |
| 20260901204010 | 74 | 153 | 3.0 | 10.0 | 0.00 | 0.00 | 0.00 | 52 | 1014.9 |
| 20260901204000 | 73 | 238 | 3.0 | 13.0 | 0.00 | 0.00 | 0.00 | 52 | 1014.9 |
| 20260901203811 | 73 | 191 | 3.0 | 13.0 | 0.00 | 0.00 | 0.00 | 52 | 1014.9 |
| 20260901203710 | 73 | 173 | 2.0 | 13.0 | 0.00 | 0.00 | 0.00 | 51 | 1014.9 |
| 20260901203609 | 73 | 245 | 2.0 | 13.0 | 0.00 | 0.00 | 0.00 | 52 | 1014.9 |
| 20260901203509 | 73 | 276 | 2.0 | 13.0 | 0.00 | 0.00 | 0.00 | 52 | 1014.9 |
| 20260901203409 | 73 | 226 | 2.0 | 13.0 | 0.00 | 0.00 | 0.00 | 52 | 1014.9 |
| 20260901203347 | 73 | 222 | 2.0 | 13.0 | 0.00 | 0.00 | 0.00 | 52 | 1014.9 |
| 20260901203307 | 73 | 243 | 2.0 | 13.0 | 0.00 | 0.00 | 0.00 | 52 | 1014.9 |
| 20260901203205 | 73 | 153 | 2.0 | 13.0 | 0.00 | 0.00 | 0.00 | 53 | 1015.0 |
| 20260901203107 | 73 | 221 | 2.0 | 9.0 | 0.00 | 0.00 | 0.00 | 52 | 1015.0 |
| 20260901203102 | 73 | 231 | 2.0 | 13.0 | 0.00 | 0.00 | 0.00 | 52 | 1014.9 |
| 20260901202959 | 73 | 136 | 2.0 | 13.0 | 0.00 | 0.00 | 0.00 | 52 | 1015.0 |
| 20260901202948 | 73 | 208 | 2.0 | 12.0 | 0.00 | 0.00 | 0.00 | 52 | 1015.0 |
| 20260901202758 | 73 | 217 | 2.0 | 11.0 | 0.00 | 0.00 | 0.00 | 53 | 1014.9 |
| 20260901202658 | 73 | 241 | 3.0 | 12.0 | 0.00 | 0.00 | 0.00 | 52 | 1014.9 |
| 20260901202555 | 73 | 246 | 3.0 | 12.0 | 0.00 | 0.00 | 0.00 | 52 | 1014.9 |
| 20260901202452 | 73 | 243 | 3.0 | 12.0 | 0.00 | 0.00 | 0.00 | 52 | 1014.9 |
| 20260901202352 | 73 | 260 | 3.0 | 12.0 | 0.00 | 0.00 | 0.00 | 53 | 1014.9 |
| 20260901202332 | 73 | 257 | 3.0 | 12.0 | 0.00 | 0.00 | 0.00 | 53 | 1014.9 |
| 20260901202253 | 73 | 228 | 4.0 | 12.0 | 0.00 | 0.00 | 0.00 | 53 | 1014.9 |
| 20260901202152 | 73 | 267 | 4.0 | 12.0 | 0.00 | 0.00 | 0.00 | 53 | 1015.0 |
| 20260901202047 | 73 | 245 | 4.0 | 12.0 | 0.00 | 0.00 | 0.00 | 52 | 1014.9 |
| 20260901201947 | 73 | 239 | 4.0 | 12.0 | 0.00 | 0.00 | 0.00 | 52 | 1015.0 |
| 20260901201847 | 73 | 271 | 4.0 | 12.0 | 0.00 | 0.00 | 0.00 | 51 | 1015.0 |
| 20260901201825 | 73 | 239 | 4.0 | 12.0 | 0.00 | 0.00 | 0.00 | 51 | 1015.0 |
| 20260901201746 | 73 | 252 | 4.0 | 10.0 | 0.00 | 0.00 | 0.00 | 52 | 1015.1 |
| 20260901201646 | 73 | 252 | 4.0 | 10.0 | 0.00 | 0.00 | 0.00 | 52 | 1015.1 |
| 20260901201546 | 74 | 216 | 4.0 | 10.0 | 0.00 | 0.00 | 0.00 | 51 | 1015.0 |
| 20260901201542 | 73 | 160 | 4.0 | 10.0 | 0.00 | 0.00 | 0.00 | 52 | 1015.0 |
| 20260901201442 | 74 | 205 | 4.0 | 10.0 | 0.00 | 0.00 | 0.00 | 52 | 1015.1 |
| 20260901201433 | 74 | 229 | 4.0 | 10.0 | 0.00 | 0.00 | 0.00 | 51 | 1015.0 |
| 20260901201240 | 74 | 243 | 3.0 | 10.0 | 0.00 | 0.00 | 0.00 | 51 | 1015.1 |
| 20260901201140 | 74 | 193 | 3.0 | 9.0 | 0.00 | 0.00 | 0.00 | 52 | 1015.1 |
| 20260901201037 | 74 | 233 | 3.0 | 9.0 | 0.00 | 0.00 | 0.00 | 52 | 1015.1 |
| 20260901200934 | 74 | 243 | 3.0 | 9.0 | 0.00 | 0.00 | 0.00 | 52 | 1015.1 |
| 20260901200834 | 74 | 291 | 3.0 | 9.0 | 0.00 | 0.00 | 0.00 | 52 | 1015.1 |
| 20260901200814 | 74 | 242 | 2.0 | 9.0 | 0.00 | 0.00 | 0.00 | 52 | 1015.2 |
| 20260901200735 | 74 | 238 | 2.0 | 9.0 | 0.00 | 0.00 | 0.00 | 52 | 1015.2 |
| 20260901200634 | 74 | 228 | 2.0 | 9.0 | 0.00 | 0.00 | 0.00 | 51 | 1015.2 |
| 20260901200534 | 74 | 307 | 2.0 | 9.0 | 0.00 | 0.00 | 0.00 | 51 | 1015.1 |
| 20260901200428 | 74 | 239 | 2.0 | 9.0 | 0.00 | 0.00 | 0.00 | 52 | 1015.2 |
| 20260901200328 | 74 | 236 | 2.0 | 9.0 | 0.00 | 0.00 | 0.00 | 52 | 1015.2 |
| 20260901200307 | 74 | 243 | 2.0 | 9.0 | 0.00 | 0.00 | 0.00 | 52 | 1015.2 |
| 20260901200229 | 74 | 204 | 2.0 | 8.0 | 0.00 | 0.00 | 0.00 | 53 | 1015.2 |
| 20260901200128 | 74 | 210 | 2.0 | 9.0 | 0.00 | 0.00 | 0.00 | 54 | 1015.2 |
| 20260901200032 | 73 | 208 | 2.0 | 9.0 | 0.00 | 0.00 | 0.00 | 54 | 1015.1 |
| 20260901195926 | 73 | 239 | 3.0 | 9.0 | 0.00 | 0.00 | 0.00 | 53 | 1015.1 |
| 20260901195826 | 73 | 239 | 3.0 | 9.0 | 0.00 | 0.00 | 0.00 | 54 | 1015.2 |
| 20260901195801 | 73 | 238 | 3.0 | 9.0 | 0.00 | 0.00 | 0.00 | 54 | 1015.1 |
| 20260901195725 | 73 | 239 | 3.0 | 9.0 | 0.00 | 0.00 | 0.00 | 54 | 1015.1 |
| 20260901195623 | 73 | 239 | 4.0 | 9.0 | 0.00 | 0.00 | 0.00 | 54 | 1015.2 |
| 20260901195516 | 73 | 242 | 4.0 | 9.0 | 0.00 | 0.00 | 0.00 | 54 | 1015.2 |
| 20260901195416 | 73 | 217 | 4.0 | 9.0 | 0.00 | 0.00 | 0.00 | 52 | 1015.2 |
| 20260901195316 | 73 | 229 | 4.0 | 9.0 | 0.00 | 0.00 | 0.00 | 52 | 1015.3 |
| 20260901195255 | 74 | 214 | 3.0 | 9.0 | 0.00 | 0.00 | 0.00 | 52 | 1015.3 |
| 20260901195217 | 74 | 166 | 3.0 | 9.0 | 0.00 | 0.00 | 0.00 | 52 | 1015.3 |
| 20260901195117 | 74 | 224 | 2.0 | 9.0 | 0.00 | 0.00 | 0.00 | 53 | 1015.3 |
| 20260901195017 | 73 | 234 | 2.0 | 9.0 | 0.00 | 0.00 | 0.00 | 54 | 1015.3 |
| 20260901194915 | 73 | 236 | 2.0 | 9.0 | 0.00 | 0.00 | 0.00 | 54 | 1015.3 |
| 20260901194815 | 73 | 233 | 2.0 | 9.0 | 0.00 | 0.00 | 0.00 | 54 | 1015.3 |
| 20260901194749 | 73 | 198 | 3.0 | 9.0 | 0.00 | 0.00 | 0.00 | 54 | 1015.3 |
| 20260901194729 | 72 | 226 | 4.0 | 11.0 | 0.00 | 0.00 | 0.00 | 57 | 1015.3 |
| 20260901194714 | 73 | 222 | 3.0 | 10.0 | 0.00 | 0.00 | 0.00 | 54 | 1015.3 |
| 20260901194621 | 73 | 217 | 3.0 | 10.0 | 0.00 | 0.00 | 0.00 | 54 | 1015.3 |
| 20260901194507 | 73 | 224 | 3.0 | 10.0 | 0.00 | 0.00 | 0.00 | 54 | 1015.2 |
| 20260901194406 | 73 | 201 | 4.0 | 10.0 | 0.00 | 0.00 | 0.00 | 57 | 1015.3 |
| 20260901194354 | 72 | 201 | 4.0 | 10.0 | 0.00 | 0.00 | 0.00 | 57 | 1015.3 |
| 20260901194205 | 72 | 238 | 5.0 | 13.0 | 0.00 | 0.00 | 0.00 | 56 | 1015.3 |
| 20260901194105 | 72 | 238 | 5.0 | 13.0 | 0.00 | 0.00 | 0.00 | 56 | 1015.3 |
| 20260901193958 | 72 | 239 | 5.0 | 13.0 | 0.00 | 0.00 | 0.00 | 55 | 1015.4 |
| 20260901193858 | 72 | 238 | 4.0 | 13.0 | 0.00 | 0.00 | 0.00 | 55 | 1015.4 |
| 20260901193758 | 72 | 219 | 4.0 | 13.0 | 0.00 | 0.00 | 0.00 | 55 | 1015.4 |
| 20260901193738 | 72 | 224 | 4.0 | 13.0 | 0.00 | 0.00 | 0.00 | 55 | 1015.4 |
| 20260901193659 | 72 | 246 | 4.0 | 13.0 | 0.00 | 0.00 | 0.00 | 55 | 1015.4 |
| 20260901193559 | 72 | 225 | 3.0 | 13.0 | 0.00 | 0.00 | 0.00 | 55 | 1015.4 |
| 20260901193456 | 73 | 242 | 3.0 | 13.0 | 0.00 | 0.00 | 0.00 | 55 | 1015.4 |
| 20260901193356 | 73 | 183 | 3.0 | 13.0 | 0.00 | 0.00 | 0.00 | 55 | 1015.4 |
| 20260901193256 | 73 | 233 | 2.0 | 13.0 | 0.00 | 0.00 | 0.00 | 55 | 1015.4 |
| 20260901193231 | 73 | 248 | 2.0 | 13.0 | 0.00 | 0.00 | 0.00 | 55 | 1015.4 |
| 20260901193154 | 73 | 255 | 2.0 | 7.0 | 0.00 | 0.00 | 0.00 | 57 | 1015.4 |
| 20260901193052 | 73 | 232 | 2.0 | 7.0 | 0.00 | 0.00 | 0.00 | 57 | 1015.4 |
| 20260901192951 | 73 | 221 | 2.0 | 6.0 | 0.00 | 0.00 | 0.00 | 58 | 1015.3 |
| 20260901192936 | 73 | 291 | 3.0 | 9.0 | 0.00 | 0.00 | 0.00 | 57 | 1015.5 |
| 20260901192850 | 73 | 252 | 2.0 | 7.0 | 0.00 | 0.00 | 0.00 | 57 | 1015.4 |
| 20260901192830 | 73 | 252 | 2.0 | 7.0 | 0.00 | 0.00 | 0.00 | 57 | 1015.5 |
| 20260901192819 | 73 | 245 | 2.0 | 8.0 | 0.00 | 0.00 | 0.00 | 57 | 1015.5 |
| 20260901192648 | 73 | 278 | 2.0 | 8.0 | 0.00 | 0.00 | 0.00 | 57 | 1015.4 |
| 20260901192555 | 73 | 238 | 2.0 | 8.0 | 0.00 | 0.00 | 0.00 | 57 | 1015.5 |
| 20260901192440 | 73 | 255 | 2.0 | 8.0 | 0.00 | 0.00 | 0.00 | 57 | 1015.5 |
| 20260901192344 | 73 | 226 | 3.0 | 9.0 | 0.00 | 0.00 | 0.00 | 57 | 1015.5 |
| 20260901192330 | 73 | 215 | 3.0 | 9.0 | 0.00 | 0.00 | 0.00 | 57 | 1015.4 |
| 20260901192141 | 73 | 291 | 3.0 | 9.0 | 0.00 | 0.00 | 0.00 | 57 | 1015.5 |
| 20260901192041 | 73 | 239 | 3.0 | 9.0 | 0.00 | 0.00 | 0.00 | 57 | 1015.5 |
| 20260901191941 | 73 | 243 | 3.0 | 9.0 | 0.00 | 0.00 | 0.00 | 57 | 1015.4 |
| 20260901191936 | 73 | 276 | 3.0 | 9.0 | 0.00 | 0.00 | 0.00 | 56 | 1015.5 |
| 20260901191837 | 73 | 203 | 3.0 | 9.0 | 0.00 | 0.00 | 0.00 | 57 | 1015.5 |
| 20260901191824 | 73 | 217 | 3.0 | 9.0 | 0.00 | 0.00 | 0.00 | 57 | 1015.5 |
| 20260901191637 | 73 | 243 | 3.0 | 9.0 | 0.00 | 0.00 | 0.00 | 57 | 1015.4 |
| 20260901191535 | 73 | 200 | 3.0 | 9.0 | 0.00 | 0.00 | 0.00 | 57 | 1015.5 |
| 20260901191428 | 73 | 233 | 2.0 | 9.0 | 0.00 | 0.00 | 0.00 | 57 | 1015.5 |
| 20260901191328 | 73 | 235 | 2.0 | 8.0 | 0.00 | 0.00 | 0.00 | 56 | 1015.5 |
| 20260901191228 | 73 | 222 | 2.0 | 8.0 | 0.00 | 0.00 | 0.00 | 57 | 1015.5 |
| 20260901191208 | 73 | 238 | 3.0 | 8.0 | 0.00 | 0.00 | 0.00 | 57 | 1015.5 |
| 20260901191128 | 72 | 275 | 3.0 | 11.0 | 0.00 | 0.00 | 0.00 | 57 | 1015.5 |
| 20260901191029 | 72 | 219 | 3.0 | 12.0 | 0.00 | 0.00 | 0.00 | 58 | 1015.5 |
| 20260901190930 | 71 | 225 | 3.0 | 12.0 | 0.00 | 0.00 | 0.00 | 58 | 1015.5 |
| 20260901190924 | 72 | 240 | 3.0 | 12.0 | 0.00 | 0.00 | 0.00 | 58 | 1015.5 |
| 20260901190825 | 72 | 290 | 3.0 | 12.0 | 0.00 | 0.00 | 0.00 | 58 | 1015.5 |
| 20260901190811 | 71 | 307 | 3.0 | 12.0 | 0.00 | 0.00 | 0.00 | 58 | 1015.5 |
| 20260901190622 | 71 | 225 | 3.0 | 12.0 | 0.00 | 0.00 | 0.00 | 59 | 1015.5 |
| 20260901190522 | 71 | 257 | 4.0 | 12.0 | 0.00 | 0.00 | 0.00 | 59 | 1015.5 |
| 20260901190427 | 71 | 230 | 4.0 | 12.0 | 0.00 | 0.00 | 0.00 | 59 | 1015.6 |
| 20260901190317 | 71 | 248 | 4.0 | 12.0 | 0.00 | 0.00 | 0.00 | 58 | 1015.6 |
| 20260901190217 | 71 | 218 | 4.0 | 12.0 | 0.00 | 0.00 | 0.00 | 59 | 1015.6 |
| 20260901190156 | 71 | 215 | 3.0 | 12.0 | 0.00 | 0.00 | 0.00 | 59 | 1015.6 |
| 20260901190117 | 71 | 231 | 3.0 | 12.0 | 0.00 | 0.00 | 0.00 | 59 | 1015.6 |
| 20260901190016 | 71 | 282 | 3.0 | 12.0 | 0.00 | 0.00 | 0.00 | 59 | 1015.6 |
| 20260901185914 | 71 | 230 | 3.0 | 12.0 | 0.00 | 0.00 | 0.00 | 61 | 1015.6 |
| 20260901185814 | 71 | 210 | 3.0 | 12.0 | 0.00 | 0.00 | 0.00 | 61 | 1015.6 |
| 20260901185713 | 70 | 217 | 3.0 | 12.0 | 0.00 | 0.00 | 0.00 | 61 | 1015.6 |
| 20260901185650 | 70 | 239 | 3.0 | 12.0 | 0.00 | 0.00 | 0.00 | 61 | 1015.6 |
| 20260901185613 | 70 | 211 | 3.0 | 12.0 | 0.00 | 0.00 | 0.00 | 60 | 1015.6 |
| 20260901185511 | 70 | 172 | 3.0 | 10.0 | 0.00 | 0.00 | 0.00 | 61 | 1015.7 |
| 20260901185404 | 70 | 231 | 3.0 | 10.0 | 0.00 | 0.00 | 0.00 | 61 | 1015.7 |
| 20260901185306 | 70 | 238 | 3.0 | 9.0 | 0.00 | 0.00 | 0.00 | 61 | 1015.6 |
| 20260901185205 | 70 | 273 | 3.0 | 9.0 | 0.00 | 0.00 | 0.00 | 62 | 1015.7 |
| 20260901185143 | 70 | 233 | 3.0 | 9.0 | 0.00 | 0.00 | 0.00 | 62 | 1015.7 |
| 20260901185104 | 70 | 242 | 3.0 | 9.0 | 0.00 | 0.00 | 0.00 | 61 | 1015.7 |
| 20260901185006 | 70 | 239 | 3.0 | 9.0 | 0.00 | 0.00 | 0.00 | 61 | 1015.7 |
| 20260901184901 | 70 | 264 | 3.0 | 11.0 | 0.00 | 0.00 | 0.00 | 62 | 1015.7 |
| 20260901184800 | 69 | 222 | 3.0 | 11.0 | 0.00 | 0.00 | 0.00 | 62 | 1015.7 |
| 20260901184701 | 69 | 218 | 3.0 | 11.0 | 0.00 | 0.00 | 0.00 | 61 | 1015.7 |
| 20260901184638 | 69 | 219 | 3.0 | 11.0 | 0.00 | 0.00 | 0.00 | 61 | 1015.7 |
| 20260901184600 | 69 | 256 | 3.0 | 11.0 | 0.00 | 0.00 | 0.00 | 61 | 1015.7 |
| 20260901184459 | 69 | 248 | 3.0 | 11.0 | 0.00 | 0.00 | 0.00 | 61 | 1015.8 |
| 20260901184357 | 69 | 212 | 3.0 | 11.0 | 0.00 | 0.00 | 0.00 | 61 | 1015.8 |
| 20260901184256 | 69 | 229 | 3.0 | 11.0 | 0.00 | 0.00 | 0.00 | 61 | 1015.8 |
| 20260901184156 | 69 | 219 | 3.0 | 11.0 | 0.00 | 0.00 | 0.00 | 61 | 1015.8 |
| 20260901184131 | 69 | 236 | 3.0 | 11.0 | 0.00 | 0.00 | 0.00 | 61 | 1015.8 |
| 20260901184056 | 69 | 236 | 3.0 | 11.0 | 0.00 | 0.00 | 0.00 | 61 | 1015.8 |
| 20260901183952 | 69 | 242 | 3.0 | 11.0 | 0.00 | 0.00 | 0.00 | 61 | 1015.8 |
| 20260901183847 | 70 | 236 | 3.0 | 10.0 | 0.00 | 0.00 | 0.00 | 61 | 1015.8 |
| 20260901183747 | 70 | 229 | 3.0 | 10.0 | 0.00 | 0.00 | 0.00 | 61 | 1015.8 |
| 20260901183625 | 69 | 236 | 4.0 | 10.0 | 0.00 | 0.00 | 0.00 | 61 | 1015.8 |
| 20260901183546 | 70 | 236 | 4.0 | 10.0 | 0.00 | 0.00 | 0.00 | 60 | 1015.8 |
| 20260901183446 | 70 | 259 | 4.0 | 12.0 | 0.00 | 0.00 | 0.00 | 61 | 1015.8 |
| 20260901183342 | 70 | 245 | 4.0 | 12.0 | 0.00 | 0.00 | 0.00 | 60 | 1015.8 |
| 20260901183242 | 70 | 243 | 4.0 | 12.0 | 0.00 | 0.00 | 0.00 | 61 | 1015.7 |
| 20260901183143 | 70 | 235 | 3.0 | 12.0 | 0.00 | 0.00 | 0.00 | 61 | 1015.7 |
| 20260901183120 | 70 | 239 | 3.0 | 12.0 | 0.00 | 0.00 | 0.00 | 61 | 1015.7 |
| 20260901183042 | 70 | 245 | 4.0 | 12.0 | 0.00 | 0.00 | 0.00 | 60 | 1015.7 |
| 20260901182940 | 70 | 235 | 4.0 | 12.0 | 0.00 | 0.00 | 0.00 | 60 | 1015.7 |
| 20260901182835 | 70 | 222 | 4.0 | 12.0 | 0.00 | 0.00 | 0.00 | 60 | 1015.7 |
| 20260901182735 | 70 | 242 | 4.0 | 12.0 | 0.00 | 0.00 | 0.00 | 60 | 1015.8 |
| 20260901182635 | 70 | 267 | 3.0 | 12.0 | 0.00 | 0.00 | 0.00 | 60 | 1015.8 |
| 20260901182614 | 70 | 203 | 3.0 | 12.0 | 0.00 | 0.00 | 0.00 | 59 | 1015.8 |
| 20260901182536 | 70 | 236 | 3.0 | 12.0 | 0.00 | 0.00 | 0.00 | 59 | 1015.8 |
| 20260901182435 | 70 | 225 | 2.0 | 10.0 | 0.00 | 0.00 | 0.00 | 61 | 1015.8 |
| 20260901182331 | 70 | 256 | 2.0 | 10.0 | 0.00 | 0.00 | 0.00 | 61 | 1015.7 |
| 20260901182229 | 70 | 223 | 2.0 | 10.0 | 0.00 | 0.00 | 0.00 | 61 | 1015.7 |
| 20260901182129 | 70 | 253 | 2.0 | 10.0 | 0.00 | 0.00 | 0.00 | 61 | 1015.7 |
| 20260901182106 | 70 | 225 | 2.0 | 10.0 | 0.00 | 0.00 | 0.00 | 61 | 1015.7 |
| 20260901182030 | 70 | 226 | 2.0 | 8.0 | 0.00 | 0.00 | 0.00 | 61 | 1015.7 |
| 20260901181927 | 70 | 243 | 2.0 | 8.0 | 0.00 | 0.00 | 0.00 | 62 | 1015.7 |
| 20260901181824 | 70 | 235 | 1.0 | 8.0 | 0.00 | 0.00 | 0.00 | 62 | 1015.8 |
| 20260901181722 | 70 | 231 | 1.0 | 8.0 | 0.00 | 0.00 | 0.00 | 64 | 1015.8 |
| 20260901181622 | 69 | 250 | 2.0 | 8.0 | 0.00 | 0.00 | 0.00 | 64 | 1015.8 |
| 20260901181602 | 69 | 250 | 2.0 | 8.0 | 0.00 | 0.00 | 0.00 | 65 | 1015.8 |
| 20260901181523 | 69 | 250 | 2.0 | 8.0 | 0.00 | 0.00 | 0.00 | 65 | 1015.8 |
| 20260901181423 | 69 | 250 | 2.0 | 8.0 | 0.00 | 0.00 | 0.00 | 63 | 1015.8 |
| 20260901181321 | 69 | 248 | 4.0 | 11.0 | 0.00 | 0.00 | 0.00 | 64 | 1015.8 |
| 20260901181317 | 69 | 235 | 3.0 | 9.0 | 0.00 | 0.00 | 0.00 | 64 | 1015.8 |
| 20260901181217 | 69 | 208 | 3.0 | 11.0 | 0.00 | 0.00 | 0.00 | 64 | 1015.8 |
| 20260901181207 | 69 | 266 | 3.0 | 11.0 | 0.00 | 0.00 | 0.00 | 65 | 1015.8 |
| 20260901181017 | 68 | 231 | 4.0 | 11.0 | 0.00 | 0.00 | 0.00 | 64 | 1015.8 |
| 20260901180917 | 68 | 229 | 4.0 | 11.0 | 0.00 | 0.00 | 0.00 | 64 | 1015.7 |
| 20260901180812 | 68 | 230 | 4.0 | 11.0 | 0.00 | 0.00 | 0.00 | 64 | 1015.8 |
| 20260901180713 | 68 | 232 | 4.0 | 11.0 | 0.00 | 0.00 | 0.00 | 63 | 1015.8 |
| 20260901180613 | 68 | 245 | 4.0 | 11.0 | 0.00 | 0.00 | 0.00 | 63 | 1015.7 |
| 20260901180550 | 68 | 233 | 4.0 | 11.0 | 0.00 | 0.00 | 0.00 | 63 | 1015.7 |
| 20260901180513 | 69 | 230 | 4.0 | 11.0 | 0.00 | 0.00 | 0.00 | 63 | 1015.8 |
| 20260901180412 | 69 | 236 | 4.0 | 11.0 | 0.00 | 0.00 | 0.00 | 62 | 1015.7 |
| 20260901180312 | 69 | 245 | 4.0 | 11.0 | 0.00 | 0.00 | 0.00 | 63 | 1015.7 |
| 20260901180212 | 69 | 228 | 3.0 | 11.0 | 0.00 | 0.00 | 0.00 | 63 | 1015.7 |
| 20260901180112 | 69 | 225 | 3.0 | 11.0 | 0.00 | 0.00 | 0.00 | 63 | 1015.7 |
| 20260901180057 | 69 | 233 | 3.0 | 11.0 | 0.00 | 0.00 | 0.00 | 63 | 1015.7 |
| 20260901180012 | 69 | 205 | 3.0 | 11.0 | 0.00 | 0.00 | 0.00 | 63 | 1015.8 |
| 20260901175912 | 69 | 219 | 3.0 | 11.0 | 0.00 | 0.00 | 0.00 | 62 | 1015.7 |
| 20260901175813 | 69 | 287 | 3.0 | 11.0 | 0.00 | 0.00 | 0.00 | 62 | 1015.7 |
| 20260901175711 | 69 | 165 | 3.0 | 10.0 | 0.00 | 0.00 | 0.00 | 63 | 1015.7 |
| 20260901175610 | 69 | 214 | 3.0 | 9.0 | 0.00 | 0.00 | 0.00 | 63 | 1015.7 |
| 20260901175538 | 69 | 141 | 3.0 | 9.0 | 0.00 | 0.00 | 0.00 | 63 | 1015.7 |
| 20260901175510 | 69 | 238 | 3.0 | 9.0 | 0.00 | 0.00 | 0.00 | 63 | 1015.7 |
| 20260901175411 | 69 | 146 | 3.0 | 9.0 | 0.00 | 0.00 | 0.00 | 63 | 1015.7 |
| 20260901175311 | 68 | 212 | 2.0 | 6.0 | 0.00 | 0.00 | 0.00 | 64 | 1015.7 |
| 20260901175209 | 68 | 226 | 2.0 | 6.0 | 0.00 | 0.00 | 0.00 | 65 | 1015.7 |
| 20260901175108 | 68 | 193 | 3.0 | 6.0 | 0.00 | 0.00 | 0.00 | 65 | 1015.7 |
| 20260901175034 | 68 | 250 | 3.0 | 6.0 | 0.00 | 0.00 | 0.00 | 65 | 1015.7 |
| 20260901175009 | 68 | 250 | 3.0 | 6.0 | 0.00 | 0.00 | 0.00 | 64 | 1015.7 |
| 20260901174909 | 68 | 224 | 3.0 | 6.0 | 0.00 | 0.00 | 0.00 | 64 | 1015.7 |
| 20260901174808 | 68 | 219 | 3.0 | 11.0 | 0.00 | 0.00 | 0.00 | 64 | 1015.6 |
| 20260901174708 | 68 | 218 | 3.0 | 11.0 | 0.00 | 0.00 | 0.00 | 65 | 1015.6 |
| 20260901174604 | 68 | 217 | 4.0 | 11.0 | 0.00 | 0.00 | 0.00 | 64 | 1015.6 |
| 20260901174533 | 68 | 228 | 4.0 | 12.0 | 0.00 | 0.00 | 0.00 | 64 | 1015.6 |
| 20260901174504 | 68 | 150 | 4.0 | 12.0 | 0.00 | 0.00 | 0.00 | 64 | 1015.6 |
| 20260901174404 | 68 | 243 | 4.0 | 12.0 | 0.00 | 0.00 | 0.00 | 64 | 1015.6 |
| 20260901174305 | 68 | 233 | 4.0 | 12.0 | 0.00 | 0.00 | 0.00 | 65 | 1015.6 |
| 20260901174203 | 67 | 233 | 4.0 | 12.0 | 0.00 | 0.00 | 0.00 | 65 | 1015.6 |
| 20260901174057 | 67 | 219 | 4.0 | 12.0 | 0.00 | 0.00 | 0.00 | 65 | 1015.7 |
| 20260901174031 | 67 | 160 | 4.0 | 12.0 | 0.00 | 0.00 | 0.00 | 65 | 1015.7 |
| 20260901173957 | 68 | 231 | 5.0 | 12.0 | 0.00 | 0.00 | 0.00 | 64 | 1015.6 |
| 20260901173858 | 68 | 235 | 4.0 | 12.0 | 0.00 | 0.00 | 0.00 | 64 | 1015.6 |
| 20260901173756 | 68 | 228 | 4.0 | 12.0 | 0.00 | 0.00 | 0.00 | 65 | 1015.6 |
| 20260901173657 | 68 | 214 | 4.0 | 12.0 | 0.00 | 0.00 | 0.00 | 65 | 1015.6 |
| 20260901173552 | 67 | 224 | 3.0 | 12.0 | 0.00 | 0.00 | 0.00 | 64 | 1015.6 |
| 20260901173533 | 67 | 228 | 3.0 | 12.0 | 0.00 | 0.00 | 0.00 | 64 | 1015.6 |
| 20260901173450 | 67 | 229 | 3.0 | 11.0 | 0.00 | 0.00 | 0.00 | 64 | 1015.6 |
| 20260901173351 | 67 | 235 | 3.0 | 11.0 | 0.00 | 0.00 | 0.00 | 64 | 1015.6 |
| 20260901173251 | 67 | 214 | 4.0 | 11.0 | 0.00 | 0.00 | 0.00 | 65 | 1015.6 |
| 20260901173150 | 67 | 246 | 4.0 | 11.0 | 0.00 | 0.00 | 0.00 | 65 | 1015.6 |
| 20260901173049 | 67 | 233 | 4.0 | 11.0 | 0.00 | 0.00 | 0.00 | 65 | 1015.6 |
| 20260901173032 | 67 | 241 | 4.0 | 11.0 | 0.00 | 0.00 | 0.00 | 65 | 1015.6 |
| 20260901172948 | 67 | 242 | 3.0 | 11.0 | 0.00 | 0.00 | 0.00 | 66 | 1015.6 |
| 20260901172846 | 67 | 155 | 3.0 | 11.0 | 0.00 | 0.00 | 0.00 | 66 | 1015.6 |
| 20260901172747 | 67 | 222 | 3.0 | 11.0 | 0.00 | 0.00 | 0.00 | 66 | 1015.5 |
| 20260901172645 | 67 | 228 | 4.0 | 11.0 | 0.00 | 0.00 | 0.00 | 66 | 1015.6 |
| 20260901172543 | 67 | 156 | 4.0 | 11.0 | 0.00 | 0.00 | 0.00 | 66 | 1015.6 |
| 20260901172442 | 67 | 236 | 4.0 | 11.0 | 0.00 | 0.00 | 0.00 | 66 | 1015.6 |
| 20260901172340 | 67 | 264 | 5.0 | 11.0 | 0.00 | 0.00 | 0.00 | 66 | 1015.6 |
| 20260901172253 | 67 | 242 | 5.0 | 10.0 | 0.00 | 0.00 | 0.00 | 67 | 1015.5 |
| 20260901172241 | 67 | 218 | 4.0 | 10.0 | 0.00 | 0.00 | 0.00 | 66 | 1015.6 |
| 20260901172149 | 67 | 264 | 5.0 | 10.0 | 0.00 | 0.00 | 0.00 | 67 | 1015.6 |
| 20260901172139 | 67 | 242 | 5.0 | 10.0 | 0.00 | 0.00 | 0.00 | 67 | 1015.5 |
| 20260901171932 | 67 | 246 | 5.0 | 10.0 | 0.00 | 0.00 | 0.00 | 67 | 1015.5 |
| 20260901171833 | 67 | 235 | 6.0 | 10.0 | 0.00 | 0.00 | 0.00 | 67 | 1015.6 |
| 20260901171732 | 67 | 245 | 6.0 | 12.0 | 0.00 | 0.00 | 0.00 | 66 | 1015.5 |
| 20260901171632 | 67 | 208 | 6.0 | 12.0 | 0.00 | 0.00 | 0.00 | 67 | 1015.5 |
| 20260901171528 | 67 | 235 | 5.0 | 12.0 | 0.00 | 0.00 | 0.00 | 66 | 1015.5 |
| 20260901171426 | 67 | 236 | 5.0 | 12.0 | 0.00 | 0.00 | 0.00 | 66 | 1015.5 |
| 20260901171327 | 67 | 169 | 5.0 | 12.0 | 0.00 | 0.00 | 0.00 | 66 | 1015.6 |
| 20260901171227 | 67 | 193 | 4.0 | 12.0 | 0.00 | 0.00 | 0.00 | 66 | 1015.5 |
| 20260901171126 | 67 | 211 | 4.0 | 12.0 | 0.00 | 0.00 | 0.00 | 66 | 1015.6 |
| 20260901171044 | 68 | 214 | 4.0 | 12.0 | 0.00 | 0.00 | 0.00 | 66 | 1015.5 |
| 20260901171023 | 68 | 222 | 4.0 | 12.0 | 0.00 | 0.00 | 0.00 | 67 | 1015.5 |
| 20260901170920 | 68 | 210 | 4.0 | 12.0 | 0.00 | 0.00 | 0.00 | 66 | 1015.5 |
| 20260901170822 | 68 | 243 | 4.0 | 12.0 | 0.00 | 0.00 | 0.00 | 67 | 1015.5 |
| 20260901170751 | 68 | 253 | 3.0 | 9.0 | 0.00 | 0.00 | 0.00 | 68 | 1015.4 |
| 20260901170721 | 68 | 235 | 3.0 | 9.0 | 0.00 | 0.00 | 0.00 | 67 | 1015.5 |
| 20260901170642 | 68 | 259 | 3.0 | 9.0 | 0.00 | 0.00 | 0.00 | 68 | 1015.4 |
| 20260901170515 | 68 | 228 | 3.0 | 9.0 | 0.00 | 0.00 | 0.00 | 67 | 1015.4 |
| 20260901170415 | 68 | 224 | 3.0 | 9.0 | 0.00 | 0.00 | 0.00 | 68 | 1015.4 |
| 20260901170314 | 67 | 249 | 3.0 | 9.0 | 0.00 | 0.00 | 0.00 | 69 | 1015.4 |
| 20260901170215 | 67 | 203 | 4.0 | 9.0 | 0.00 | 0.00 | 0.00 | 69 | 1015.4 |
| 20260901170114 | 67 | 203 | 4.0 | 9.0 | 0.00 | 0.00 | 0.00 | 69 | 1015.4 |
| 20260901170030 | 67 | 210 | 4.0 | 9.0 | 0.00 | 0.00 | 0.00 | 69 | 1015.4 |
| 20260901170007 | 67 | 150 | 4.0 | 9.0 | 0.00 | 0.00 | 0.00 | 69 | 1015.4 |
| 20260901165906 | 67 | 212 | 4.0 | 9.0 | 0.00 | 0.00 | 0.00 | 69 | 1015.5 |
| 20260901165806 | 67 | 236 | 4.0 | 9.0 | 0.00 | 0.00 | 0.00 | 70 | 1015.5 |
| 20260901165706 | 66 | 242 | 4.0 | 9.0 | 0.00 | 0.00 | 0.00 | 71 | 1015.4 |
| 20260901165607 | 66 | 158 | 4.0 | 9.0 | 0.00 | 0.00 | 0.00 | 71 | 1015.4 |
| 20260901165528 | 66 | 200 | 4.0 | 9.0 | 0.00 | 0.00 | 0.00 | 70 | 1015.4 |
| 20260901165503 | 66 | 221 | 4.0 | 9.0 | 0.00 | 0.00 | 0.00 | 70 | 1015.4 |
| 20260901165400 | 66 | 233 | 5.0 | 10.0 | 0.00 | 0.00 | 0.00 | 69 | 1015.4 |
| 20260901165300 | 66 | 225 | 5.0 | 10.0 | 0.00 | 0.00 | 0.00 | 70 | 1015.4 |
| 20260901165201 | 66 | 167 | 5.0 | 10.0 | 0.00 | 0.00 | 0.00 | 69 | 1015.5 |
| 20260901165100 | 66 | 248 | 5.0 | 10.0 | 0.00 | 0.00 | 0.00 | 69 | 1015.5 |
| 20260901165028 | 66 | 241 | 5.0 | 10.0 | 0.00 | 0.00 | 0.00 | 68 | 1015.5 |
| 20260901164955 | 67 | 217 | 5.0 | 10.0 | 0.00 | 0.00 | 0.00 | 68 | 1015.5 |
| 20260901164854 | 67 | 218 | 5.0 | 10.0 | 0.00 | 0.00 | 0.00 | 68 | 1015.5 |
| 20260901164801 | 67 | 141 | 4.0 | 10.0 | 0.00 | 0.00 | 0.00 | 69 | 1015.5 |
| 20260901164754 | 67 | 231 | 5.0 | 10.0 | 0.00 | 0.00 | 0.00 | 69 | 1015.5 |
| 20260901164655 | 67 | 226 | 4.0 | 10.0 | 0.00 | 0.00 | 0.00 | 69 | 1015.5 |
| 20260901164639 | 67 | 150 | 4.0 | 10.0 | 0.00 | 0.00 | 0.00 | 69 | 1015.5 |
| 20260901164451 | 67 | 157 | 4.0 | 10.0 | 0.00 | 0.00 | 0.00 | 69 | 1015.5 |
| 20260901164349 | 67 | 210 | 4.0 | 9.0 | 0.00 | 0.00 | 0.00 | 69 | 1015.5 |
| 20260901164248 | 67 | 253 | 3.0 | 8.0 | 0.00 | 0.00 | 0.00 | 69 | 1015.4 |
| 20260901164148 | 67 | 259 | 3.0 | 8.0 | 0.00 | 0.00 | 0.00 | 69 | 1015.4 |
| 20260901164048 | 67 | 224 | 3.0 | 7.0 | 0.00 | 0.00 | 0.00 | 68 | 1015.4 |
| 20260901164028 | 67 | 236 | 3.0 | 7.0 | 0.00 | 0.00 | 0.00 | 68 | 1015.4 |
| 20260901163946 | 67 | 231 | 3.0 | 7.0 | 0.00 | 0.00 | 0.00 | 68 | 1015.5 |
| 20260901163847 | 67 | 216 | 3.0 | 7.0 | 0.00 | 0.00 | 0.00 | 70 | 1015.5 |
| 20260901163744 | 67 | 158 | 3.0 | 7.0 | 0.00 | 0.00 | 0.00 | 70 | 1015.5 |
| 20260901163644 | 66 | 238 | 3.0 | 7.0 | 0.00 | 0.00 | 0.00 | 70 | 1015.5 |
| 20260901163542 | 66 | 229 | 3.0 | 7.0 | 0.00 | 0.00 | 0.00 | 69 | 1015.5 |
| 20260901163528 | 66 | 167 | 3.0 | 7.0 | 0.00 | 0.00 | 0.00 | 69 | 1015.5 |
| 20260901163438 | 66 | 210 | 3.0 | 7.0 | 0.00 | 0.00 | 0.00 | 69 | 1015.5 |
| 20260901163339 | 66 | 146 | 3.0 | 7.0 | 0.00 | 0.00 | 0.00 | 70 | 1015.4 |
| 20260901163238 | 66 | 167 | 3.0 | 7.0 | 0.00 | 0.00 | 0.00 | 70 | 1015.4 |
| 20260901163139 | 66 | 236 | 3.0 | 7.0 | 0.00 | 0.00 | 0.00 | 70 | 1015.5 |
| 20260901163037 | 66 | 195 | 3.0 | 6.0 | 0.00 | 0.00 | 0.00 | 71 | 1015.4 |
| 20260901163026 | 66 | 167 | 3.0 | 6.0 | 0.00 | 0.00 | 0.00 | 71 | 1015.4 |
| 20260901162930 | 66 | 142 | 3.0 | 6.0 | 0.00 | 0.00 | 0.00 | 71 | 1015.4 |
| 20260901162831 | 65 | 248 | 3.0 | 8.0 | 0.00 | 0.00 | 0.00 | 72 | 1015.4 |
| 20260901162751 | 65 | 198 | 3.0 | 8.0 | 0.00 | 0.00 | 0.00 | 70 | 1015.3 |
| 20260901162728 | 65 | 224 | 3.0 | 8.0 | 0.00 | 0.00 | 0.00 | 71 | 1015.4 |
| 20260901162645 | 65 | 221 | 3.0 | 8.0 | 0.00 | 0.00 | 0.00 | 71 | 1015.4 |
| 20260901162635 | 65 | 198 | 3.0 | 8.0 | 0.00 | 0.00 | 0.00 | 70 | 1015.3 |
| 20260901162423 | 65 | 239 | 4.0 | 8.0 | 0.00 | 0.00 | 0.00 | 70 | 1015.3 |
| 20260901162322 | 65 | 221 | 4.0 | 9.0 | 0.00 | 0.00 | 0.00 | 70 | 1015.3 |
| 20260901162222 | 65 | 221 | 4.0 | 9.0 | 0.00 | 0.00 | 0.00 | 70 | 1015.3 |
| 20260901162123 | 65 | 166 | 4.0 | 9.0 | 0.00 | 0.00 | 0.00 | 70 | 1015.4 |
| 20260901162025 | 65 | 172 | 4.0 | 10.0 | 0.00 | 0.00 | 0.00 | 70 | 1015.3 |
| 20260901161917 | 65 | 163 | 4.0 | 10.0 | 0.00 | 0.00 | 0.00 | 70 | 1015.3 |
| 20260901161817 | 65 | 163 | 3.0 | 10.0 | 0.00 | 0.00 | 0.00 | 71 | 1015.3 |
| 20260901161740 | 65 | 231 | 4.0 | 10.0 | 0.00 | 0.00 | 0.00 | 71 | 1015.4 |
| 20260901161716 | 65 | 150 | 3.0 | 10.0 | 0.00 | 0.00 | 0.00 | 71 | 1015.3 |
| 20260901161616 | 65 | 190 | 3.0 | 10.0 | 0.00 | 0.00 | 0.00 | 70 | 1015.3 |
| 20260901161523 | 65 | 231 | 4.0 | 10.0 | 0.00 | 0.00 | 0.00 | 71 | 1015.4 |
| 20260901161410 | 65 | 208 | 4.0 | 10.0 | 0.00 | 0.00 | 0.00 | 70 | 1015.4 |
| 20260901161311 | 65 | 225 | 4.0 | 10.0 | 0.00 | 0.00 | 0.00 | 70 | 1015.3 |
| 20260901161211 | 65 | 233 | 3.0 | 10.0 | 0.00 | 0.00 | 0.00 | 70 | 1015.4 |
| 20260901161111 | 65 | 136 | 3.0 | 9.0 | 0.00 | 0.00 | 0.00 | 71 | 1015.2 |
| 20260901161012 | 65 | 193 | 3.0 | 8.0 | 0.00 | 0.00 | 0.00 | 70 | 1015.3 |
| 20260901160904 | 65 | 232 | 3.0 | 8.0 | 0.00 | 0.00 | 0.00 | 70 | 1015.4 |
| 20260901160804 | 65 | 138 | 3.0 | 8.0 | 0.00 | 0.00 | 0.00 | 70 | 1015.4 |
| 20260901160729 | 65 | 162 | 3.0 | 8.0 | 0.00 | 0.00 | 0.00 | 70 | 1015.4 |
| 20260901160704 | 65 | 210 | 3.0 | 8.0 | 0.00 | 0.00 | 0.00 | 70 | 1015.3 |
| 20260901160621 | 65 | 236 | 3.0 | 8.0 | 0.00 | 0.00 | 0.00 | 70 | 1015.3 |
| 20260901160610 | 65 | 162 | 3.0 | 8.0 | 0.00 | 0.00 | 0.00 | 70 | 1015.4 |
| 20260901160401 | 65 | 177 | 3.0 | 7.0 | 0.00 | 0.00 | 0.00 | 70 | 1015.3 |
| 20260901160258 | 65 | 104 | 3.0 | 7.0 | 0.00 | 0.00 | 0.00 | 70 | 1015.3 |
| 20260901160158 | 65 | 213 | 3.0 | 7.0 | 0.00 | 0.00 | 0.00 | 71 | 1015.3 |
| 20260901160058 | 65 | 139 | 3.0 | 7.0 | 0.00 | 0.00 | 0.00 | 71 | 1015.3 |
| 20260901160003 | 65 | 127 | 3.0 | 7.0 | 0.00 | 0.00 | 0.00 | 71 | 1015.3 |
| 20260901155958 | 65 | 177 | 3.0 | 7.0 | 0.00 | 0.00 | 0.00 | 71 | 1015.3 |
| 20260901155856 | 64 | 115 | 3.0 | 10.0 | 0.00 | 0.00 | 0.00 | 71 | 1015.3 |
| 20260901155756 | 64 | 130 | 3.0 | 10.0 | 0.00 | 0.00 | 0.00 | 71 | 1015.2 |
| 20260901155655 | 64 | 133 | 3.0 | 10.0 | 0.00 | 0.00 | 0.00 | 71 | 1015.2 |
| 20260901155555 | 64 | 141 | 3.0 | 10.0 | 0.00 | 0.00 | 0.00 | 71 | 1015.2 |
| 20260901155459 | 64 | 205 | 3.0 | 10.0 | 0.00 | 0.00 | 0.00 | 71 | 1015.2 |
| 20260901155451 | 64 | 198 | 3.0 | 10.0 | 0.00 | 0.00 | 0.00 | 71 | 1015.2 |
| 20260901155352 | 64 | 221 | 3.0 | 10.0 | 0.00 | 0.00 | 0.00 | 71 | 1015.2 |
| 20260901155250 | 64 | 208 | 3.0 | 10.0 | 0.00 | 0.00 | 0.00 | 71 | 1015.2 |
| 20260901155150 | 64 | 242 | 3.0 | 10.0 | 0.00 | 0.00 | 0.00 | 72 | 1015.2 |
| 20260901155050 | 64 | 187 | 3.0 | 10.0 | 0.00 | 0.00 | 0.00 | 72 | 1015.2 |
| 20260901154959 | 64 | 178 | 3.0 | 10.0 | 0.00 | 0.00 | 0.00 | 72 | 1015.2 |
| 20260901154946 | 64 | 134 | 3.0 | 10.0 | 0.00 | 0.00 | 0.00 | 72 | 1015.2 |
| 20260901154840 | 64 | 243 | 2.0 | 9.0 | 0.00 | 0.00 | 0.00 | 73 | 1015.2 |
| 20260901154741 | 64 | 134 | 2.0 | 6.0 | 0.00 | 0.00 | 0.00 | 73 | 1015.2 |
| 20260901154640 | 63 | 200 | 2.0 | 7.0 | 0.00 | 0.00 | 0.00 | 73 | 1015.1 |
| 20260901154541 | 63 | 224 | 3.0 | 7.0 | 0.00 | 0.00 | 0.00 | 74 | 1015.2 |
| 20260901154500 | 63 | 161 | 3.0 | 7.0 | 0.00 | 0.00 | 0.00 | 74 | 1015.1 |
| 20260901154440 | 63 | 207 | 3.0 | 7.0 | 0.00 | 0.00 | 0.00 | 74 | 1015.1 |
| 20260901154337 | 63 | 166 | 3.0 | 7.0 | 0.00 | 0.00 | 0.00 | 74 | 1015.1 |
| 20260901154237 | 63 | 139 | 3.0 | 7.0 | 0.00 | 0.00 | 0.00 | 74 | 1015.1 |
| 20260901154137 | 63 | 161 | 3.0 | 7.0 | 0.00 | 0.00 | 0.00 | 75 | 1015.1 |
| 20260901154037 | 62 | 134 | 3.0 | 7.0 | 0.00 | 0.00 | 0.00 | 75 | 1015.1 |
| 20260901153957 | 62 | 124 | 3.0 | 7.0 | 0.00 | 0.00 | 0.00 | 75 | 1015.1 |
| 20260901153934 | 62 | 143 | 3.0 | 7.0 | 0.00 | 0.00 | 0.00 | 75 | 1015.1 |
| 20260901153830 | 62 | 163 | 3.0 | 7.0 | 0.00 | 0.00 | 0.00 | 75 | 1015.1 |
| 20260901153728 | 62 | 141 | 4.0 | 7.0 | 0.00 | 0.00 | 0.00 | 75 | 1015.0 |
| 20260901153628 | 62 | 152 | 4.0 | 10.0 | 0.00 | 0.00 | 0.00 | 76 | 1015.0 |
| 20260901153529 | 62 | 161 | 4.0 | 10.0 | 0.00 | 0.00 | 0.00 | 76 | 1015.0 |
| 20260901153458 | 62 | 143 | 4.0 | 10.0 | 0.00 | 0.00 | 0.00 | 76 | 1015.0 |
| 20260901153428 | 62 | 136 | 4.0 | 10.0 | 0.00 | 0.00 | 0.00 | 77 | 1015.0 |
| 20260901153324 | 61 | 134 | 4.0 | 10.0 | 0.00 | 0.00 | 0.00 | 76 | 1015.1 |
| 20260901153222 | 61 | 225 | 4.0 | 10.0 | 0.00 | 0.00 | 0.00 | 77 | 1015.0 |
| 20260901153122 | 61 | 132 | 4.0 | 10.0 | 0.00 | 0.00 | 0.00 | 77 | 1015.0 |
| 20260901153024 | 61 | 132 | 4.0 | 10.0 | 0.00 | 0.00 | 0.00 | 78 | 1015.0 |
| 20260901152957 | 61 | 141 | 4.0 | 10.0 | 0.00 | 0.00 | 0.00 | 78 | 1015.0 |
| 20260901152923 | 61 | 141 | 4.0 | 10.0 | 0.00 | 0.00 | 0.00 | 77 | 1015.0 |
| 20260901152817 | 61 | 149 | 3.0 | 10.0 | 0.00 | 0.00 | 0.00 | 77 | 1015.0 |
| 20260901152716 | 61 | 139 | 3.0 | 10.0 | 0.00 | 0.00 | 0.00 | 78 | 1015.0 |
| 20260901152617 | 60 | 138 | 3.0 | 7.0 | 0.00 | 0.00 | 0.00 | 78 | 1014.9 |
| 20260901152517 | 60 | 159 | 2.0 | 6.0 | 0.00 | 0.00 | 0.00 | 79 | 1014.9 |
| 20260901152457 | 60 | 112 | 2.0 | 6.0 | 0.00 | 0.00 | 0.00 | 79 | 1014.9 |
| 20260901152416 | 60 | 117 | 2.0 | 6.0 | 0.00 | 0.00 | 0.00 | 79 | 1014.8 |
| 20260901152311 | 60 | 226 | 2.0 | 6.0 | 0.00 | 0.00 | 0.00 | 79 | 1014.9 |
| 20260901152218 | 60 | 200 | 2.0 | 6.0 | 0.00 | 0.00 | 0.00 | 79 | 1014.8 |
| 20260901152210 | 60 | 122 | 2.0 | 6.0 | 0.00 | 0.00 | 0.00 | 79 | 1014.9 |
| 20260901152119 | 60 | 154 | 2.0 | 6.0 | 0.00 | 0.00 | 0.00 | 79 | 1014.9 |
| 20260901152111 | 60 | 200 | 2.0 | 6.0 | 0.00 | 0.00 | 0.00 | 79 | 1014.8 |
| 20260901151910 | 60 | 155 | 2.0 | 6.0 | 0.00 | 0.00 | 0.00 | 79 | 1014.8 |
| 20260901151807 | 60 | 162 | 2.0 | 6.0 | 0.00 | 0.00 | 0.00 | 79 | 1014.8 |
| 20260901151704 | 60 | 130 | 2.0 | 5.0 | 0.00 | 0.00 | 0.00 | 80 | 1014.7 |
| 20260901151604 | 60 | 138 | 2.0 | 5.0 | 0.00 | 0.00 | 0.00 | 80 | 1014.8 |
| 20260901151509 | 60 | 218 | 2.0 | 5.0 | 0.00 | 0.00 | 0.00 | 80 | 1014.7 |
| 20260901151456 | 60 | 226 | 2.0 | 5.0 | 0.00 | 0.00 | 0.00 | 80 | 1014.7 |
| 20260901151404 | 60 | 162 | 2.0 | 5.0 | 0.00 | 0.00 | 0.00 | 80 | 1014.7 |
| 20260901151258 | 60 | 134 | 2.0 | 6.0 | 0.00 | 0.00 | 0.00 | 80 | 1014.7 |
| 20260901151158 | 59 | 115 | 2.0 | 6.0 | 0.00 | 0.00 | 0.00 | 80 | 1014.7 |
| 20260901151059 | 59 | 175 | 2.0 | 6.0 | 0.00 | 0.00 | 0.00 | 80 | 1014.7 |
| 20260901151004 | 59 | 136 | 2.0 | 6.0 | 0.00 | 0.00 | 0.00 | 80 | 1014.7 |
| 20260901150954 | 59 | 136 | 2.0 | 6.0 | 0.00 | 0.00 | 0.00 | 81 | 1014.7 |
| 20260901150858 | 59 | 117 | 2.0 | 6.0 | 0.00 | 0.00 | 0.00 | 81 | 1014.7 |
| 20260901150754 | 59 | 139 | 2.0 | 6.0 | 0.00 | 0.00 | 0.00 | 81 | 1014.7 |
| 20260901150732 | 59 | 138 | 2.0 | 6.0 | 0.00 | 0.00 | 0.00 | 81 | 1014.6 |
| 20260901150652 | 59 | 165 | 2.0 | 6.0 | 0.00 | 0.00 | 0.00 | 81 | 1014.7 |
| 20260901150622 | 59 | 218 | 2.0 | 6.0 | 0.00 | 0.00 | 0.00 | 81 | 1014.7 |
| 20260901150452 | 59 | 141 | 2.0 | 6.0 | 0.00 | 0.00 | 0.00 | 81 | 1014.6 |
| 20260901150351 | 59 | 153 | 2.0 | 6.0 | 0.00 | 0.00 | 0.00 | 81 | 1014.6 |
| 20260901150248 | 59 | 146 | 2.0 | 5.0 | 0.00 | 0.00 | 0.00 | 81 | 1014.6 |
| 20260901150146 | 59 | 89 | 2.0 | 5.0 | 0.00 | 0.00 | 0.00 | 81 | 1014.6 |
| 20260901150047 | 59 | 150 | 2.0 | 5.0 | 0.00 | 0.00 | 0.00 | 81 | 1014.6 |
| 20260901145953 | 59 | 141 | 2.0 | 5.0 | 0.00 | 0.00 | 0.00 | 81 | 1014.6 |
| 20260901145947 | 59 | 143 | 2.0 | 5.0 | 0.00 | 0.00 | 0.00 | 81 | 1014.6 |
| 20260901145846 | 59 | 133 | 2.0 | 6.0 | 0.00 | 0.00 | 0.00 | 81 | 1014.6 |
| 20260901145741 | 59 | 128 | 2.0 | 6.0 | 0.00 | 0.00 | 0.00 | 81 | 1014.6 |
| 20260901145640 | 58 | 211 | 2.0 | 6.0 | 0.00 | 0.00 | 0.00 | 81 | 1014.6 |
| 20260901145542 | 58 | 114 | 2.0 | 6.0 | 0.00 | 0.00 | 0.00 | 81 | 1014.5 |
| 20260901145452 | 58 | 136 | 3.0 | 6.0 | 0.00 | 0.00 | 0.00 | 82 | 1014.5 |
| 20260901145441 | 58 | 124 | 3.0 | 6.0 | 0.00 | 0.00 | 0.00 | 82 | 1014.5 |
| 20260901145340 | 58 | 115 | 3.0 | 6.0 | 0.00 | 0.00 | 0.00 | 82 | 1014.5 |
| 20260901145239 | 58 | 126 | 3.0 | 6.0 | 0.00 | 0.00 | 0.00 | 82 | 1014.5 |
| 20260901145138 | 58 | 180 | 3.0 | 6.0 | 0.00 | 0.00 | 0.00 | 82 | 1014.4 |
| 20260901145039 | 58 | 141 | 3.0 | 6.0 | 0.00 | 0.00 | 0.00 | 82 | 1014.4 |
| 20260901144952 | 58 | 158 | 2.0 | 6.0 | 0.00 | 0.00 | 0.00 | 82 | 1014.4 |
| 20260901144938 | 58 | 127 | 2.0 | 6.0 | 0.00 | 0.00 | 0.00 | 82 | 1014.4 |
| 20260901144838 | 58 | 131 | 2.0 | 6.0 | 0.00 | 0.00 | 0.00 | 82 | 1014.4 |
| 20260901144738 | 58 | 163 | 2.0 | 6.0 | 0.00 | 0.00 | 0.00 | 82 | 1014.4 |
| 20260901144639 | 58 | 132 | 2.0 | 6.0 | 0.00 | 0.00 | 0.00 | 82 | 1014.4 |
| 20260901144539 | 58 | 146 | 2.0 | 6.0 | 0.00 | 0.00 | 0.00 | 83 | 1014.5 |
| 20260901144451 | 58 | 121 | 2.0 | 6.0 | 0.00 | 0.00 | 0.00 | 83 | 1014.5 |
| 20260901144439 | 58 | 84 | 2.0 | 6.0 | 0.00 | 0.00 | 0.00 | 83 | 1014.5 |
| 20260901144338 | 58 | 176 | 2.0 | 6.0 | 0.00 | 0.00 | 0.00 | 83 | 1014.4 |
| 20260901144239 | 58 | 106 | 2.0 | 6.0 | 0.00 | 0.00 | 0.00 | 83 | 1014.4 |
| 20260901144138 | 58 | 150 | 2.0 | 6.0 | 0.00 | 0.00 | 0.00 | 83 | 1014.4 |
| 20260901144040 | 58 | 108 | 3.0 | 7.0 | 0.00 | 0.00 | 0.00 | 83 | 1014.4 |
| 20260901143951 | 58 | 150 | 3.0 | 7.0 | 0.00 | 0.00 | 0.00 | 83 | 1014.3 |
| 20260901143936 | 58 | 120 | 3.0 | 7.0 | 0.00 | 0.00 | 0.00 | 83 | 1014.3 |
| 20260901143837 | 58 | 183 | 3.0 | 7.0 | 0.00 | 0.00 | 0.00 | 83 | 1014.3 |
| 20260901143736 | 57 | 148 | 3.0 | 7.0 | 0.00 | 0.00 | 0.00 | 83 | 1014.3 |
| 20260901143636 | 57 | 139 | 2.0 | 7.0 | 0.00 | 0.00 | 0.00 | 84 | 1014.3 |
| 20260901143532 | 57 | 136 | 2.0 | 7.0 | 0.00 | 0.00 | 0.00 | 84 | 1014.4 |
| 20260901143452 | 57 | 163 | 2.0 | 7.0 | 0.00 | 0.00 | 0.00 | 84 | 1014.3 |
| 20260901143430 | 57 | 167 | 2.0 | 7.0 | 0.00 | 0.00 | 0.00 | 84 | 1014.3 |
| 20260901143332 | 57 | 140 | 2.0 | 7.0 | 0.00 | 0.00 | 0.00 | 84 | 1014.3 |
| 20260901143230 | 57 | 168 | 2.0 | 7.0 | 0.00 | 0.00 | 0.00 | 84 | 1014.3 |
| 20260901143130 | 57 | 155 | 2.0 | 7.0 | 0.00 | 0.00 | 0.00 | 84 | 1014.3 |
| 20260901143029 | 57 | 153 | 2.0 | 7.0 | 0.00 | 0.00 | 0.00 | 85 | 1014.3 |
| 20260901142950 | 56 | 145 | 2.0 | 7.0 | 0.00 | 0.00 | 0.00 | 85 | 1014.3 |
| 20260901142928 | 56 | 150 | 2.0 | 7.0 | 0.00 | 0.00 | 0.00 | 85 | 1014.3 |
| 20260901142828 | 56 | 153 | 2.0 | 7.0 | 0.00 | 0.00 | 0.00 | 85 | 1014.3 |
| 20260901142726 | 56 | 123 | 2.0 | 7.0 | 0.00 | 0.00 | 0.00 | 85 | 1014.2 |
| 20260901142624 | 56 | 136 | 2.0 | 7.0 | 0.00 | 0.00 | 0.00 | 86 | 1014.3 |
| 20260901142524 | 56 | 98 | 2.0 | 7.0 | 0.00 | 0.00 | 0.00 | 86 | 1014.2 |
| 20260901142503 | 56 | 92 | 2.0 | 7.0 | 0.00 | 0.00 | 0.00 | 86 | 1014.2 |
| 20260901142418 | 56 | 162 | 2.0 | 7.0 | 0.00 | 0.00 | 0.00 | 86 | 1014.2 |
| 20260901142319 | 56 | 132 | 2.0 | 7.0 | 0.00 | 0.00 | 0.00 | 86 | 1014.2 |
| 20260901142219 | 56 | 157 | 2.0 | 7.0 | 0.00 | 0.00 | 0.00 | 86 | 1014.2 |
| 20260901142118 | 56 | 148 | 1.0 | 7.0 | 0.00 | 0.00 | 0.00 | 86 | 1014.2 |
| 20260901142016 | 56 | 162 | 1.0 | 4.0 | 0.00 | 0.00 | 0.00 | 86 | 1014.2 |
| 20260901141949 | 56 | 129 | 1.0 | 4.0 | 0.00 | 0.00 | 0.00 | 86 | 1014.2 |
| 20260901141916 | 56 | 163 | 1.0 | 4.0 | 0.00 | 0.00 | 0.00 | 86 | 1014.1 |
| 20260901141815 | 56 | 93 | 1.0 | 4.0 | 0.00 | 0.00 | 0.00 | 86 | 1014.1 |
| 20260901141715 | 55 | 129 | 1.0 | 4.0 | 0.00 | 0.00 | 0.00 | 86 | 1014.1 |
| 20260901141706 | 55 | 127 | 1.0 | 4.0 | 0.00 | 0.00 | 0.00 | 87 | 1014.1 |
| 20260901141612 | 55 | 150 | 1.0 | 4.0 | 0.00 | 0.00 | 0.00 | 86 | 1014.1 |
| 20260901141600 | 55 | 127 | 1.0 | 4.0 | 0.00 | 0.00 | 0.00 | 87 | 1014.1 |
| 20260901141410 | 55 | 102 | 1.0 | 4.0 | 0.00 | 0.00 | 0.00 | 87 | 1014.1 |
| 20260901141310 | 55 | 113 | 1.0 | 4.0 | 0.00 | 0.00 | 0.00 | 87 | 1014.0 |
| 20260901141208 | 55 | 117 | 1.0 | 4.0 | 0.00 | 0.00 | 0.00 | 87 | 1014.0 |
| 20260901141107 | 55 | 111 | 1.0 | 4.0 | 0.00 | 0.00 | 0.00 | 87 | 1014.0 |
| 20260901141005 | 55 | 111 | 1.0 | 4.0 | 0.00 | 0.00 | 0.00 | 87 | 1013.9 |
| 20260901140949 | 55 | 98 | 1.0 | 4.0 | 0.00 | 0.00 | 0.00 | 87 | 1013.9 |
| 20260901140904 | 55 | 106 | 1.0 | 4.0 | 0.00 | 0.00 | 0.00 | 87 | 1013.9 |
| 20260901140802 | 55 | 129 | 1.0 | 4.0 | 0.00 | 0.00 | 0.00 | 87 | 1013.9 |
| 20260901140707 | 55 | 161 | 1.0 | 4.0 | 0.00 | 0.00 | 0.00 | 87 | 1013.8 |
| 20260901140702 | 55 | 143 | 1.0 | 4.0 | 0.00 | 0.00 | 0.00 | 87 | 1013.8 |
| 20260901140607 | 55 | 160 | 1.0 | 4.0 | 0.00 | 0.00 | 0.00 | 87 | 1013.8 |
| 20260901140558 | 55 | 161 | 1.0 | 4.0 | 0.00 | 0.00 | 0.00 | 87 | 1013.8 |
| 20260901140355 | 55 | 162 | 1.0 | 4.0 | 0.00 | 0.00 | 0.00 | 87 | 1013.8 |
| 20260901140254 | 55 | 94 | 1.0 | 4.0 | 0.00 | 0.00 | 0.00 | 87 | 1013.8 |
| 20260901140155 | 55 | 117 | 1.0 | 4.0 | 0.00 | 0.00 | 0.00 | 87 | 1013.7 |
| 20260901140054 | 55 | 101 | 1.0 | 4.0 | 0.00 | 0.00 | 0.00 | 87 | 1013.7 |
| 20260901135954 | 55 | 153 | 1.0 | 4.0 | 0.00 | 0.00 | 0.00 | 87 | 1013.7 |
| 20260901135949 | 55 | 148 | 1.0 | 4.0 | 0.00 | 0.00 | 0.00 | 87 | 1013.7 |
| 20260901135848 | 55 | 97 | 1.0 | 4.0 | 0.00 | 0.00 | 0.00 | 87 | 1013.6 |
| 20260901135749 | 55 | 113 | 1.0 | 4.0 | 0.00 | 0.00 | 0.00 | 87 | 1013.6 |
| 20260901135648 | 55 | 137 | 2.0 | 4.0 | 0.00 | 0.00 | 0.00 | 87 | 1013.6 |
| 20260901135548 | 55 | 117 | 2.0 | 4.0 | 0.00 | 0.00 | 0.00 | 87 | 1013.6 |
| 20260901135451 | 55 | 115 | 2.0 | 4.0 | 0.00 | 0.00 | 0.00 | 87 | 1013.6 |
| 20260901135446 | 55 | 98 | 2.0 | 4.0 | 0.00 | 0.00 | 0.00 | 87 | 1013.6 |
| 20260901135346 | 55 | 150 | 2.0 | 4.0 | 0.00 | 0.00 | 0.00 | 87 | 1013.6 |
| 20260901135245 | 55 | 104 | 2.0 | 4.0 | 0.00 | 0.00 | 0.00 | 87 | 1013.6 |
| 20260901135220 | 55 | 104 | 1.0 | 4.0 | 0.00 | 0.00 | 0.00 | 87 | 1013.5 |
| 20260901135144 | 55 | 191 | 2.0 | 4.0 | 0.00 | 0.00 | 0.00 | 87 | 1013.5 |
| 20260901135045 | 55 | 106 | 2.0 | 4.0 | 0.00 | 0.00 | 0.00 | 87 | 1013.5 |
| 20260901134944 | 55 | 110 | 1.0 | 4.0 | 0.00 | 0.00 | 0.00 | 87 | 1013.5 |
| 20260901134844 | 55 | 143 | 1.0 | 4.0 | 0.00 | 0.00 | 0.00 | 87 | 1013.5 |
| 20260901134745 | 55 | 121 | 1.0 | 4.0 | 0.00 | 0.00 | 0.00 | 87 | 1013.4 |
| 20260901134644 | 55 | 107 | 1.0 | 4.0 | 0.00 | 0.00 | 0.00 | 87 | 1013.5 |
| 20260901134545 | 55 | 114 | 1.0 | 3.0 | 0.00 | 0.00 | 0.00 | 87 | 1013.5 |
| 20260901134444 | 55 | 141 | 1.0 | 3.0 | 0.00 | 0.00 | 0.00 | 87 | 1013.5 |
| 20260901134342 | 55 | 146 | 1.0 | 4.0 | 0.00 | 0.00 | 0.00 | 87 | 1013.5 |
| 20260901134240 | 55 | 129 | 1.0 | 4.0 | 0.00 | 0.00 | 0.00 | 87 | 1013.5 |
| 20260901134140 | 55 | 143 | 1.0 | 4.0 | 0.00 | 0.00 | 0.00 | 87 | 1013.5 |
| 20260901133938 | 55 | 155 | 1.0 | 4.0 | 0.00 | 0.00 | 0.00 | 88 | 1013.5 |
| 20260901133837 | 55 | 139 | 1.0 | 4.0 | 0.00 | 0.00 | 0.00 | 87 | 1013.4 |
| 20260901133734 | 55 | 177 | 1.0 | 4.0 | 0.00 | 0.00 | 0.00 | 88 | 1013.5 |
| 20260901133634 | 55 | 148 | 1.0 | 4.0 | 0.00 | 0.00 | 0.00 | 88 | 1013.5 |
| 20260901133533 | 55 | 117 | 1.0 | 4.0 | 0.00 | 0.00 | 0.00 | 88 | 1013.4 |
| 20260901133446 | 55 | 123 | 1.0 | 4.0 | 0.00 | 0.00 | 0.00 | 88 | 1013.4 |
| 20260901133433 | 55 | 122 | 1.0 | 4.0 | 0.00 | 0.00 | 0.00 | 88 | 1013.4 |
| 20260901133335 | 55 | 87 | 1.0 | 4.0 | 0.00 | 0.00 | 0.00 | 88 | 1013.4 |
| 20260901133231 | 55 | 123 | 1.0 | 4.0 | 0.00 | 0.00 | 0.00 | 88 | 1013.4 |
| 20260901133128 | 55 | 131 | 1.0 | 4.0 | 0.00 | 0.00 | 0.00 | 88 | 1013.4 |
| 20260901133029 | 55 | 136 | 1.0 | 3.0 | 0.00 | 0.00 | 0.00 | 88 | 1013.4 |
| 20260901132928 | 55 | 136 | 1.0 | 3.0 | 0.00 | 0.00 | 0.00 | 88 | 1013.4 |
| 20260901132828 | 55 | 132 | 1.0 | 3.0 | 0.00 | 0.00 | 0.00 | 88 | 1013.4 |
| 20260901132728 | 55 | 129 | 1.0 | 3.0 | 0.00 | 0.00 | 0.00 | 88 | 1013.4 |
| 20260901132626 | 55 | 160 | 1.0 | 3.0 | 0.00 | 0.00 | 0.00 | 88 | 1013.5 |
| 20260901132528 | 55 | 141 | 1.0 | 3.0 | 0.00 | 0.00 | 0.00 | 88 | 1013.5 |
| 20260901132424 | 55 | 132 | 1.0 | 3.0 | 0.00 | 0.00 | 0.00 | 88 | 1013.5 |
| 20260901132325 | 55 | 116 | 1.0 | 4.0 | 0.00 | 0.00 | 0.00 | 88 | 1013.5 |
| 20260901132223 | 55 | 138 | 1.0 | 4.0 | 0.00 | 0.00 | 0.00 | 88 | 1013.5 |
| 20260901132122 | 55 | 214 | 1.0 | 4.0 | 0.00 | 0.00 | 0.00 | 88 | 1013.5 |
| 20260901132024 | 55 | 125 | 1.0 | 4.0 | 0.00 | 0.00 | 0.00 | 88 | 1013.4 |
| 20260901131923 | 55 | 126 | 1.0 | 4.0 | 0.00 | 0.00 | 0.00 | 88 | 1013.4 |
| 20260901131822 | 55 | 143 | 1.0 | 4.0 | 0.00 | 0.00 | 0.00 | 88 | 1013.4 |
| 20260901131718 | 55 | 139 | 1.0 | 4.0 | 0.00 | 0.00 | 0.00 | 88 | 1013.4 |
| 20260901131617 | 55 | 147 | 1.0 | 4.0 | 0.00 | 0.00 | 0.00 | 88 | 1013.4 |
| 20260901131518 | 55 | 146 | 1.0 | 4.0 | 0.00 | 0.00 | 0.00 | 88 | 1013.4 |
| 20260901131439 | 55 | 109 | 1.0 | 4.0 | 0.00 | 0.00 | 0.00 | 88 | 1013.4 |
| 20260901131415 | 55 | 104 | 1.0 | 4.0 | 0.00 | 0.00 | 0.00 | 88 | 1013.4 |
| 20260901131314 | 55 | 155 | 1.0 | 3.0 | 0.00 | 0.00 | 0.00 | 88 | 1013.3 |
| 20260901131209 | 55 | 146 | 1.0 | 3.0 | 0.00 | 0.00 | 0.00 | 88 | 1013.4 |
| 20260901131110 | 55 | 174 | 1.0 | 3.0 | 0.00 | 0.00 | 0.00 | 88 | 1013.3 |
| 20260901131008 | 55 | 136 | 1.0 | 4.0 | 0.00 | 0.00 | 0.00 | 88 | 1013.3 |
| 20260901130940 | 55 | 136 | 1.0 | 4.0 | 0.00 | 0.00 | 0.00 | 88 | 1013.3 |
| 20260901130906 | 55 | 129 | 1.0 | 4.0 | 0.00 | 0.00 | 0.00 | 88 | 1013.3 |
| 20260901130806 | 55 | 110 | 1.0 | 4.0 | 0.00 | 0.00 | 0.00 | 88 | 1013.3 |
| 20260901130701 | 55 | 107 | 1.0 | 4.0 | 0.00 | 0.00 | 0.00 | 88 | 1013.3 |
| 20260901130600 | 55 | 142 | 1.0 | 4.0 | 0.00 | 0.00 | 0.00 | 88 | 1013.2 |
| 20260901130500 | 55 | 143 | 1.0 | 4.0 | 0.00 | 0.00 | 0.00 | 88 | 1013.2 |
| 20260901130441 | 55 | 133 | 1.0 | 4.0 | 0.00 | 0.00 | 0.00 | 88 | 1013.2 |
| 20260901130400 | 55 | 100 | 1.0 | 4.0 | 0.00 | 0.00 | 0.00 | 88 | 1013.2 |
| 20260901130300 | 55 | 101 | 1.0 | 4.0 | 0.00 | 0.00 | 0.00 | 88 | 1013.2 |
| 20260901130157 | 55 | 101 | 1.0 | 4.0 | 0.00 | 0.00 | 0.00 | 88 | 1013.1 |
| 20260901130057 | 55 | 118 | 1.0 | 4.0 | 0.00 | 0.00 | 0.00 | 88 | 1013.2 |
| 20260901125956 | 55 | 103 | 1.0 | 2.0 | 0.00 | 0.00 | 0.00 | 88 | 1013.1 |
| 20260901125933 | 55 | 108 | 1.0 | 2.0 | 0.00 | 0.00 | 0.00 | 88 | 1013.1 |
| 20260901125857 | 55 | 109 | 1.0 | 2.0 | 0.00 | 0.00 | 0.00 | 88 | 1013.2 |
| 20260901125754 | 55 | 108 | 1.0 | 2.0 | 0.00 | 0.00 | 0.00 | 88 | 1013.2 |
| 20260901125657 | 55 | 145 | 1.0 | 3.0 | 0.00 | 0.00 | 0.00 | 87 | 1013.2 |
| 20260901125652 | 55 | 109 | 1.0 | 3.0 | 0.00 | 0.00 | 0.00 | 88 | 1013.1 |
| 20260901125553 | 55 | 147 | 1.0 | 3.0 | 0.00 | 0.00 | 0.00 | 88 | 1013.2 |
| 20260901125539 | 55 | 145 | 1.0 | 3.0 | 0.00 | 0.00 | 0.00 | 87 | 1013.2 |
| 20260901125350 | 55 | 125 | 1.0 | 3.0 | 0.00 | 0.00 | 0.00 | 87 | 1013.2 |
| 20260901125248 | 55 | 166 | 1.0 | 5.0 | 0.00 | 0.00 | 0.00 | 87 | 1013.1 |
| 20260901125144 | 55 | 167 | 1.0 | 5.0 | 0.00 | 0.00 | 0.00 | 87 | 1013.1 |
| 20260901125044 | 55 | 127 | 1.0 | 5.0 | 0.00 | 0.00 | 0.00 | 87 | 1013.1 |
| 20260901124944 | 55 | 103 | 1.0 | 5.0 | 0.00 | 0.00 | 0.00 | 87 | 1013.1 |
| 20260901124921 | 55 | 96 | 1.0 | 5.0 | 0.00 | 0.00 | 0.00 | 87 | 1013.1 |
| 20260901124844 | 55 | 158 | 1.0 | 5.0 | 0.00 | 0.00 | 0.00 | 87 | 1013.1 |
| 20260901124743 | 55 | 158 | 2.0 | 5.0 | 0.00 | 0.00 | 0.00 | 87 | 1013.1 |
| 20260901124650 | 55 | 146 | 2.0 | 5.0 | 0.00 | 0.00 | 0.00 | 87 | 1013.0 |
| 20260901124646 | 55 | 148 | 2.0 | 5.0 | 0.00 | 0.00 | 0.00 | 87 | 1013.0 |
| 20260901124555 | 55 | 99 | 2.0 | 5.0 | 0.00 | 0.00 | 0.00 | 87 | 1013.0 |
| 20260901124536 | 55 | 98 | 2.0 | 5.0 | 0.00 | 0.00 | 0.00 | 87 | 1013.0 |
| 20260901124337 | 55 | 162 | 2.0 | 4.0 | 0.00 | 0.00 | 0.00 | 87 | 1013.0 |
| 20260901124236 | 55 | 118 | 2.0 | 4.0 | 0.00 | 0.00 | 0.00 | 87 | 1013.0 |
| 20260901124132 | 55 | 131 | 1.0 | 4.0 | 0.00 | 0.00 | 0.00 | 87 | 1013.0 |
| 20260901124030 | 55 | 116 | 1.0 | 4.0 | 0.00 | 0.00 | 0.00 | 87 | 1013.0 |
| 20260901123930 | 55 | 115 | 1.0 | 5.0 | 0.00 | 0.00 | 0.00 | 87 | 1013.0 |
| 20260901123909 | 55 | 112 | 2.0 | 5.0 | 0.00 | 0.00 | 0.00 | 87 | 1013.0 |
| 20260901123831 | 55 | 111 | 2.0 | 5.0 | 0.00 | 0.00 | 0.00 | 87 | 1013.0 |
| 20260901123730 | 55 | 115 | 1.0 | 5.0 | 0.00 | 0.00 | 0.00 | 87 | 1013.0 |
| 20260901123626 | 55 | 103 | 1.0 | 5.0 | 0.00 | 0.00 | 0.00 | 87 | 1013.0 |
| 20260901123527 | 55 | 90 | 1.0 | 5.0 | 0.00 | 0.00 | 0.00 | 86 | 1013.0 |
| 20260901123426 | 55 | 107 | 1.0 | 5.0 | 0.00 | 0.00 | 0.00 | 86 | 1013.0 |
| 20260901123403 | 55 | 107 | 2.0 | 5.0 | 0.00 | 0.00 | 0.00 | 86 | 1013.1 |
| 20260901123327 | 55 | 108 | 2.0 | 5.0 | 0.00 | 0.00 | 0.00 | 86 | 1013.1 |
| 20260901123224 | 55 | 107 | 2.0 | 5.0 | 0.00 | 0.00 | 0.00 | 86 | 1013.0 |
| 20260901123118 | 55 | 107 | 3.0 | 6.0 | 0.00 | 0.00 | 0.00 | 86 | 1013.0 |
| 20260901123025 | 55 | 108 | 3.0 | 6.0 | 0.00 | 0.00 | 0.00 | 86 | 1013.0 |
| 20260901122918 | 55 | 112 | 3.0 | 6.0 | 0.00 | 0.00 | 0.00 | 86 | 1013.0 |
| 20260901122900 | 55 | 98 | 3.0 | 6.0 | 0.00 | 0.00 | 0.00 | 86 | 1013.0 |
| 20260901122818 | 55 | 102 | 3.0 | 6.0 | 0.00 | 0.00 | 0.00 | 86 | 1013.0 |
| 20260901122718 | 56 | 74 | 2.0 | 6.0 | 0.00 | 0.00 | 0.00 | 86 | 1013.0 |
| 20260901122615 | 56 | 118 | 2.0 | 6.0 | 0.00 | 0.00 | 0.00 | 86 | 1013.0 |
| 20260901122512 | 56 | 114 | 2.0 | 6.0 | 0.00 | 0.00 | 0.00 | 86 | 1012.9 |
| 20260901122413 | 56 | 113 | 2.0 | 6.0 | 0.00 | 0.00 | 0.00 | 86 | 1012.9 |
| 20260901122352 | 56 | 80 | 2.0 | 6.0 | 0.00 | 0.00 | 0.00 | 86 | 1012.9 |
| 20260901122313 | 56 | 90 | 2.0 | 6.0 | 0.00 | 0.00 | 0.00 | 86 | 1012.9 |
| 20260901122212 | 56 | 115 | 2.0 | 6.0 | 0.00 | 0.00 | 0.00 | 86 | 1012.9 |
| 20260901122106 | 56 | 103 | 1.0 | 5.0 | 0.00 | 0.00 | 0.00 | 86 | 1012.8 |
| 20260901122006 | 56 | 129 | 1.0 | 5.0 | 0.00 | 0.00 | 0.00 | 86 | 1012.9 |
| 20260901121906 | 56 | 95 | 1.0 | 4.0 | 0.00 | 0.00 | 0.00 | 86 | 1012.9 |
| 20260901121845 | 56 | 127 | 1.0 | 4.0 | 0.00 | 0.00 | 0.00 | 86 | 1012.9 |
| 20260901121807 | 56 | 103 | 1.0 | 4.0 | 0.00 | 0.00 | 0.00 | 86 | 1012.9 |
| 20260901121706 | 56 | 127 | 1.0 | 4.0 | 0.00 | 0.00 | 0.00 | 86 | 1012.9 |
| 20260901121607 | 56 | 126 | 1.0 | 4.0 | 0.00 | 0.00 | 0.00 | 86 | 1012.9 |
| 20260901121506 | 56 | 139 | 1.0 | 4.0 | 0.00 | 0.00 | 0.00 | 86 | 1012.9 |
| 20260901121339 | 56 | 139 | 1.0 | 4.0 | 0.00 | 0.00 | 0.00 | 86 | 1012.9 |
| 20260901121302 | 56 | 131 | 1.0 | 4.0 | 0.00 | 0.00 | 0.00 | 86 | 1012.9 |
| 20260901121201 | 56 | 131 | 1.0 | 4.0 | 0.00 | 0.00 | 0.00 | 86 | 1012.9 |
| 20260901121055 | 56 | 131 | 1.0 | 4.0 | 0.00 | 0.00 | 0.00 | 86 | 1012.9 |
| 20260901120954 | 56 | 124 | 1.0 | 4.0 | 0.00 | 0.00 | 0.00 | 86 | 1013.0 |
| 20260901120854 | 56 | 138 | 1.0 | 3.0 | 0.00 | 0.00 | 0.00 | 86 | 1012.9 |
| 20260901120834 | 56 | 139 | 1.0 | 3.0 | 0.00 | 0.00 | 0.00 | 86 | 1012.9 |
| 20260901120755 | 56 | 138 | 1.0 | 3.0 | 0.00 | 0.00 | 0.00 | 86 | 1013.0 |
| 20260901120654 | 56 | 162 | 1.0 | 3.0 | 0.00 | 0.00 | 0.00 | 86 | 1013.0 |
| 20260901120552 | 56 | 135 | 1.0 | 3.0 | 0.00 | 0.00 | 0.00 | 86 | 1013.0 |
| 20260901120548 | 56 | 136 | 1.0 | 3.0 | 0.00 | 0.00 | 0.00 | 86 | 1013.0 |
| 20260901120448 | 56 | 136 | 1.0 | 3.0 | 0.00 | 0.00 | 0.00 | 86 | 1013.0 |
| 20260901120438 | 56 | 135 | 1.0 | 3.0 | 0.00 | 0.00 | 0.00 | 86 | 1013.0 |
| 20260901120248 | 56 | 126 | 1.0 | 3.0 | 0.00 | 0.00 | 0.00 | 86 | 1012.9 |
| 20260901120148 | 56 | 121 | 1.0 | 3.0 | 0.00 | 0.00 | 0.00 | 86 | 1012.9 |
| 20260901120052 | 56 | 210 | 1.0 | 3.0 | 0.00 | 0.00 | 0.00 | 85 | 1013.0 |
| 20260901120046 | 56 | 133 | 1.0 | 3.0 | 0.00 | 0.00 | 0.00 | 86 | 1013.0 |
| 20260901115946 | 56 | 139 | 1.0 | 3.0 | 0.00 | 0.00 | 0.00 | 85 | 1012.9 |
| 20260901115936 | 56 | 210 | 1.0 | 3.0 | 0.00 | 0.00 | 0.00 | 86 | 1013.0 |
| 20260901115642 | 56 | 121 | 1.0 | 3.0 | 0.00 | 0.00 | 0.00 | 85 | 1012.9 |
| 20260901115542 | 56 | 136 | 1.0 | 3.0 | 0.00 | 0.00 | 0.00 | 85 | 1012.9 |
| 20260901115440 | 56 | 129 | 1.0 | 3.0 | 0.00 | 0.00 | 0.00 | 85 | 1013.0 |
| 20260901115326 | 56 | 136 | 1.0 | 3.0 | 0.00 | 0.00 | 0.00 | 85 | 1013.0 |
| 20260901115239 | 56 | 136 | 1.0 | 3.0 | 0.00 | 0.00 | 0.00 | 85 | 1013.0 |
| 20260901115136 | 56 | 136 | 2.0 | 3.0 | 0.00 | 0.00 | 0.00 | 85 | 1012.9 |
| 20260901115031 | 56 | 136 | 2.0 | 3.0 | 0.00 | 0.00 | 0.00 | 85 | 1012.9 |
| 20260901114930 | 56 | 139 | 2.0 | 3.0 | 0.00 | 0.00 | 0.00 | 85 | 1012.9 |
| 20260901114824 | 56 | 139 | 2.0 | 3.0 | 0.00 | 0.00 | 0.00 | 85 | 1012.9 |
| 20260901114730 | 56 | 162 | 2.0 | 3.0 | 0.00 | 0.00 | 0.00 | 85 | 1013.0 |
| 20260901114630 | 56 | 129 | 1.0 | 3.0 | 0.00 | 0.00 | 0.00 | 85 | 1013.0 |
| 20260901114526 | 56 | 135 | 1.0 | 3.0 | 0.00 | 0.00 | 0.00 | 85 | 1013.0 |
| 20260901114424 | 56 | 141 | 1.0 | 3.0 | 0.00 | 0.00 | 0.00 | 85 | 1013.0 |
| 20260901114330 | 56 | 164 | 1.0 | 3.0 | 0.00 | 0.00 | 0.00 | 84 | 1013.0 |
| 20260901114324 | 56 | 163 | 1.0 | 3.0 | 0.00 | 0.00 | 0.00 | 84 | 1013.0 |
| 20260901114224 | 56 | 145 | 1.0 | 3.0 | 0.00 | 0.00 | 0.00 | 84 | 1013.0 |
| 20260901114123 | 56 | 169 | 1.0 | 3.0 | 0.00 | 0.00 | 0.00 | 84 | 1013.0 |
| 20260901114026 | 56 | 149 | 1.0 | 3.0 | 0.00 | 0.00 | 0.00 | 84 | 1013.0 |
| 20260901113922 | 56 | 139 | 1.0 | 3.0 | 0.00 | 0.00 | 0.00 | 84 | 1012.9 |
| 20260901113822 | 56 | 150 | 1.0 | 3.0 | 0.00 | 0.00 | 0.00 | 84 | 1012.9 |
| 20260901113720 | 56 | 146 | 1.0 | 4.0 | 0.00 | 0.00 | 0.00 | 84 | 1012.9 |
| 20260901113619 | 56 | 146 | 1.0 | 4.0 | 0.00 | 0.00 | 0.00 | 84 | 1012.8 |
| 20260901113512 | 56 | 113 | 2.0 | 4.0 | 0.00 | 0.00 | 0.00 | 84 | 1012.8 |
| 20260901113412 | 56 | 113 | 2.0 | 4.0 | 0.00 | 0.00 | 0.00 | 84 | 1012.8 |
| 20260901113322 | 56 | 97 | 2.0 | 4.0 | 0.00 | 0.00 | 0.00 | 84 | 1012.8 |
| 20260901113316 | 56 | 120 | 2.0 | 4.0 | 0.00 | 0.00 | 0.00 | 84 | 1012.8 |
| 20260901113213 | 56 | 129 | 2.0 | 4.0 | 0.00 | 0.00 | 0.00 | 84 | 1012.8 |
| 20260901113113 | 56 | 137 | 2.0 | 4.0 | 0.00 | 0.00 | 0.00 | 84 | 1012.8 |
| 20260901113006 | 56 | 129 | 2.0 | 4.0 | 0.00 | 0.00 | 0.00 | 84 | 1012.7 |
| 20260901112907 | 56 | 143 | 2.0 | 4.0 | 0.00 | 0.00 | 0.00 | 84 | 1012.7 |
| 20260901112821 | 56 | 133 | 2.0 | 4.0 | 0.00 | 0.00 | 0.00 | 84 | 1012.7 |
| 20260901112806 | 56 | 132 | 2.0 | 4.0 | 0.00 | 0.00 | 0.00 | 84 | 1012.7 |
| 20260901112707 | 56 | 135 | 2.0 | 4.0 | 0.00 | 0.00 | 0.00 | 84 | 1012.7 |
| 20260901112607 | 56 | 137 | 2.0 | 4.0 | 0.00 | 0.00 | 0.00 | 84 | 1012.8 |
| 20260901112505 | 56 | 125 | 2.0 | 4.0 | 0.00 | 0.00 | 0.00 | 84 | 1012.7 |
| 20260901112404 | 57 | 134 | 2.0 | 4.0 | 0.00 | 0.00 | 0.00 | 84 | 1012.8 |
| 20260901112322 | 57 | 134 | 2.0 | 4.0 | 0.00 | 0.00 | 0.00 | 84 | 1012.8 |
| 20260901112306 | 57 | 131 | 1.0 | 4.0 | 0.00 | 0.00 | 0.00 | 84 | 1012.8 |
| 20260901112202 | 57 | 129 | 1.0 | 4.0 | 0.00 | 0.00 | 0.00 | 84 | 1012.8 |
| 20260901112100 | 57 | 146 | 1.0 | 3.0 | 0.00 | 0.00 | 0.00 | 83 | 1012.7 |
| 20260901111954 | 57 | 136 | 1.0 | 5.0 | 0.00 | 0.00 | 0.00 | 83 | 1012.8 |
| 20260901111855 | 57 | 134 | 2.0 | 7.0 | 0.00 | 0.00 | 0.00 | 83 | 1012.7 |
| 20260901111820 | 57 | 134 | 2.0 | 7.0 | 0.00 | 0.00 | 0.00 | 83 | 1012.7 |
| 20260901111755 | 57 | 134 | 2.0 | 7.0 | 0.00 | 0.00 | 0.00 | 83 | 1012.8 |
| 20260901111654 | 57 | 136 | 2.0 | 7.0 | 0.00 | 0.00 | 0.00 | 83 | 1012.8 |
| 20260901111554 | 57 | 219 | 2.0 | 7.0 | 0.00 | 0.00 | 0.00 | 83 | 1012.7 |
| 20260901111454 | 57 | 218 | 2.0 | 7.0 | 0.00 | 0.00 | 0.00 | 83 | 1012.7 |
| 20260901111352 | 57 | 122 | 2.0 | 7.0 | 0.00 | 0.00 | 0.00 | 83 | 1012.7 |
| 20260901111319 | 57 | 123 | 2.0 | 7.0 | 0.00 | 0.00 | 0.00 | 83 | 1012.7 |
| 20260901111252 | 57 | 138 | 2.0 | 7.0 | 0.00 | 0.00 | 0.00 | 83 | 1012.7 |
| 20260901111151 | 57 | 123 | 3.0 | 7.0 | 0.00 | 0.00 | 0.00 | 83 | 1012.7 |
| 20260901111048 | 57 | 113 | 3.0 | 7.0 | 0.00 | 0.00 | 0.00 | 83 | 1012.7 |
| 20260901110942 | 57 | 154 | 3.0 | 6.0 | 0.00 | 0.00 | 0.00 | 83 | 1012.7 |
| 20260901110843 | 57 | 158 | 3.0 | 6.0 | 0.00 | 0.00 | 0.00 | 83 | 1012.6 |
| 20260901110820 | 57 | 137 | 3.0 | 6.0 | 0.00 | 0.00 | 0.00 | 83 | 1012.6 |
| 20260901110742 | 57 | 135 | 3.0 | 6.0 | 0.00 | 0.00 | 0.00 | 83 | 1012.7 |
| 20260901110642 | 57 | 136 | 3.0 | 6.0 | 0.00 | 0.00 | 0.00 | 83 | 1012.7 |
| 20260901110543 | 57 | 136 | 3.0 | 6.0 | 0.00 | 0.00 | 0.00 | 83 | 1012.7 |
| 20260901110436 | 57 | 148 | 3.0 | 6.0 | 0.00 | 0.00 | 0.00 | 82 | 1012.7 |
| 20260901110336 | 57 | 156 | 3.0 | 6.0 | 0.00 | 0.00 | 0.00 | 82 | 1012.7 |
| 20260901110321 | 57 | 150 | 3.0 | 6.0 | 0.00 | 0.00 | 0.00 | 82 | 1012.7 |
| 20260901110237 | 57 | 144 | 3.0 | 6.0 | 0.00 | 0.00 | 0.00 | 82 | 1012.7 |
| 20260901110137 | 57 | 155 | 3.0 | 6.0 | 0.00 | 0.00 | 0.00 | 83 | 1012.7 |
| 20260901105932 | 57 | 129 | 3.0 | 6.0 | 0.00 | 0.00 | 0.00 | 82 | 1012.7 |
| 20260901105830 | 57 | 121 | 3.0 | 6.0 | 0.00 | 0.00 | 0.00 | 82 | 1012.7 |
| 20260901105820 | 57 | 158 | 3.0 | 6.0 | 0.00 | 0.00 | 0.00 | 82 | 1012.7 |
| 20260901105730 | 57 | 141 | 3.0 | 6.0 | 0.00 | 0.00 | 0.00 | 82 | 1012.7 |
| 20260901105630 | 57 | 149 | 3.0 | 6.0 | 0.00 | 0.00 | 0.00 | 82 | 1012.7 |
| 20260901105531 | 57 | 167 | 3.0 | 6.0 | 0.00 | 0.00 | 0.00 | 82 | 1012.7 |
| 20260901105424 | 57 | 191 | 2.0 | 6.0 | 0.00 | 0.00 | 0.00 | 82 | 1012.7 |
| 20260901105330 | 57 | 141 | 2.0 | 6.0 | 0.00 | 0.00 | 0.00 | 82 | 1012.7 |
| 20260901105319 | 57 | 160 | 2.0 | 6.0 | 0.00 | 0.00 | 0.00 | 82 | 1012.7 |
| 20260901105224 | 57 | 141 | 2.0 | 6.0 | 0.00 | 0.00 | 0.00 | 82 | 1012.7 |
| 20260901105125 | 57 | 141 | 2.0 | 6.0 | 0.00 | 0.00 | 0.00 | 82 | 1012.7 |
| 20260901105026 | 57 | 111 | 2.0 | 7.0 | 0.00 | 0.00 | 0.00 | 82 | 1012.7 |
| 20260901104925 | 57 | 159 | 2.0 | 7.0 | 0.00 | 0.00 | 0.00 | 82 | 1012.7 |
| 20260901104829 | 57 | 138 | 2.0 | 7.0 | 0.00 | 0.00 | 0.00 | 82 | 1012.7 |
| 20260901104819 | 57 | 155 | 2.0 | 7.0 | 0.00 | 0.00 | 0.00 | 82 | 1012.7 |
| 20260901104725 | 57 | 129 | 2.0 | 7.0 | 0.00 | 0.00 | 0.00 | 82 | 1012.7 |
| 20260901104625 | 57 | 136 | 2.0 | 7.0 | 0.00 | 0.00 | 0.00 | 82 | 1012.7 |
| 20260901104525 | 57 | 148 | 2.0 | 7.0 | 0.00 | 0.00 | 0.00 | 82 | 1012.7 |
| 20260901104425 | 57 | 143 | 2.0 | 7.0 | 0.00 | 0.00 | 0.00 | 82 | 1012.7 |
| 20260901104319 | 57 | 132 | 2.0 | 7.0 | 0.00 | 0.00 | 0.00 | 83 | 1012.7 |
| 20260901104224 | 57 | 161 | 2.0 | 7.0 | 0.00 | 0.00 | 0.00 | 83 | 1012.6 |
| 20260901104124 | 57 | 141 | 2.0 | 7.0 | 0.00 | 0.00 | 0.00 | 83 | 1012.5 |
| 20260901104026 | 57 | 108 | 2.0 | 7.0 | 0.00 | 0.00 | 0.00 | 83 | 1012.5 |
| 20260901103925 | 57 | 116 | 2.0 | 7.0 | 0.00 | 0.00 | 0.00 | 82 | 1012.5 |
| 20260901103824 | 57 | 155 | 3.0 | 7.0 | 0.00 | 0.00 | 0.00 | 82 | 1012.5 |
| 20260901103723 | 57 | 143 | 2.0 | 7.0 | 0.00 | 0.00 | 0.00 | 82 | 1012.5 |
| 20260901103622 | 57 | 149 | 3.0 | 7.0 | 0.00 | 0.00 | 0.00 | 82 | 1012.5 |
| 20260901103524 | 57 | 125 | 3.0 | 7.0 | 0.00 | 0.00 | 0.00 | 82 | 1012.5 |
| 20260901103422 | 57 | 162 | 2.0 | 7.0 | 0.00 | 0.00 | 0.00 | 82 | 1012.5 |
| 20260901103324 | 57 | 122 | 2.0 | 7.0 | 0.00 | 0.00 | 0.00 | 82 | 1012.4 |
| 20260901103216 | 58 | 121 | 3.0 | 7.0 | 0.00 | 0.00 | 0.00 | 83 | 1012.4 |
| 20260901103116 | 57 | 143 | 3.0 | 7.0 | 0.00 | 0.00 | 0.00 | 83 | 1012.4 |
| 20260901103022 | 57 | 92 | 2.0 | 6.0 | 0.00 | 0.00 | 0.00 | 83 | 1012.4 |
| 20260901102916 | 57 | 134 | 3.0 | 6.0 | 0.00 | 0.00 | 0.00 | 83 | 1012.4 |
| 20260901102818 | 57 | 160 | 3.0 | 6.0 | 0.00 | 0.00 | 0.00 | 83 | 1012.4 |
| 20260901102712 | 57 | 150 | 3.0 | 6.0 | 0.00 | 0.00 | 0.00 | 83 | 1012.4 |
| 20260901102610 | 57 | 158 | 3.0 | 6.0 | 0.00 | 0.00 | 0.00 | 83 | 1012.4 |
| 20260901102510 | 57 | 148 | 3.0 | 6.0 | 0.00 | 0.00 | 0.00 | 83 | 1012.4 |
| 20260901102411 | 57 | 165 | 3.0 | 6.0 | 0.00 | 0.00 | 0.00 | 83 | 1012.4 |
| 20260901102315 | 57 | 131 | 3.0 | 6.0 | 0.00 | 0.00 | 0.00 | 83 | 1012.5 |
| 20260901102205 | 57 | 195 | 3.0 | 6.0 | 0.00 | 0.00 | 0.00 | 83 | 1012.5 |
| 20260901102104 | 57 | 136 | 2.0 | 6.0 | 0.00 | 0.00 | 0.00 | 83 | 1012.4 |
| 20260901102004 | 57 | 107 | 2.0 | 5.0 | 0.00 | 0.00 | 0.00 | 83 | 1012.4 |
| 20260901101905 | 57 | 134 | 2.0 | 5.0 | 0.00 | 0.00 | 0.00 | 83 | 1012.4 |
| 20260901101806 | 57 | 146 | 2.0 | 5.0 | 0.00 | 0.00 | 0.00 | 83 | 1012.4 |
| 20260901101704 | 57 | 136 | 2.0 | 5.0 | 0.00 | 0.00 | 0.00 | 83 | 1012.4 |
| 20260901101603 | 57 | 141 | 2.0 | 5.0 | 0.00 | 0.00 | 0.00 | 83 | 1012.4 |
| 20260901101502 | 57 | 139 | 2.0 | 5.0 | 0.00 | 0.00 | 0.00 | 83 | 1012.4 |
| 20260901101401 | 57 | 162 | 2.0 | 5.0 | 0.00 | 0.00 | 0.00 | 83 | 1012.4 |
| 20260901101304 | 57 | 162 | 2.0 | 5.0 | 0.00 | 0.00 | 0.00 | 84 | 1012.3 |
| 20260901101258 | 57 | 165 | 2.0 | 5.0 | 0.00 | 0.00 | 0.00 | 84 | 1012.3 |
| 20260901101156 | 57 | 124 | 2.0 | 6.0 | 0.00 | 0.00 | 0.00 | 84 | 1012.4 |
| 20260901101057 | 57 | 214 | 2.0 | 6.0 | 0.00 | 0.00 | 0.00 | 84 | 1012.4 |
| 20260901100956 | 57 | 127 | 2.0 | 6.0 | 0.00 | 0.00 | 0.00 | 84 | 1012.4 |
| 20260901100854 | 57 | 113 | 2.0 | 6.0 | 0.00 | 0.00 | 0.00 | 84 | 1012.5 |
| 20260901100802 | 57 | 111 | 2.0 | 6.0 | 0.00 | 0.00 | 0.00 | 84 | 1012.4 |
| 20260901100752 | 57 | 138 | 2.0 | 6.0 | 0.00 | 0.00 | 0.00 | 84 | 1012.4 |
| 20260901100653 | 57 | 121 | 3.0 | 6.0 | 0.00 | 0.00 | 0.00 | 84 | 1012.4 |
| 20260901100551 | 57 | 146 | 2.0 | 6.0 | 0.00 | 0.00 | 0.00 | 84 | 1012.5 |
| 20260901100451 | 57 | 95 | 2.0 | 6.0 | 0.00 | 0.00 | 0.00 | 84 | 1012.5 |
| 20260901100348 | 57 | 119 | 2.0 | 6.0 | 0.00 | 0.00 | 0.00 | 84 | 1012.6 |
| 20260901100301 | 57 | 127 | 2.0 | 6.0 | 0.00 | 0.00 | 0.00 | 84 | 1012.6 |
| 20260901100246 | 57 | 146 | 2.0 | 6.0 | 0.00 | 0.00 | 0.00 | 84 | 1012.6 |
| 20260901100140 | 57 | 146 | 2.0 | 5.0 | 0.00 | 0.00 | 0.00 | 84 | 1012.5 |
| 20260901100040 | 57 | 136 | 2.0 | 5.0 | 0.00 | 0.00 | 0.00 | 84 | 1012.6 |
| 20260901095940 | 57 | 136 | 2.0 | 5.0 | 0.00 | 0.00 | 0.00 | 84 | 1012.6 |
| 20260901095840 | 57 | 169 | 2.0 | 5.0 | 0.00 | 0.00 | 0.00 | 84 | 1012.6 |
| 20260901095759 | 57 | 100 | 2.0 | 5.0 | 0.00 | 0.00 | 0.00 | 84 | 1012.6 |
| 20260901095739 | 57 | 114 | 2.0 | 5.0 | 0.00 | 0.00 | 0.00 | 84 | 1012.6 |
| 20260901095635 | 57 | 110 | 2.0 | 5.0 | 0.00 | 0.00 | 0.00 | 84 | 1012.6 |
| 20260901095535 | 57 | 146 | 2.0 | 5.0 | 0.00 | 0.00 | 0.00 | 84 | 1012.7 |
| 20260901095434 | 57 | 139 | 2.0 | 5.0 | 0.00 | 0.00 | 0.00 | 84 | 1012.7 |
| 20260901095334 | 57 | 120 | 2.0 | 5.0 | 0.00 | 0.00 | 0.00 | 84 | 1012.6 |
| 20260901095300 | 57 | 214 | 2.0 | 5.0 | 0.00 | 0.00 | 0.00 | 84 | 1012.6 |
| 20260901095234 | 57 | 230 | 2.0 | 5.0 | 0.00 | 0.00 | 0.00 | 84 | 1012.6 |
| 20260901095132 | 57 | 86 | 2.0 | 5.0 | 0.00 | 0.00 | 0.00 | 84 | 1012.7 |
| 20260901095033 | 57 | 84 | 2.0 | 5.0 | 0.00 | 0.00 | 0.00 | 84 | 1012.6 |
| 20260901094932 | 57 | 142 | 2.0 | 5.0 | 0.00 | 0.00 | 0.00 | 84 | 1012.6 |
| 20260901094830 | 57 | 141 | 2.0 | 5.0 | 0.00 | 0.00 | 0.00 | 84 | 1012.7 |
| 20260901094800 | 57 | 130 | 2.0 | 5.0 | 0.00 | 0.00 | 0.00 | 84 | 1012.6 |
| 20260901094729 | 57 | 150 | 2.0 | 5.0 | 0.00 | 0.00 | 0.00 | 84 | 1012.6 |
| 20260901094625 | 57 | 139 | 2.0 | 5.0 | 0.00 | 0.00 | 0.00 | 84 | 1012.7 |
| 20260901094528 | 57 | 146 | 2.0 | 5.0 | 0.00 | 0.00 | 0.00 | 84 | 1012.6 |
| 20260901094519 | 57 | 145 | 2.0 | 5.0 | 0.00 | 0.00 | 0.00 | 84 | 1012.5 |
| 20260901094424 | 57 | 138 | 2.0 | 5.0 | 0.00 | 0.00 | 0.00 | 84 | 1012.6 |
| 20260901094414 | 57 | 117 | 2.0 | 5.0 | 0.00 | 0.00 | 0.00 | 84 | 1012.6 |
| 20260901094222 | 57 | 155 | 2.0 | 5.0 | 0.00 | 0.00 | 0.00 | 84 | 1012.6 |
| 20260901094116 | 57 | 211 | 2.0 | 5.0 | 0.00 | 0.00 | 0.00 | 84 | 1012.6 |
| 20260901094021 | 57 | 100 | 2.0 | 5.0 | 0.00 | 0.00 | 0.00 | 84 | 1012.5 |
| 20260901093916 | 57 | 103 | 2.0 | 5.0 | 0.00 | 0.00 | 0.00 | 84 | 1012.5 |
| 20260901093816 | 57 | 143 | 2.0 | 5.0 | 0.00 | 0.00 | 0.00 | 84 | 1012.5 |
| 20260901093800 | 57 | 107 | 2.0 | 5.0 | 0.00 | 0.00 | 0.00 | 84 | 1012.6 |
| 20260901093716 | 57 | 117 | 2.0 | 5.0 | 0.00 | 0.00 | 0.00 | 84 | 1012.5 |
| 20260901093611 | 57 | 141 | 2.0 | 5.0 | 0.00 | 0.00 | 0.00 | 84 | 1012.5 |
| 20260901093531 | 57 | 150 | 2.0 | 5.0 | 0.00 | 0.00 | 0.00 | 84 | 1012.5 |
| 20260901093512 | 57 | 136 | 2.0 | 5.0 | 0.00 | 0.00 | 0.00 | 84 | 1012.5 |
| 20260901093435 | 57 | 141 | 2.0 | 5.0 | 0.00 | 0.00 | 0.00 | 84 | 1012.5 |
| 20260901093426 | 57 | 150 | 2.0 | 5.0 | 0.00 | 0.00 | 0.00 | 84 | 1012.5 |
| 20260901093210 | 57 | 191 | 2.0 | 5.0 | 0.00 | 0.00 | 0.00 | 84 | 1012.5 |
| 20260901093105 | 57 | 107 | 2.0 | 5.0 | 0.00 | 0.00 | 0.00 | 84 | 1012.5 |
| 20260901093004 | 57 | 96 | 2.0 | 5.0 | 0.00 | 0.00 | 0.00 | 84 | 1012.5 |
| 20260901092904 | 57 | 117 | 2.0 | 5.0 | 0.00 | 0.00 | 0.00 | 84 | 1012.5 |
| 20260901092810 | 57 | 139 | 2.0 | 5.0 | 0.00 | 0.00 | 0.00 | 84 | 1012.5 |
| 20260901092759 | 57 | 129 | 2.0 | 5.0 | 0.00 | 0.00 | 0.00 | 84 | 1012.5 |
| 20260901092705 | 57 | 124 | 2.0 | 5.0 | 0.00 | 0.00 | 0.00 | 84 | 1012.5 |
| 20260901092604 | 57 | 105 | 2.0 | 5.0 | 0.00 | 0.00 | 0.00 | 84 | 1012.5 |
| 20260901092503 | 57 | 104 | 2.0 | 5.0 | 0.00 | 0.00 | 0.00 | 84 | 1012.5 |
| 20260901092402 | 57 | 104 | 2.0 | 5.0 | 0.00 | 0.00 | 0.00 | 84 | 1012.5 |
| 20260901092300 | 57 | 165 | 2.0 | 5.0 | 0.00 | 0.00 | 0.00 | 84 | 1012.4 |
| 20260901092159 | 57 | 107 | 2.0 | 5.0 | 0.00 | 0.00 | 0.00 | 84 | 1012.5 |
| 20260901092053 | 57 | 114 | 2.0 | 5.0 | 0.00 | 0.00 | 0.00 | 84 | 1012.5 |
| 20260901091952 | 57 | 116 | 2.0 | 5.0 | 0.00 | 0.00 | 0.00 | 84 | 1012.5 |
| 20260901091852 | 57 | 114 | 2.0 | 5.0 | 0.00 | 0.00 | 0.00 | 84 | 1012.5 |
| 20260901091759 | 57 | 132 | 2.0 | 5.0 | 0.00 | 0.00 | 0.00 | 84 | 1012.6 |
| 20260901091753 | 57 | 121 | 2.0 | 5.0 | 0.00 | 0.00 | 0.00 | 84 | 1012.6 |
| 20260901091652 | 57 | 154 | 2.0 | 5.0 | 0.00 | 0.00 | 0.00 | 84 | 1012.5 |
| 20260901091548 | 57 | 115 | 2.0 | 5.0 | 0.00 | 0.00 | 0.00 | 84 | 1012.5 |
| 20260901091448 | 57 | 113 | 2.0 | 5.0 | 0.00 | 0.00 | 0.00 | 84 | 1012.6 |
| 20260901091348 | 57 | 129 | 2.0 | 5.0 | 0.00 | 0.00 | 0.00 | 84 | 1012.6 |
| 20260901091258 | 57 | 101 | 2.0 | 5.0 | 0.00 | 0.00 | 0.00 | 84 | 1012.6 |
| 20260901091248 | 57 | 158 | 2.0 | 5.0 | 0.00 | 0.00 | 0.00 | 84 | 1012.6 |
| 20260901091146 | 57 | 111 | 2.0 | 5.0 | 0.00 | 0.00 | 0.00 | 84 | 1012.6 |
| 20260901091042 | 57 | 135 | 1.0 | 5.0 | 0.00 | 0.00 | 0.00 | 84 | 1012.6 |
| 20260901090940 | 57 | 148 | 1.0 | 5.0 | 0.00 | 0.00 | 0.00 | 84 | 1012.7 |
| 20260901090840 | 57 | 110 | 1.0 | 5.0 | 0.00 | 0.00 | 0.00 | 84 | 1012.6 |
| 20260901090758 | 57 | 140 | 1.0 | 5.0 | 0.00 | 0.00 | 0.00 | 84 | 1012.6 |
| 20260901090741 | 57 | 141 | 1.0 | 5.0 | 0.00 | 0.00 | 0.00 | 84 | 1012.6 |
| 20260901090640 | 57 | 148 | 1.0 | 5.0 | 0.00 | 0.00 | 0.00 | 84 | 1012.6 |
| 20260901090536 | 57 | 155 | 1.0 | 5.0 | 0.00 | 0.00 | 0.00 | 84 | 1012.7 |
| 20260901090435 | 57 | 157 | 2.0 | 5.0 | 0.00 | 0.00 | 0.00 | 84 | 1012.7 |
| 20260901090334 | 57 | 115 | 1.0 | 5.0 | 0.00 | 0.00 | 0.00 | 84 | 1012.7 |
| 20260901090258 | 57 | 93 | 1.0 | 5.0 | 0.00 | 0.00 | 0.00 | 84 | 1012.7 |
| 20260901090234 | 57 | 93 | 1.0 | 5.0 | 0.00 | 0.00 | 0.00 | 83 | 1012.7 |
| 20260901090135 | 57 | 150 | 2.0 | 5.0 | 0.00 | 0.00 | 0.00 | 83 | 1012.7 |
| 20260901090032 | 57 | 141 | 2.0 | 5.0 | 0.00 | 0.00 | 0.00 | 83 | 1012.7 |
| 20260901085932 | 57 | 154 | 2.0 | 5.0 | 0.00 | 0.00 | 0.00 | 83 | 1012.7 |
| 20260901085832 | 57 | 91 | 2.0 | 3.0 | 0.00 | 0.00 | 0.00 | 83 | 1012.7 |
| 20260901085757 | 57 | 97 | 2.0 | 5.0 | 0.00 | 0.00 | 0.00 | 83 | 1012.7 |
| 20260901085732 | 57 | 105 | 2.0 | 5.0 | 0.00 | 0.00 | 0.00 | 83 | 1012.7 |
| 20260901085633 | 57 | 104 | 2.0 | 5.0 | 0.00 | 0.00 | 0.00 | 83 | 1012.7 |
| 20260901085525 | 57 | 88 | 2.0 | 8.0 | 0.00 | 0.00 | 0.00 | 83 | 1012.7 |
| 20260901085422 | 57 | 138 | 2.0 | 8.0 | 0.00 | 0.00 | 0.00 | 83 | 1012.7 |
| 20260901085323 | 57 | 121 | 2.0 | 8.0 | 0.00 | 0.00 | 0.00 | 83 | 1012.7 |
| 20260901085257 | 58 | 218 | 2.0 | 8.0 | 0.00 | 0.00 | 0.00 | 83 | 1012.7 |
| 20260901085221 | 58 | 115 | 2.0 | 8.0 | 0.00 | 0.00 | 0.00 | 83 | 1012.7 |
| 20260901085119 | 58 | 110 | 2.0 | 8.0 | 0.00 | 0.00 | 0.00 | 83 | 1012.7 |
| 20260901085012 | 58 | 162 | 2.0 | 8.0 | 0.00 | 0.00 | 0.00 | 83 | 1012.7 |
| 20260901084912 | 58 | 131 | 2.0 | 8.0 | 0.00 | 0.00 | 0.00 | 83 | 1012.7 |
| 20260901084813 | 58 | 138 | 2.0 | 8.0 | 0.00 | 0.00 | 0.00 | 83 | 1012.7 |
| 20260901084752 | 58 | 129 | 2.0 | 8.0 | 0.00 | 0.00 | 0.00 | 83 | 1012.7 |
| 20260901084712 | 58 | 138 | 3.0 | 8.0 | 0.00 | 0.00 | 0.00 | 83 | 1012.7 |
| 20260901084612 | 58 | 155 | 3.0 | 7.0 | 0.00 | 0.00 | 0.00 | 83 | 1012.7 |
| 20260901084511 | 58 | 155 | 2.0 | 7.0 | 0.00 | 0.00 | 0.00 | 83 | 1012.7 |
| 20260901084410 | 58 | 161 | 2.0 | 7.0 | 0.00 | 0.00 | 0.00 | 83 | 1012.7 |
| 20260901084310 | 58 | 124 | 2.0 | 7.0 | 0.00 | 0.00 | 0.00 | 83 | 1012.7 |
| 20260901084246 | 58 | 169 | 2.0 | 7.0 | 0.00 | 0.00 | 0.00 | 83 | 1012.7 |
| 20260901084209 | 58 | 120 | 3.0 | 7.0 | 0.00 | 0.00 | 0.00 | 83 | 1012.7 |
| 20260901084107 | 58 | 152 | 2.0 | 7.0 | 0.00 | 0.00 | 0.00 | 83 | 1012.7 |
| 20260901084000 | 58 | 144 | 3.0 | 7.0 | 0.00 | 0.00 | 0.00 | 83 | 1012.7 |
| 20260901083901 | 58 | 150 | 3.0 | 7.0 | 0.00 | 0.00 | 0.00 | 83 | 1012.7 |
| 20260901083800 | 58 | 141 | 3.0 | 8.0 | 0.00 | 0.00 | 0.00 | 83 | 1012.7 |
| 20260901083739 | 58 | 146 | 3.0 | 8.0 | 0.00 | 0.00 | 0.00 | 83 | 1012.7 |
| 20260901083700 | 58 | 146 | 3.0 | 8.0 | 0.00 | 0.00 | 0.00 | 83 | 1012.7 |
| 20260901083601 | 58 | 120 | 3.0 | 8.0 | 0.00 | 0.00 | 0.00 | 83 | 1012.7 |
| 20260901083459 | 58 | 120 | 3.0 | 8.0 | 0.00 | 0.00 | 0.00 | 83 | 1012.7 |
| 20260901083358 | 58 | 131 | 3.0 | 8.0 | 0.00 | 0.00 | 0.00 | 83 | 1012.7 |
| 20260901083256 | 58 | 146 | 3.0 | 8.0 | 0.00 | 0.00 | 0.00 | 83 | 1012.8 |
| 20260901083233 | 58 | 99 | 3.0 | 8.0 | 0.00 | 0.00 | 0.00 | 83 | 1012.8 |
| 20260901083156 | 58 | 155 | 3.0 | 8.0 | 0.00 | 0.00 | 0.00 | 83 | 1012.7 |
| 20260901083054 | 58 | 151 | 3.0 | 8.0 | 0.00 | 0.00 | 0.00 | 83 | 1012.7 |
| 20260901082948 | 58 | 145 | 3.0 | 8.0 | 0.00 | 0.00 | 0.00 | 83 | 1012.7 |
| 20260901082848 | 58 | 136 | 3.0 | 8.0 | 0.00 | 0.00 | 0.00 | 83 | 1012.7 |
| 20260901082749 | 58 | 155 | 3.0 | 7.0 | 0.00 | 0.00 | 0.00 | 83 | 1012.7 |
| 20260901082728 | 58 | 104 | 3.0 | 7.0 | 0.00 | 0.00 | 0.00 | 83 | 1012.7 |
| 20260901082648 | 58 | 148 | 2.0 | 7.0 | 0.00 | 0.00 | 0.00 | 83 | 1012.6 |
| 20260901082549 | 58 | 145 | 3.0 | 7.0 | 0.00 | 0.00 | 0.00 | 83 | 1012.6 |
| 20260901082444 | 58 | 169 | 3.0 | 7.0 | 0.00 | 0.00 | 0.00 | 83 | 1012.6 |
| 20260901082345 | 58 | 135 | 3.0 | 7.0 | 0.00 | 0.00 | 0.00 | 83 | 1012.6 |
| 20260901082244 | 58 | 143 | 3.0 | 7.0 | 0.00 | 0.00 | 0.00 | 83 | 1012.5 |
| 20260901082221 | 58 | 99 | 3.0 | 7.0 | 0.00 | 0.00 | 0.00 | 83 | 1012.5 |
| 20260901082144 | 58 | 125 | 3.0 | 7.0 | 0.00 | 0.00 | 0.00 | 83 | 1012.5 |
| 20260901082043 | 58 | 150 | 3.0 | 7.0 | 0.00 | 0.00 | 0.00 | 83 | 1012.6 |
| 20260901081945 | 58 | 125 | 3.0 | 7.0 | 0.00 | 0.00 | 0.00 | 83 | 1012.6 |
| 20260901081936 | 58 | 78 | 3.0 | 7.0 | 0.00 | 0.00 | 0.00 | 83 | 1012.6 |
| 20260901081837 | 58 | 146 | 3.0 | 7.0 | 0.00 | 0.00 | 0.00 | 83 | 1012.5 |
| 20260901081825 | 58 | 149 | 3.0 | 7.0 | 0.00 | 0.00 | 0.00 | 83 | 1012.5 |
| 20260901081636 | 58 | 154 | 3.0 | 7.0 | 0.00 | 0.00 | 0.00 | 83 | 1012.6 |
| 20260901081537 | 58 | 132 | 3.0 | 7.0 | 0.00 | 0.00 | 0.00 | 83 | 1012.5 |
| 20260901081430 | 58 | 145 | 3.0 | 7.0 | 0.00 | 0.00 | 0.00 | 83 | 1012.6 |
| 20260901081330 | 58 | 141 | 3.0 | 7.0 | 0.00 | 0.00 | 0.00 | 83 | 1012.6 |
| 20260901081230 | 58 | 154 | 3.0 | 8.0 | 0.00 | 0.00 | 0.00 | 83 | 1012.6 |
| 20260901081210 | 58 | 131 | 3.0 | 8.0 | 0.00 | 0.00 | 0.00 | 83 | 1012.6 |
| 20260901081130 | 58 | 146 | 3.0 | 8.0 | 0.00 | 0.00 | 0.00 | 83 | 1012.6 |
| 20260901081030 | 57 | 137 | 3.0 | 8.0 | 0.00 | 0.00 | 0.00 | 83 | 1012.6 |
| 20260901080926 | 57 | 172 | 3.0 | 8.0 | 0.00 | 0.00 | 0.00 | 83 | 1012.6 |
| 20260901080826 | 57 | 150 | 3.0 | 8.0 | 0.00 | 0.00 | 0.00 | 84 | 1012.5 |
| 20260901080726 | 57 | 131 | 3.0 | 8.0 | 0.00 | 0.00 | 0.00 | 83 | 1012.6 |
| 20260901080709 | 57 | 121 | 3.0 | 8.0 | 0.00 | 0.00 | 0.00 | 83 | 1012.5 |
| 20260901080626 | 57 | 138 | 3.0 | 8.0 | 0.00 | 0.00 | 0.00 | 83 | 1012.5 |
| 20260901080525 | 57 | 132 | 3.0 | 8.0 | 0.00 | 0.00 | 0.00 | 83 | 1012.6 |
| 20260901080418 | 57 | 182 | 3.0 | 8.0 | 0.00 | 0.00 | 0.00 | 83 | 1012.6 |
| 20260901080318 | 57 | 158 | 3.0 | 8.0 | 0.00 | 0.00 | 0.00 | 83 | 1012.6 |
| 20260901080218 | 57 | 146 | 3.0 | 7.0 | 0.00 | 0.00 | 0.00 | 83 | 1012.6 |
| 20260901080208 | 57 | 205 | 3.0 | 7.0 | 0.00 | 0.00 | 0.00 | 83 | 1012.6 |
| 20260901080118 | 57 | 135 | 3.0 | 7.0 | 0.00 | 0.00 | 0.00 | 83 | 1012.6 |
| 20260901080017 | 57 | 158 | 3.0 | 7.0 | 0.00 | 0.00 | 0.00 | 83 | 1012.5 |
| 20260901075912 | 57 | 143 | 3.0 | 7.0 | 0.00 | 0.00 | 0.00 | 83 | 1012.5 |
| 20260901075812 | 58 | 148 | 2.0 | 7.0 | 0.00 | 0.00 | 0.00 | 83 | 1012.4 |
| 20260901075722 | 58 | 146 | 2.0 | 7.0 | 0.00 | 0.00 | 0.00 | 83 | 1012.5 |
| 20260901075712 | 58 | 148 | 2.0 | 7.0 | 0.00 | 0.00 | 0.00 | 83 | 1012.5 |
| 20260901075612 | 58 | 115 | 2.0 | 7.0 | 0.00 | 0.00 | 0.00 | 83 | 1012.5 |
| 20260901075513 | 58 | 150 | 2.0 | 7.0 | 0.00 | 0.00 | 0.00 | 83 | 1012.5 |
| 20260901075408 | 58 | 134 | 2.0 | 7.0 | 0.00 | 0.00 | 0.00 | 83 | 1012.4 |
| 20260901075309 | 58 | 131 | 2.0 | 7.0 | 0.00 | 0.00 | 0.00 | 83 | 1012.4 |
| 20260901075212 | 58 | 174 | 2.0 | 7.0 | 0.00 | 0.00 | 0.00 | 83 | 1012.4 |
| 20260901075206 | 58 | 173 | 2.0 | 7.0 | 0.00 | 0.00 | 0.00 | 83 | 1012.4 |
| 20260901075107 | 58 | 129 | 2.0 | 7.0 | 0.00 | 0.00 | 0.00 | 83 | 1012.4 |
| 20260901075006 | 58 | 139 | 2.0 | 5.0 | 0.00 | 0.00 | 0.00 | 83 | 1012.4 |
| 20260901074935 | 58 | 136 | 2.0 | 7.0 | 0.00 | 0.00 | 0.00 | 83 | 1012.4 |
| 20260901074901 | 58 | 140 | 2.0 | 7.0 | 0.00 | 0.00 | 0.00 | 83 | 1012.4 |
| 20260901074816 | 58 | 144 | 2.0 | 7.0 | 0.00 | 0.00 | 0.00 | 83 | 1012.4 |
| 20260901074700 | 58 | 146 | 2.0 | 7.0 | 0.00 | 0.00 | 0.00 | 83 | 1012.4 |
| 20260901074601 | 58 | 138 | 2.0 | 7.0 | 0.00 | 0.00 | 0.00 | 83 | 1012.4 |
| 20260901074500 | 58 | 136 | 2.0 | 7.0 | 0.00 | 0.00 | 0.00 | 83 | 1012.4 |
| 20260901074356 | 58 | 164 | 3.0 | 7.0 | 0.00 | 0.00 | 0.00 | 83 | 1012.4 |
| 20260901074256 | 58 | 148 | 3.0 | 7.0 | 0.00 | 0.00 | 0.00 | 83 | 1012.3 |
| 20260901074206 | 58 | 117 | 3.0 | 7.0 | 0.00 | 0.00 | 0.00 | 83 | 1012.3 |
| 20260901074156 | 58 | 139 | 3.0 | 7.0 | 0.00 | 0.00 | 0.00 | 83 | 1012.3 |
| 20260901074056 | 58 | 166 | 3.0 | 7.0 | 0.00 | 0.00 | 0.00 | 83 | 1012.3 |
| 20260901073953 | 58 | 89 | 3.0 | 7.0 | 0.00 | 0.00 | 0.00 | 83 | 1012.3 |
| 20260901073853 | 58 | 150 | 3.0 | 6.0 | 0.00 | 0.00 | 0.00 | 83 | 1012.4 |
| 20260901073752 | 58 | 139 | 3.0 | 6.0 | 0.00 | 0.00 | 0.00 | 83 | 1012.3 |
| 20260901073706 | 58 | 144 | 3.0 | 6.0 | 0.00 | 0.00 | 0.00 | 83 | 1012.3 |
| 20260901073653 | 58 | 148 | 3.0 | 6.0 | 0.00 | 0.00 | 0.00 | 83 | 1012.3 |
| 20260901073558 | 58 | 134 | 3.0 | 6.0 | 0.00 | 0.00 | 0.00 | 83 | 1012.3 |
| 20260901073452 | 58 | 139 | 3.0 | 6.0 | 0.00 | 0.00 | 0.00 | 83 | 1012.4 |
| 20260901073342 | 58 | 130 | 3.0 | 6.0 | 0.00 | 0.00 | 0.00 | 83 | 1012.4 |
| 20260901073242 | 58 | 148 | 3.0 | 6.0 | 0.00 | 0.00 | 0.00 | 83 | 1012.3 |
| 20260901073203 | 58 | 167 | 3.0 | 6.0 | 0.00 | 0.00 | 0.00 | 83 | 1012.4 |
| 20260901073143 | 58 | 104 | 3.0 | 6.0 | 0.00 | 0.00 | 0.00 | 83 | 1012.4 |
| 20260901073044 | 58 | 141 | 2.0 | 6.0 | 0.00 | 0.00 | 0.00 | 83 | 1012.3 |
| 20260901072942 | 58 | 221 | 2.0 | 6.0 | 0.00 | 0.00 | 0.00 | 83 | 1012.4 |
| 20260901072840 | 58 | 165 | 2.0 | 6.0 | 0.00 | 0.00 | 0.00 | 83 | 1012.4 |
| 20260901072740 | 58 | 150 | 2.0 | 6.0 | 0.00 | 0.00 | 0.00 | 83 | 1012.4 |
| 20260901072704 | 58 | 146 | 2.0 | 6.0 | 0.00 | 0.00 | 0.00 | 83 | 1012.4 |
| 20260901072640 | 58 | 141 | 2.0 | 6.0 | 0.00 | 0.00 | 0.00 | 82 | 1012.4 |
| 20260901072539 | 58 | 127 | 2.0 | 6.0 | 0.00 | 0.00 | 0.00 | 82 | 1012.4 |
| 20260901072436 | 58 | 158 | 2.0 | 6.0 | 0.00 | 0.00 | 0.00 | 82 | 1012.4 |
| 20260901072332 | 58 | 144 | 2.0 | 7.0 | 0.00 | 0.00 | 0.00 | 82 | 1012.3 |
| 20260901072230 | 58 | 138 | 2.0 | 7.0 | 0.00 | 0.00 | 0.00 | 82 | 1012.4 |
| 20260901072203 | 58 | 139 | 2.0 | 7.0 | 0.00 | 0.00 | 0.00 | 82 | 1012.4 |
| 20260901072130 | 58 | 145 | 2.0 | 7.0 | 0.00 | 0.00 | 0.00 | 82 | 1012.4 |
| 20260901072030 | 58 | 128 | 2.0 | 7.0 | 0.00 | 0.00 | 0.00 | 82 | 1012.4 |
| 20260901071930 | 58 | 146 | 3.0 | 7.0 | 0.00 | 0.00 | 0.00 | 82 | 1012.4 |
| 20260901071824 | 58 | 136 | 3.0 | 7.0 | 0.00 | 0.00 | 0.00 | 82 | 1012.4 |
| 20260901071725 | 58 | 139 | 3.0 | 7.0 | 0.00 | 0.00 | 0.00 | 82 | 1012.4 |
| 20260901071701 | 58 | 136 | 2.0 | 7.0 | 0.00 | 0.00 | 0.00 | 82 | 1012.3 |
| 20260901071624 | 58 | 150 | 2.0 | 7.0 | 0.00 | 0.00 | 0.00 | 82 | 1012.3 |
| 20260901071525 | 58 | 142 | 2.0 | 7.0 | 0.00 | 0.00 | 0.00 | 82 | 1012.4 |
| 20260901071429 | 58 | 146 | 3.0 | 7.0 | 0.00 | 0.00 | 0.00 | 82 | 1012.3 |
| 20260901071423 | 58 | 134 | 3.0 | 7.0 | 0.00 | 0.00 | 0.00 | 82 | 1012.3 |
| 20260901071325 | 58 | 125 | 3.0 | 7.0 | 0.00 | 0.00 | 0.00 | 82 | 1012.3 |
| 20260901071312 | 58 | 148 | 3.0 | 7.0 | 0.00 | 0.00 | 0.00 | 82 | 1012.3 |
| 20260901071119 | 58 | 136 | 3.0 | 7.0 | 0.00 | 0.00 | 0.00 | 82 | 1012.3 |
| 20260901071021 | 58 | 134 | 3.0 | 7.0 | 0.00 | 0.00 | 0.00 | 82 | 1012.3 |
| 20260901070918 | 58 | 132 | 2.0 | 6.0 | 0.00 | 0.00 | 0.00 | 82 | 1012.3 |
| 20260901070813 | 58 | 214 | 2.0 | 6.0 | 0.00 | 0.00 | 0.00 | 82 | 1012.3 |
| 20260901070713 | 58 | 127 | 3.0 | 6.0 | 0.00 | 0.00 | 0.00 | 82 | 1012.3 |
| 20260901070701 | 58 | 146 | 3.0 | 6.0 | 0.00 | 0.00 | 0.00 | 82 | 1012.3 |
| 20260901070612 | 58 | 146 | 2.0 | 6.0 | 0.00 | 0.00 | 0.00 | 82 | 1012.3 |
| 20260901070515 | 58 | 141 | 2.0 | 6.0 | 0.00 | 0.00 | 0.00 | 81 | 1012.4 |
| 20260901070412 | 59 | 122 | 2.0 | 6.0 | 0.00 | 0.00 | 0.00 | 81 | 1012.4 |
| 20260901070312 | 59 | 100 | 2.0 | 5.0 | 0.00 | 0.00 | 0.00 | 81 | 1012.4 |
| 20260901070215 | 59 | 148 | 2.0 | 5.0 | 0.00 | 0.00 | 0.00 | 81 | 1012.4 |
| 20260901070201 | 59 | 175 | 2.0 | 5.0 | 0.00 | 0.00 | 0.00 | 81 | 1012.4 |
| 20260901070114 | 59 | 139 | 2.0 | 5.0 | 0.00 | 0.00 | 0.00 | 81 | 1012.4 |
| 20260901070017 | 59 | 149 | 2.0 | 5.0 | 0.00 | 0.00 | 0.00 | 81 | 1012.4 |
| 20260901065925 | 59 | 199 | 2.0 | 5.0 | 0.00 | 0.00 | 0.00 | 81 | 1012.4 |
| 20260901065910 | 59 | 149 | 2.0 | 5.0 | 0.00 | 0.00 | 0.00 | 81 | 1012.4 |
| 20260901065811 | 59 | 143 | 2.0 | 5.0 | 0.00 | 0.00 | 0.00 | 81 | 1012.4 |
| 20260901065711 | 59 | 200 | 2.0 | 5.0 | 0.00 | 0.00 | 0.00 | 81 | 1012.4 |
| 20260901065609 | 59 | 139 | 3.0 | 8.0 | 0.00 | 0.00 | 0.00 | 80 | 1012.3 |
| 20260901065506 | 59 | 168 | 3.0 | 8.0 | 0.00 | 0.00 | 0.00 | 80 | 1012.3 |
| 20260901065407 | 59 | 168 | 2.0 | 8.0 | 0.00 | 0.00 | 0.00 | 80 | 1012.4 |
| 20260901065306 | 59 | 155 | 2.0 | 8.0 | 0.00 | 0.00 | 0.00 | 80 | 1012.3 |
| 20260901065212 | 59 | 201 | 2.0 | 8.0 | 0.00 | 0.00 | 0.00 | 80 | 1012.3 |
| 20260901065059 | 59 | 143 | 3.0 | 8.0 | 0.00 | 0.00 | 0.00 | 80 | 1012.3 |
| 20260901064959 | 59 | 167 | 3.0 | 8.0 | 0.00 | 0.00 | 0.00 | 80 | 1012.3 |
| 20260901064859 | 59 | 139 | 3.0 | 8.0 | 0.00 | 0.00 | 0.00 | 80 | 1012.3 |
| 20260901064758 | 59 | 99 | 3.0 | 8.0 | 0.00 | 0.00 | 0.00 | 80 | 1012.3 |
| 20260901064659 | 59 | 152 | 3.0 | 8.0 | 0.00 | 0.00 | 0.00 | 80 | 1012.3 |
| 20260901064554 | 59 | 130 | 3.0 | 6.0 | 0.00 | 0.00 | 0.00 | 80 | 1012.3 |
| 20260901064455 | 59 | 146 | 3.0 | 7.0 | 0.00 | 0.00 | 0.00 | 80 | 1012.3 |
| 20260901064353 | 59 | 129 | 3.0 | 7.0 | 0.00 | 0.00 | 0.00 | 80 | 1012.4 |
| 20260901064253 | 59 | 179 | 3.0 | 7.0 | 0.00 | 0.00 | 0.00 | 80 | 1012.4 |
| 20260901064153 | 59 | 129 | 3.0 | 7.0 | 0.00 | 0.00 | 0.00 | 80 | 1012.3 |
| 20260901064046 | 60 | 120 | 3.0 | 7.0 | 0.00 | 0.00 | 0.00 | 80 | 1012.3 |
| 20260901063946 | 60 | 158 | 3.0 | 7.0 | 0.00 | 0.00 | 0.00 | 80 | 1012.3 |
| 20260901063847 | 60 | 113 | 3.0 | 7.0 | 0.00 | 0.00 | 0.00 | 80 | 1012.3 |
| 20260901063746 | 60 | 143 | 3.0 | 7.0 | 0.00 | 0.00 | 0.00 | 80 | 1012.3 |
| 20260901063648 | 60 | 204 | 3.0 | 7.0 | 0.00 | 0.00 | 0.00 | 80 | 1012.3 |